[[{"header":{"parameterUnit":"m.s-1","parameterCategory":1,"la1":30.6,"la2":28.766,"lo1":-90.7593,"lo2":-88.6598,"dy":0.0162,"dx":0.0183,"nx":116,"ny":114,"refTime":"2023-09-01T06:00:00:Z","depth":0,"parameterNumber":2,"parameterNumberName":"U-component_of_WINDS"},"data":[0.0,0.0,0.0,0.0,0.0,0.0,0.0,0.0,0.0,0.0,0.0,0.0,0.0,0.0,0.0,0.0,0.0,0.0,0.0,0.0,0.0,0.0,0.0,0.0,0.0,0.0,0.0,0.0,0.0,0.0,0.0,0.0,0.0,0.0,0.0,0.0,0.0,0.0,0.0,0.0,0.0,0.0,0.0,0.0,0.0,0.0,0.0,0.0,0.0,0.0,0.0,0.0,0.0,0.0,0.0,0.0,0.0,0.0,0.0,0.0,0.0,0.0,0.0,0.0,0.0,0.0,0.0,0.0,0.0,0.0,0.0,0.0,0.0,0.0,0.0,0.0,0.0,0.0,0.0,0.0,0.0,0.0,0.0,0.0,0.0,0.0,0.0,0.0,0.0,0.0,0.0,0.0,0.0,0.0,0.0,0.0,0.0,0.0,0.0,0.0,0.0,0.0,0.0,0.0,0.0,0.0,0.0,0.0,0.0,0.0,0.0,0.0,0.0,0.0,0.0,0.0,0.0,0.0,0.0,0.0,0.0,0.0,0.0,0.0,0.0,0.0,0.0,0.0,0.0,0.0,0.0,0.0,0.0,0.0,0.0,0.0,0.0,0.0,0.0,0.0,0.0,0.0,0.0,0.0,0.0,0.0,0.0,0.0,0.0,0.0,0.0,0.0,0.0,0.0,0.0,0.0,0.0,0.0,0.0,0.0,0.0,0.0,0.0,0.0,0.0,0.0,0.0,0.0,0.0,0.0,0.0,0.0,0.0,0.0,0.0,0.0,0.0,0.0,0.0,0.0,0.0,0.0,0.0,0.0,0.0,0.0,0.0,0.0,0.0,0.0,0.0,0.0,0.0,0.0,0.0,0.0,0.0,0.0,0.0,0.0,0.0,0.0,0.0,0.0,0.0,0.0,0.0,0.0,0.0,0.0,0.0,0.0,0.0,0.0,0.0,0.0,0.0,0.0,0.0,0.0,0.0,0.0,0.0,0.0,0.0,0.0,0.0,0.0,0.0,0.0,0.0,0.0,0.0,0.0,0.0,0.0,0.0,0.0,0.0,0.0,0.0,0.0,0.0,0.0,0.0,0.0,0.0,0.0,0.0,0.0,0.0,0.0,0.0,0.0,0.0,0.0,0.0,0.0,0.0,0.0,0.0,0.0,0.0,0.0,0.0,0.0,0.0,0.0,0.0,0.0,0.0,0.0,0.0,0.0,0.0,0.0,0.0,0.0,0.0,0.0,0.0,0.0,0.0,0.0,0.0,0.0,0.0,0.0,0.0,0.0,0.0,0.0,0.0,0.0,0.0,0.0,0.0,0.0,0.0,0.0,0.0,0.0,0.0,0.0,0.0,0.0,0.0,0.0,0.0,0.0,0.0,0.0,0.0,0.0,0.0,0.0,0.0,0.0,0.0,0.0,0.0,0.0,0.0,0.0,0.0,0.0,0.0,0.0,0.0,0.0,0.0,0.0,0.0,0.0,0.0,0.0,0.0,0.0,0.0,0.0,0.0,0.0,0.0,0.0,0.0,0.0,0.0,0.0,0.0,0.0,0.0,0.0,0.0,0.0,0.0,0.0,0.0,0.0,0.0,0.0,0.0,0.0,0.0,0.0,0.0,0.0,0.0,0.0,0.0,0.0,0.0,0.0,0.0,0.0,0.0,0.0,0.0,0.0,0.0,0.0,0.0,0.0,0.0,0.0,0.0,0.0,0.0,0.0,0.0,0.0,0.0,0.0,0.0,0.0,0.0,0.0,0.0,0.0,0.0,0.0,0.0,0.0,0.0,0.0,0.0,0.0,0.0,0.0,0.0,0.0,0.0,0.0,0.0,0.0,0.0,0.0,0.0,0.0,0.0,0.0,0.0,0.0,0.0,0.0,0.0,0.0,0.0,0.0,0.0,0.0,0.0,0.0,0.0,0.0,0.0,0.0,0.0,0.0,0.0,0.0,0.0,0.0,0.0,0.0,0.0,0.0,0.0,0.0,0.0,0.0,0.0,0.0,0.0,0.0,0.0,0.0,0.0,0.0,0.0,0.0,0.0,0.0,0.0,0.0,0.0,0.0,0.0,0.0,0.0,0.0,0.0,0.0,0.0,0.0,0.0,0.0,0.0,0.0,0.0,0.0,0.0,0.0,0.0,0.0,0.0,0.0,0.0,0.0,0.0,0.0,0.0,0.0,0.0,0.0,0.0,0.0,0.0,0.0,0.0,0.0,0.0,0.0,0.0,0.0,0.0,0.0,0.0,0.0,0.0,0.0,0.0,0.0,0.0,0.0,0.0,0.0,0.0,0.0,0.0,0.0,0.0,0.0,0.0,0.0,0.0,0.0,0.0,0.0,0.0,0.0,0.0,0.0,0.0,0.0,0.0,0.0,0.0,0.0,0.0,0.0,0.0,0.0,0.0,0.0,0.0,0.0,0.0,0.0,0.0,0.0,0.0,0.0,0.0,0.0,0.0,0.0,0.0,0.0,0.0,0.0,0.0,0.0,0.0,0.0,0.0,0.0,0.0,0.0,0.0,0.0,0.0,0.0,0.0,0.0,0.0,0.0,0.0,0.0,0.0,0.0,0.0,0.0,0.0,0.0,0.0,0.0,0.0,0.0,0.0,0.0,0.0,0.0,0.0,0.0,0.0,0.0,0.0,0.0,0.0,0.0,0.0,0.0,0.0,0.0,0.0,0.0,0.0,0.0,0.0,0.0,0.0,0.0,0.0,0.0,0.0,0.0,0.0,0.0,0.0,0.0,0.0,0.0,0.0,0.0,0.0,0.0,0.0,0.0,0.0,0.0,0.0,0.0,0.0,0.0,0.0,0.0,0.0,0.0,0.0,0.0,0.0,0.0,0.0,0.0,0.0,0.0,0.0,0.0,0.0,0.0,0.0,0.0,0.0,0.0,0.0,0.0,0.0,0.0,0.0,0.0,0.0,0.0,0.0,0.0,0.0,0.0,0.0,0.0,0.0,0.0,0.0,0.0,0.0,0.0,0.0,0.0,0.0,0.0,0.0,0.0,0.0,0.0,0.0,0.0,0.0,0.0,0.0,0.0,0.0,0.0,0.0,0.0,0.0,0.0,0.0,0.0,0.0,0.0,0.0,0.0,0.0,0.0,0.0,0.0,0.0,0.0,0.0,0.0,0.0,0.0,0.0,0.0,0.0,0.0,0.0,0.0,0.0,0.0,0.0,0.0,0.0,0.0,0.0,0.0,0.0,0.0,0.0,0.0,0.0,0.0,0.0,0.0,0.0,0.0,0.0,0.0,0.0,0.0,0.0,0.0,0.0,0.0,0.0,0.0,0.0,0.0,0.0,0.0,0.0,0.0,0.0,0.0,0.0,0.0,0.0,0.0,0.0,0.0,0.0,0.0,0.0,0.0,0.0,0.0,0.0,0.0,0.0,0.0,0.0,0.0,0.0,0.0,0.0,0.0,0.0,0.0,0.0,0.0,0.0,0.0,0.0,0.0,0.0,0.0,0.0,0.0,0.0,0.0,0.0,0.0,0.0,0.0,0.0,0.0,0.0,0.0,0.0,0.0,0.0,0.0,0.0,0.0,0.0,0.0,0.0,0.0,0.0,0.0,0.0,0.0,0.0,0.0,0.0,0.0,0.0,0.0,0.0,0.0,0.0,0.0,0.0,0.0,0.0,0.0,0.0,0.0,0.0,0.0,0.0,0.0,0.0,0.0,0.0,0.0,0.0,0.0,0.0,0.0,0.0,0.0,0.0,0.0,0.0,0.0,0.0,0.0,0.0,0.0,0.0,0.0,0.0,0.0,0.0,0.0,0.0,0.0,0.0,0.0,0.0,0.0,0.0,0.0,0.0,0.0,0.0,0.0,0.0,0.0,0.0,0.0,0.0,0.0,0.0,0.0,0.0,0.0,0.0,0.0,0.0,0.0,0.0,0.0,0.0,0.0,0.0,0.0,0.0,0.0,0.0,0.0,0.0,0.0,0.0,0.0,0.0,0.0,0.0,0.0,0.0,0.0,0.0,0.0,0.0,0.0,0.0,0.0,0.0,0.0,0.0,0.0,0.0,0.0,0.0,0.0,0.0,0.0,0.0,0.0,0.0,0.0,0.0,0.0,0.0,0.0,0.0,0.0,0.0,0.0,0.0,0.0,0.0,0.0,0.0,0.0,0.0,0.0,0.0,0.0,0.0,0.0,0.0,0.0,0.0,0.0,0.0,0.0,0.0,0.0,0.0,0.0,0.0,0.0,0.0,0.0,0.0,0.0,0.0,0.0,0.0,0.0,0.0,0.0,0.0,0.0,0.0,0.0,0.0,0.0,0.0,0.0,0.0,0.0,0.0,0.0,0.0,0.0,0.0,0.0,0.0,0.0,0.0,0.0,0.0,0.0,0.0,0.0,0.0,0.0,0.0,0.0,0.0,0.0,0.0,0.0,0.0,0.0,0.0,0.0,0.0,0.0,0.0,0.0,0.0,0.0,0.0,0.0,0.0,0.0,0.0,0.0,0.0,0.0,0.0,0.0,0.0,0.0,0.0,0.0,0.0,0.0,0.0,0.0,0.0,0.0,0.0,0.0,0.0,0.0,0.0,0.0,0.0,0.0,0.0,0.0,0.0,0.0,0.0,0.0,0.0,0.0,0.0,0.0,0.0,0.0,0.0,0.0,0.0,0.0,0.0,0.0,0.0,0.0,0.0,0.0,0.0,0.0,0.0,0.0,0.0,0.0,0.0,0.0,0.0,0.0,0.0,0.0,0.0,0.0,0.0,0.0,0.0,0.0,0.0,0.0,0.0,0.0,0.0,0.0,0.0,0.0,0.0,0.0,0.0,0.0,0.0,0.0,0.0,0.0,0.0,0.0,0.0,0.0,0.0,0.0,0.0,0.0,0.0,0.0,0.0,0.0,0.0,0.0,0.0,0.0,0.0,0.0,0.0,0.0,0.0,0.0,0.0,0.0,0.0,0.0,0.0,0.0,0.0,0.0,0.0,0.0,0.0,0.0,0.0,0.0,0.0,0.0,0.0,0.0,0.0,0.0,0.0,0.0,0.0,0.0,0.0,0.0,0.0,0.0,0.0,0.0,0.0,0.0,0.0,0.0,0.0,0.0,0.0,0.0,0.0,0.0,0.0,0.0,0.0,0.0,0.0,0.0,0.0,0.0,0.0,0.0,0.0,0.0,0.0,0.0,0.0,0.0,0.0,0.0,0.0,0.0,0.0,0.0,0.0,0.0,0.0,0.0,0.0,0.0,0.0,0.0,0.0,0.0,0.0,0.0,0.0,0.0,0.0,0.0,0.0,0.0,0.0,0.0,0.0,0.0,0.0,0.0,0.0,0.0,0.0,0.0,0.0,0.0,0.0,0.0,0.0,0.0,0.0,0.0,0.0,0.0,0.0,0.0,0.0,0.0,0.0,0.0,0.0,0.0,0.0,0.0,0.0,0.0,0.0,0.0,0.0,0.0,0.0,0.0,0.0,0.0,0.0,0.0,0.0,0.0,0.0,0.0,0.0,0.0,0.0,0.0,0.0,0.0,0.0,0.0,0.0,0.0,0.0,0.0,0.0,0.0,0.0,0.0,0.0,0.0,0.0,0.0,0.0,0.0,0.0,0.0,0.0,0.0,0.0,0.0,0.0,0.0,0.0,0.0,0.0,0.0,0.0,0.0,0.0,0.0,0.0,0.0,0.0,0.0,0.0,0.0,0.0,0.0,0.0,0.0,0.0,0.0,0.0,0.0,0.0,0.0,0.0,0.0,0.0,0.0,0.0,0.0,0.0,0.0,0.0,0.0,0.0,0.0,0.0,0.0,0.0,0.0,0.0,0.0,0.0,0.0,0.0,0.0,0.0,0.0,0.0,0.0,0.0,0.0,0.0,0.0,0.0,0.0,0.0,0.0,0.0,0.0,0.0,0.0,0.0,0.0,0.0,0.0,0.0,0.0,0.0,0.0,0.0,0.0,0.0,0.0,0.0,0.0,0.0,0.0,0.0,0.0,0.0,0.0,0.0,0.0,0.0,0.0,0.0,0.0,0.0,0.0,0.0,0.0,0.0,0.0,0.0,0.0,0.0,0.0,0.0,0.0,0.0,0.0,0.0,0.0,0.0,0.0,0.0,0.0,0.0,0.0,0.0,0.0,0.0,0.0,-0.0787,0.0028,0.0,0.0,0.0,0.0,0.0,0.0,0.0,0.0,0.0,0.0,0.0,0.0,0.0,0.0,0.0,0.0,0.0,0.0,0.0,0.0,0.0,0.0,0.0,0.0,0.0,0.0,0.0,0.0,0.0,0.0,0.0,0.0,0.0,0.0,0.0,0.0,0.0,0.0,-0.8507,-0.8373,-0.8261,-0.7989,-0.7041,-0.5548,0.0,0.0,0.0,0.0,0.0,0.0,0.0,0.0,0.0,0.0,0.0,0.0,0.0,0.0,0.0,0.0,0.0,0.0,0.0,0.0,0.0,0.0,0.0,0.0,0.0,0.0,0.0,0.0,0.0,0.0,0.0,0.0,0.0,0.0,0.0,0.0,0.0,0.0,0.0,0.0,0.0,0.0,0.0,0.0,0.0,0.0,0.0,0.0,0.0,0.0,0.0,0.0,0.0,0.0,0.0,0.0,0.0,0.0,0.0,0.0,0.0,0.0,0.0,0.0,0.0,0.0,0.0,0.0,0.0,0.0,-0.1713,-0.0994,0.0,0.0,0.0,0.0,0.0,0.0,0.0,0.0,0.0,0.0,0.0,0.0,0.0,0.0,0.0,0.0,0.0,0.0,0.0,0.0,0.0,0.0,0.0,0.0,-0.6901,-0.6952,-0.7069,-0.7241,0.0,0.0,0.0,0.0,0.0,0.0,0.0,-0.917,-0.9113,-0.9113,-0.8864,-0.8901,-0.9193,-0.9389,-0.831,-0.6187,-0.5941,0.0,0.0,0.0,0.0,0.0,0.0,0.0,0.0,0.0,0.0,0.0,0.0,0.0,0.0,0.0,0.0,0.0,0.0,0.0,0.0,0.0,0.0,0.0,0.0,0.0,0.0,0.0,0.0,0.0,0.0,0.0,0.0,0.0,0.0,0.0,0.0,0.0,0.0,0.0,0.0,0.0,0.0,0.0,0.0,0.0,0.0,0.0,0.0,0.0,0.0,0.0,0.0,0.0,0.0,0.0,0.0,0.0,0.0,0.0,0.0,0.0,0.0,0.0,-0.3493,-0.3512,-0.4065,-0.352,-0.3639,-0.4246,-0.2873,-0.2303,-0.2272,-0.1659,0.0,0.0,0.0,0.0,0.0,0.0,0.0,0.0,0.0,0.0,0.0,0.0,0.0,0.0,0.0,0.0,0.0,0.0,0.0,0.0,0.0,-0.749,-0.7681,-0.7971,-0.854,-0.8765,0.0,0.0,0.0,0.0,0.0,0.0,-0.9548,-0.9521,-0.951,-0.951,-0.9938,-1.0178,-1.0296,-1.0784,-1.0569,-0.9777,-0.8551,-0.7818,-0.7513,0.0,0.0,0.0,0.0,0.0,0.0,0.0,0.0,0.0,0.0,0.0,0.0,0.0,0.0,0.0,0.0,0.0,0.0,0.0,0.0,0.0,0.0,0.0,0.0,0.0,0.0,0.0,0.0,0.0,0.0,0.0,0.0,0.0,0.0,0.0,0.0,0.0,0.0,0.0,0.0,0.0,-0.3729,-0.3656,0.0,0.0,0.0,0.0,0.0,0.0,0.0,0.0,0.0,0.0,0.0,0.0,0.0,-0.5979,-0.7084,-0.5577,-0.5268,-0.6201,-0.5407,-0.5148,-0.5249,-0.484,-0.5079,-0.5855,-0.533,0.0,-0.3135,-0.2783,0.0,0.0,0.0,0.0,0.0,0.0,0.0,0.0,0.0,0.0,0.0,0.0,0.0,0.0,0.0,0.0,0.0,0.0,0.0,0.0,0.0,-0.8286,-0.8669,-0.8969,-0.978,-0.9977,-0.9255,-0.9343,0.0,0.0,0.0,-0.886,-0.9358,-0.9365,-0.9716,-1.0433,-1.1004,-1.1599,-1.2198,-1.2705,-1.2875,-1.2787,-1.1935,-1.0249,-0.7991,-0.7027,0.0,0.0,0.0,0.0,0.0,0.0,0.0,0.0,0.0,0.0,0.0,0.0,0.0,0.0,0.0,0.0,0.0,0.0,0.0,0.0,0.0,0.0,0.0,0.0,0.0,0.0,0.0,0.0,0.0,0.0,0.0,0.0,0.0,0.0,0.0,0.0,0.0,0.0,0.0,-0.4153,-0.4533,-0.3969,-0.4646,-0.4868,0.0,0.0,0.0,0.0,0.0,0.0,0.0,0.0,0.0,-0.7405,-0.7452,-0.78,-0.8435,-0.7706,-0.7617,-0.8175,-0.7806,-0.7697,-0.7716,-0.7426,-0.7537,-0.7905,-0.7534,-0.7023,-0.6332,-0.5238,-0.4634,-0.4343,0.0,0.0,0.0,0.0,-0.4148,-0.4129,0.0,0.0,0.0,0.0,0.0,0.0,0.0,0.0,0.0,0.0,0.0,0.0,-0.8509,-0.9146,-0.9724,-1.0192,-1.0828,-1.0916,-1.0163,-0.9903,0.0,0.0,-0.883,-0.8883,-0.935,-0.9485,-1.0153,-1.1319,-1.205,-1.2862,-1.3762,-1.4377,-1.4756,-1.4933,-1.4421,-1.2416,-0.9385,-0.8202,-0.7039,-0.5951,0.0,0.0,0.0,0.0,0.0,0.0,0.0,0.0,0.0,0.0,0.0,0.0,0.0,0.0,0.0,0.0,0.0,0.0,0.0,0.0,0.0,0.0,0.0,0.0,0.0,0.0,0.0,0.0,0.0,0.0,0.0,0.0,0.0,0.0,0.0,0.0,0.0,-0.5314,-0.5722,-0.4904,-0.5992,-0.6418,0.0,0.0,0.0,0.0,0.0,0.0,-0.7541,-0.8173,-0.8743,-0.9224,-0.9388,-0.972,-1.0144,-0.9694,-0.9672,-1.0104,-0.9796,-0.9705,-0.9714,-0.9538,-0.9503,-0.9633,-0.9326,-0.9294,-0.9282,-0.7528,-0.6743,-0.6564,-0.6329,-0.6132,-0.6034,-0.6111,-0.6005,-0.5808,0.0,0.0,0.0,0.0,0.0,0.0,0.0,0.0,0.0,0.0,0.0,-0.8524,-0.942,-1.0126,-1.0894,-1.1799,-1.1684,-1.1547,-1.1496,-1.0717,-1.0244,-1.0205,-1.0009,-0.9859,-0.9785,-1.0282,-1.0997,-1.1952,-1.295,-1.3762,-1.4482,-1.5394,-1.5879,-1.5911,-1.5048,-1.3973,-1.2737,-1.0973,-0.9333,-0.7914,-0.727,0.0,0.0,0.0,0.0,0.0,0.0,0.0,0.0,0.0,0.0,0.0,0.0,0.0,0.0,0.0,0.0,0.0,0.0,0.0,0.0,0.0,0.0,0.0,0.0,0.0,0.0,0.0,0.0,0.0,0.0,0.0,0.0,0.0,0.0,0.0,0.0,0.0,0.0,-0.7006,-0.802,0.0,0.0,0.0,0.0,-0.7733,-0.8134,-0.8773,-0.962,-1.0362,-1.1105,-1.1976,-1.1569,-1.1992,-1.3247,-1.125,-1.0832,-1.1923,-1.0907,-1.0379,-1.0235,-1.0113,-1.0249,-1.0547,-1.0369,-1.0612,-1.0947,-0.9075,-0.8242,-0.8186,-0.7956,-0.7576,-0.7129,-0.7137,-0.6771,-0.6277,0.0,0.0,0.0,0.0,0.0,0.0,0.0,0.0,-0.7642,-0.7691,-0.818,-0.8955,-1.0111,-1.1004,-1.1967,-1.3184,-1.3184,-1.3056,-1.2827,-1.1592,-1.1056,-1.1445,-1.066,-1.0778,-1.2035,-1.2676,-1.362,-1.4948,-1.5807,-1.6522,-1.7172,-1.803,-1.8101,-1.7474,-1.719,-1.6524,-1.5438,-1.2694,-1.0656,-0.9152,-0.8705,-0.7736,0.0,0.0,0.0,0.0,0.0,0.0,0.0,0.0,0.0,0.0,0.0,0.0,0.0,0.0,0.0,0.0,0.0,0.0,0.0,0.0,0.0,0.0,0.0,0.0,0.0,0.0,0.0,0.0,0.0,0.0,0.0,0.0,0.0,0.0,0.0,0.0,0.0,-0.8636,-0.9899,0.0,-0.9283,-0.9452,-0.9738,-0.9995,-1.0642,-1.1224,-1.1683,-1.2385,-1.2893,-1.3238,-1.3205,-1.3477,-1.3938,-1.3184,-1.3011,-1.3462,-1.3081,-1.2787,-1.2539,-1.2344,-1.2274,-1.2189,-1.1999,-1.2046,-1.2155,-1.1517,-1.0721,-0.9951,-0.9782,-0.9633,-0.9411,-0.9059,-0.8792,-0.8552,0.0,0.0,0.0,0.0,0.0,0.0,0.0,0.0,-0.7822,-0.7713,-0.8377,-0.9462,-1.1037,-1.2148,-1.3328,-1.463,-1.4629,-1.4356,-1.3863,-1.2454,-1.1829,-1.2228,-1.15,-1.1924,-1.3665,-1.4325,-1.5443,-1.6985,-1.7583,-1.8207,-1.8834,-1.9385,-1.9404,-1.9024,-1.9042,-1.8605,-1.7709,-1.5484,-1.3194,-1.1041,-1.0528,-0.9602,-0.8451,0.0,0.0,0.0,0.0,0.0,0.0,0.0,0.0,0.0,0.0,0.0,0.0,0.0,0.0,0.0,0.0,0.0,0.0,0.0,0.0,0.0,0.0,0.0,0.0,0.0,0.0,0.0,0.0,0.0,0.0,0.0,0.0,0.0,0.0,-1.0254,-1.1292,-1.1065,-1.2349,-1.2867,-1.1866,-1.2187,-1.2433,-1.2372,-1.3057,-1.3418,-1.3278,-1.3779,-1.4024,-1.3949,-1.411,-1.4196,-1.4196,-1.4196,-1.4196,-1.4196,-1.411,-1.3943,-1.3701,-1.3545,-1.3303,-1.2985,-1.291,-1.2883,-1.2813,-1.2813,-1.2276,-1.1542,-1.1455,-1.1306,-1.1117,-1.074,-1.0458,-1.0123,0.0,0.0,0.0,0.0,0.0,0.0,0.0,-0.7903,-0.8085,-0.7735,-0.8582,-1.0044,-1.2167,-1.3542,-1.4816,-1.611,-1.5864,-1.5332,-1.4577,-1.3262,-1.2516,-1.2551,-1.2736,-1.3387,-1.4611,-1.5239,-1.6297,-1.7835,-1.8188,-1.8713,-1.941,-1.9418,-1.9817,-2.0492,-2.0492,-2.012,-1.9585,-1.9248,-1.7045,-1.3733,-1.2733,-1.1691,-1.0543,0.0,0.0,0.0,0.0,0.0,0.0,0.0,0.0,0.0,0.0,0.0,0.0,0.0,0.0,0.0,0.0,0.0,0.0,0.0,0.0,0.0,0.0,0.0,0.0,0.0,0.0,0.0,0.0,0.0,0.0,0.0,0.0,0.0,-1.144,-1.3201,-1.4506,-1.4289,-1.5315,-1.5637,-1.4735,-1.533,-1.5487,-1.4835,-1.5281,-1.5208,-1.4364,-1.4467,-1.4483,-1.4256,-1.4299,-1.4299,-1.4299,-1.4299,-1.4299,-1.4245,-1.4002,-1.3759,-1.3577,-1.3577,-1.3317,-1.2872,-1.3095,-1.3068,-1.2861,-1.2861,-1.2861,-1.2861,-1.2813,-1.2467,-1.2024,-1.2029,-1.154,-1.0759,0.0,0.0,0.0,0.0,0.0,0.0,0.0,-0.8121,-0.8085,-0.7735,-0.8963,-1.0547,-1.2424,-1.3287,-1.4446,-1.6267,-1.5202,-1.4535,-1.4703,-1.332,-1.2844,-1.3618,-1.4907,-1.6362,-1.7952,-1.8428,-1.9364,-2.0761,-2.1129,-2.1561,-2.2082,-2.2385,-2.2441,-2.2278,-2.2278,-2.1937,-2.1251,-2.0119,-1.9126,-1.798,-1.5078,-1.3339,-1.2344,0.0,0.0,0.0,0.0,0.0,0.0,0.0,0.0,0.0,0.0,0.0,0.0,0.0,0.0,0.0,0.0,0.0,0.0,0.0,0.0,0.0,0.0,0.0,0.0,0.0,0.0,0.0,0.0,0.0,0.0,0.0,-1.4,-1.5071,-1.4537,-1.5161,-1.5819,-1.6326,-1.6438,-1.6432,-1.6177,-1.6304,-1.6449,-1.6455,-1.6564,-1.6542,-1.6332,-1.6344,-1.6265,-1.5998,-1.5992,-1.5992,-1.5992,-1.5992,-1.5992,-1.5992,-1.5966,-1.5686,-1.5228,-1.5228,-1.4936,-1.4484,-1.4509,-1.4497,-1.4484,-1.4484,-1.4484,-1.434,-1.3244,-1.271,-1.2516,-1.2127,-1.1446,-1.0641,0.0,0.0,0.0,0.0,0.0,0.0,0.0,-0.8319,-0.8238,-0.7756,-0.9227,-1.0954,-1.261,-1.3794,-1.4965,-1.623,-1.5445,-1.4714,-1.4276,-1.358,-1.371,-1.4874,-1.6269,-1.7725,-1.9258,-1.9697,-2.0566,-2.1885,-2.2129,-2.2549,-2.311,-2.3584,-2.3731,-2.3616,-2.3786,-2.3516,-2.2832,-2.2016,-2.1123,-1.9996,-1.7712,-1.6026,-1.4665,-1.295,-1.2131,-1.1745,-1.0727,-1.0302,-1.0193,-0.9619,0.0,0.0,0.0,0.0,0.0,0.0,0.0,0.0,0.0,0.0,0.0,0.0,0.0,0.0,0.0,0.0,0.0,0.0,0.0,0.0,0.0,0.0,0.0,0.0,-1.6627,-1.7898,-1.8265,-1.808,-1.8027,-1.8359,-1.8244,-1.8042,-1.7786,-1.7793,-1.7695,-1.7488,-1.7566,-1.7423,-1.6978,-1.7025,-1.6962,-1.669,-1.6677,-1.6677,-1.6677,-1.6677,-1.6677,-1.6677,-1.6609,-1.6368,-1.5922,-1.5757,-1.5513,-1.5105,-1.5226,-1.5271,-1.5284,-1.5405,-1.5379,-1.5168,0.0,0.0,0.0,0.0,-1.2637,-1.2016,0.0,0.0,0.0,0.0,0.0,0.0,0.0,-0.8548,-0.8542,-0.7863,-0.9408,-1.1131,-1.2592,-1.4302,-1.5528,-1.5907,-1.5844,-1.5144,-1.374,-1.4032,-1.4853,-1.6183,-1.7132,-1.8174,-1.9404,-1.9844,-2.0684,-2.1953,-2.1953,-2.2412,-2.3247,-2.3682,-2.4111,-2.458,-2.4971,-2.4852,-2.4295,-2.4137,-2.2835,-2.0853,-2.0403,-1.8965,-1.6881,-1.4712,-1.4087,-1.4224,-1.2662,-1.1899,-1.1556,-1.1074,0.0,0.0,0.0,0.0,0.0,0.0,0.0,0.0,0.0,0.0,0.0,0.0,0.0,0.0,0.0,0.0,0.0,0.0,0.0,0.0,0.0,0.0,0.0,0.0,-1.932,-2.0543,-2.2111,-2.1395,-2.0623,-2.0367,-2.0295,-2.0088,-1.9583,-1.9502,-1.916,-1.8408,-1.8568,-1.823,-1.7166,-1.7334,0.0,0.0,0.0,-1.6962,-1.6898,-1.6962,-1.6975,-1.6943,-1.6769,-1.6554,-1.6218,-1.5972,-1.57,-1.5447,-1.5661,-1.5778,-1.5823,-1.6099,-1.6041,-1.5732,-1.5255,-1.5099,-1.5067,-1.4771,-1.4433,-1.4039,0.0,0.0,0.0,0.0,0.0,0.0,0.0,-0.8928,-0.8964,-0.8336,-0.9532,-1.0791,-1.1743,-1.2332,-1.331,-1.4917,-1.4157,-1.3858,-1.4514,-1.4934,-1.5752,-1.7103,-1.8281,-1.9392,-2.0341,-2.0752,-2.1405,-2.2393,-2.2393,-2.3008,-2.417,-2.4258,-2.4717,-2.544,-2.5518,-2.5499,-2.5323,-2.4452,-2.384,-2.3308,-2.2122,-1.9777,-1.7001,-1.6081,-1.5456,-1.4986,-1.4184,-1.4104,-1.4294,-1.3968,-1.3678,-1.3272,-1.2338,-1.1063,0.0,0.0,0.0,0.0,0.0,0.0,0.0,0.0,0.0,0.0,0.0,0.0,0.0,0.0,0.0,0.0,0.0,0.0,0.0,-1.9994,-2.0763,-2.1881,-2.4103,-2.3384,-2.2406,-2.1911,-2.1494,-2.1173,-2.1068,-2.0773,-2.0506,-2.0344,-2.0406,-2.0155,-1.9457,-1.9509,-1.9191,-1.8424,-1.8667,-1.8553,-1.7989,-1.8546,-1.8667,-1.8417,-1.861,0.0,-1.8231,-1.8167,-1.7967,-1.7653,-1.746,-1.7518,-1.7739,-1.7546,-1.7432,-1.7195,-1.5693,-1.5099,-1.5092,-1.5041,-1.4651,-1.416,0.0,0.0,0.0,0.0,0.0,0.0,0.0,-0.902,-0.8967,-0.8725,-0.9851,-1.0796,-1.1205,-1.1934,-1.2689,-1.3429,-1.2947,-1.3271,-1.4846,-1.5439,-1.6576,-1.8424,-1.9223,-1.9902,-2.0595,-2.1006,-2.1512,-2.2197,-2.2412,-2.3057,-2.4111,-2.4316,-2.4775,-2.541,-2.5586,-2.5693,-2.5635,-2.5118,-2.4609,-2.402,-2.3319,-2.1504,-1.9183,-1.8567,-1.7889,-1.7118,-1.6407,-1.6052,-1.5858,-1.5423,-1.5114,-1.4698,-1.3938,-1.298,-1.1873,0.0,0.0,0.0,0.0,0.0,0.0,0.0,0.0,0.0,0.0,0.0,0.0,0.0,0.0,-1.5929,-1.7506,0.0,-2.005,-2.1754,-2.2686,-2.3684,-2.5085,-2.5094,-2.4681,-2.3956,-2.3038,-2.2557,-2.2696,-2.1958,-2.1505,-2.1505,-2.1113,-2.096,-2.1089,-2.0523,-2.0206,-2.0177,-1.9945,-1.9547,-1.9052,-1.9758,-1.9926,-1.954,-1.9677,-1.95,-1.9179,-1.8934,-1.8613,-1.8299,-1.8299,-1.8299,-1.8277,-1.7947,-1.7816,-1.7683,-1.6599,-1.6101,-1.5997,-1.58,-1.5465,-1.5018,0.0,0.0,0.0,0.0,0.0,0.0,0.0,-0.8936,-0.8873,-0.8979,-0.998,-1.0751,-1.0869,-1.1785,-1.2266,-1.1969,-1.2253,-1.3219,-1.4982,-1.5851,-1.7281,-1.9551,-1.9925,-2.0291,-2.0644,-2.1006,-2.1445,-2.1885,-2.2305,-2.2949,-2.3799,-2.4141,-2.457,-2.5135,-2.5449,-2.5606,-2.5693,-2.5693,-2.5226,-2.4393,-2.4393,-2.3417,-2.1898,-2.1372,-2.0326,-1.9066,-1.8201,-1.7334,-1.6652,-1.6347,-1.6012,-1.5658,-1.538,-1.501,-1.4275,-1.223,-1.1746,0.0,0.0,0.0,0.0,0.0,0.0,0.0,0.0,-1.3824,-1.4645,-1.6079,-1.729,-1.8519,-2.0007,-2.1183,-2.228,-2.3286,-2.4363,-2.5348,-2.5996,-2.6507,-2.6617,-2.6069,-2.486,-2.4079,-2.4185,-2.3263,-2.2634,-2.2634,-2.2055,-2.1912,-2.2433,-2.1495,-2.1156,-2.1739,-2.0983,-2.0532,-2.0305,-2.0889,-2.1059,-2.0767,-2.0718,-2.0589,-2.0313,-1.9724,-1.9378,-1.9277,-1.9257,-1.9089,-1.8662,-1.814,-1.7911,-1.7874,-1.7479,-1.7172,-1.6961,-1.6652,-1.636,-1.6052,0.0,0.0,0.0,0.0,0.0,0.0,0.0,0.0,-0.8982,-0.8993,-0.9544,-1.017,-1.0838,-1.0725,-1.0703,-1.1025,-1.2461,-1.3846,-1.5032,-1.6237,-1.7803,-1.9771,-2.0466,-2.0818,-2.0867,-2.1095,-2.1445,-2.1885,-2.2305,-2.2949,-2.3789,-2.3838,-2.4297,-2.5116,-2.5165,-2.5361,-2.5693,-2.5693,-2.5635,-2.5528,-2.5528,-2.4957,-2.4042,-2.3573,-2.1813,-1.9365,-1.8171,-1.7261,-1.671,-1.7282,-1.7217,-1.6954,-1.7786,-1.7605,-1.6708,-1.474,-1.363,-1.2876,-1.2208,-1.2498,-1.3364,-1.4939,-1.476,-1.4892,0.0,-1.7861,-1.8137,-1.9817,-2.0873,-2.1617,-2.2155,-2.322,-2.4033,-2.4153,-2.4946,-2.6034,-2.7518,-2.7184,-2.7149,-2.8147,-2.6832,-2.574,-2.5365,-2.4892,-2.459,-2.459,-2.4492,-2.4295,-2.389,-2.3362,-2.2942,-2.2651,-2.2075,-2.1826,-2.202,-2.2259,-2.2451,-2.2514,-2.2801,-2.2918,-2.2874,-2.2072,-2.2105,-2.2663,-2.1508,-2.0673,-2.0074,-1.8768,-1.8247,-1.8182,-1.7567,-1.7264,-1.7267,-1.723,-1.7018,-1.6749,0.0,0.0,0.0,0.0,0.0,0.0,0.0,0.0,0.0,-0.902,-0.9419,-0.9916,-1.0537,-1.0629,-1.0807,-1.1214,-1.2169,-1.3464,-1.5124,-1.6996,-1.8808,-2.0475,-2.1178,-2.1728,-2.2117,-2.197,-2.1979,-2.2211,-2.2614,-2.3036,-2.3472,-2.3418,-2.3867,-2.4697,-2.4998,-2.5176,-2.5361,-2.5577,-2.5693,-2.5664,-2.5449,-2.4824,-2.3955,-2.3037,-2.131,-1.9274,-1.8258,-1.7347,0.0,-1.6362,-1.6213,-1.6279,-1.7144,-1.6941,-1.6165,-1.4775,-1.4487,-1.464,-1.4795,-1.5133,-1.5817,-1.7291,-1.7846,-1.8452,-2.0018,-2.0421,-2.0781,-2.1916,-2.2759,-2.3457,-2.3875,-2.4538,-2.518,-2.5681,-2.6444,-2.7402,-2.8614,-2.8458,-2.8247,-2.8198,-2.761,-2.7043,-2.6603,-2.5485,-2.4897,-2.5149,-2.4775,-2.4468,-2.4469,-2.4136,-2.3955,-2.3937,-2.3308,-2.3037,-2.3168,-2.3155,-2.331,-2.3694,-2.3463,-2.3515,-2.3741,-2.3085,-2.2985,-2.3276,-2.2501,-2.1895,-2.1318,-2.0429,-1.9874,-1.9513,-1.8582,-1.8149,-1.8079,-1.7344,-1.7013,-1.6851,0.0,0.0,0.0,0.0,0.0,0.0,0.0,0.0,0.0,0.0,-0.9259,-0.9792,-1.0487,-1.0959,-1.1311,-1.1479,-1.2058,-1.3099,-1.4748,-1.6999,-1.8942,-2.0431,-2.1439,-2.2278,-2.2897,-2.2802,-2.267,-2.2495,-2.2977,-2.3154,-2.3064,-2.3175,-2.3507,-2.3999,-2.4598,-2.4822,-2.4793,-2.5185,-2.5323,-2.5284,-2.4893,-2.4131,-2.3125,-2.1836,-2.0273,-1.8669,-1.7922,-1.7023,-1.6088,-1.5523,-1.5354,-1.5525,-1.6395,-1.6395,-1.5945,-1.5246,-1.5513,-1.6187,-1.6785,-1.7309,-1.8017,-1.9598,-2.0676,-2.1553,-2.2076,-2.2558,-2.3082,-2.3758,-2.4374,-2.489,-2.5188,-2.5741,-2.63,-2.6704,-2.7693,-2.8533,-2.9039,-2.9133,-2.8721,-2.7676,-2.7438,-2.7231,-2.6957,-2.5874,-2.5368,-2.5698,-2.5063,-2.4763,-2.5021,-2.4837,-2.4857,-2.5093,-2.448,-2.4205,-2.4394,-2.4113,-2.4212,-2.4722,-2.4326,-2.4288,-2.4582,-2.4307,-2.4125,-2.3921,-2.3511,-2.3069,-2.2618,-2.1695,-2.114,-2.075,-1.9845,-1.9374,-1.9177,-1.8301,-1.7598,-1.6969,0.0,0.0,0.0,0.0,0.0,0.0,0.0,0.0,0.0,0.0,0.0,0.0,0.0,-1.1634,-1.1902,-1.1534,-1.2351,-1.3144,-1.3713,-1.5764,-1.7623,-1.9186,-2.0951,-2.214,-2.2691,-2.3273,-2.3308,-2.2782,-2.3253,-2.3226,-2.2719,-2.3242,-2.3295,-2.2992,-2.3903,-2.4156,-2.3857,-2.4277,-2.4453,-2.4424,-2.3994,-2.3066,-2.1797,-2.0478,-1.8916,-1.7383,-1.6899,-1.5916,-1.4913,-1.5293,-1.5225,-1.5221,-1.6501,-1.6979,-1.7044,-1.7086,-1.7182,-1.7396,-1.7971,-1.8709,-1.987,-2.2126,-2.2902,-2.3309,-2.407,-2.4524,-2.5023,-2.5848,-2.6013,-2.6032,-2.6042,-2.7098,-2.7678,-2.6897,-2.8261,-2.9225,-2.8758,-2.8645,-2.8131,-2.6822,-2.6262,-2.5982,-2.5916,-2.6299,-2.6558,-2.6568,-2.6109,-2.585,-2.5875,-2.584,-2.585,-2.5875,-2.5382,-2.5362,-2.583,-2.5372,-2.5382,-2.585,-2.585,-2.5815,-2.5836,-2.629,-2.6158,-2.5567,-2.4842,-2.4402,-2.3984,-2.2166,-2.1373,-2.1364,-2.118,-2.087,-2.0546,-2.0726,-1.9291,-1.7177,0.0,0.0,0.0,0.0,0.0,0.0,0.0,0.0,0.0,0.0,0.0,0.0,0.0,0.0,0.0,0.0,-1.2237,-1.2881,-1.3775,-1.5927,-1.7522,-1.8311,-2.0064,-2.1481,-2.2412,-2.208,-2.1969,-2.2126,-2.1946,-2.1592,-2.1177,-2.1349,-2.1735,-2.2252,-2.2865,-2.3452,-2.395,-2.3571,-2.3602,-2.3816,-2.23,-2.1221,-2.041,-1.8838,-1.7334,-1.6007,0.0,-1.5049,-1.4498,-1.4686,-1.4596,-1.4528,-1.5275,-1.5388,-1.5471,-1.6705,-1.7792,-1.8898,-2.0245,-2.1647,-2.3131,-2.4499,-2.5386,-2.6057,-2.6547,-2.6567,-2.6401,-2.6048,-2.5737,-2.5405,-2.5055,-2.5618,-2.6338,-2.6966,-2.8093,-2.9078,-2.958,-2.9078,-2.8471,-2.8009,-2.7285,-2.7091,-2.7723,-2.6212,-2.5471,-2.6107,-2.6013,-2.5751,-2.5461,-2.6009,-2.6196,-2.5885,-2.5461,-2.544,-2.592,-2.514,-2.514,-2.5875,-2.5875,-2.5875,-2.593,-2.6041,-2.6013,-2.5813,-2.5568,-2.5244,-2.4816,-2.4057,-2.3715,-2.3586,-2.2249,-2.2026,-2.229,-2.0933,-2.0289,-1.9974,0.0,0.0,0.0,0.0,0.0,0.0,0.0,0.0,0.0,0.0,0.0,0.0,0.0,0.0,0.0,0.0,0.0,-1.2496,-1.2934,-1.4764,-1.6123,-1.6752,-1.8436,-1.9861,-2.0994,-2.0629,-2.0467,-2.0607,-2.0437,-2.0094,-1.968,-2.0026,-2.0267,-2.0478,-2.1263,-2.1732,-2.1893,-2.1535,-2.1515,-2.1523,-1.9871,-1.875,-1.793,-1.6533,-1.5487,0.0,-1.4536,-1.447,-1.4453,-1.4447,-1.44,-1.4461,-1.4963,-1.5613,-1.6472,-1.7907,-1.9511,-2.1341,-2.3509,-2.4684,-2.5622,-2.7084,-2.7489,-2.7572,-2.7852,-2.7448,-2.675,-2.5627,-2.5211,-2.4819,-2.4168,-2.4438,-2.5355,-2.7171,-2.7864,-2.8678,-3.0107,-2.9669,-2.9209,-2.9285,-2.8684,-2.8539,-2.9196,-2.7301,-2.6271,-2.6875,-2.6918,-2.6724,-2.6228,-2.7133,-2.7338,-2.6658,-2.6713,-2.6724,-2.6636,-2.6045,-2.5787,-2.5864,-2.5565,-2.5492,-2.5647,-2.5647,-2.573,-2.5875,-2.572,-2.5492,-2.5179,-2.4882,-2.4777,-2.4625,-2.3477,-2.3227,-2.3389,-2.2079,-2.1807,-2.1886,0.0,0.0,0.0,0.0,0.0,0.0,0.0,0.0,0.0,0.0,0.0,0.0,0.0,0.0,0.0,0.0,0.0,0.0,-1.1403,-1.2545,-1.3699,-1.4729,-1.6213,-1.7498,-1.8561,-1.8939,-1.8899,-1.8423,-1.8771,-1.8733,-1.831,-1.9199,-1.8947,-1.7818,-1.9199,-1.9158,-1.8032,-1.841,-1.8338,-1.7864,-1.6978,-1.588,-1.4712,-1.3821,-1.3541,-1.3653,-1.3704,-1.4161,-1.4732,-1.4662,-1.4855,-1.5199,-1.5723,-1.7664,-1.9881,-2.064,-2.2269,-2.449,-2.7504,-2.7697,-2.7547,-2.9708,-2.9176,-2.8091,-2.8039,-2.729,-2.6208,-2.4802,-2.4523,-2.4287,-2.3514,-2.3683,-2.4774,-2.7392,-2.7614,-2.8275,-3.0522,-3.0434,-3.0305,-3.073,-3.0367,-3.0185,-3.0496,-2.9604,-2.8981,-2.8939,-2.8849,-2.8576,-2.8119,-2.8982,-2.9063,-2.8119,-2.8948,-2.8982,-2.8061,-2.8027,-2.725,-2.5788,-2.4978,-2.4767,-2.5148,-2.5148,-2.542,-2.5792,-2.5378,-2.5148,-2.5117,-2.4683,-2.4507,-2.4537,-2.4709,-2.4419,-2.3908,-2.4014,-2.3693,-2.2872,0.0,0.0,0.0,0.0,0.0,0.0,0.0,0.0,0.0,0.0,0.0,0.0,0.0,0.0,0.0,0.0,0.0,0.0,-1.2156,-1.3226,-1.3987,-1.428,-1.5339,-1.621,-1.6903,-1.6902,-1.7042,-1.7312,-1.7019,-1.6799,-1.6689,-1.6889,-1.6991,-1.7086,-1.7343,-1.7713,-1.8104,-1.7311,-1.7148,-1.7277,-1.5795,-1.5024,-1.4633,-1.375,-1.3681,-1.4064,-1.4116,-1.4616,-1.5347,-1.6161,-1.7184,-1.8135,-1.8263,-1.9844,-2.1889,-2.2813,-2.4992,-2.7336,-2.8454,-2.9882,-3.1069,-3.1272,-3.101,-3.0527,-2.9648,-2.8077,-2.6401,-2.4965,-2.3409,-2.217,-2.1667,-2.3001,-2.4791,-2.6626,-2.8567,-3.0464,-3.2323,-3.2119,-3.2099,-3.2968,-3.2001,-3.1875,-3.3364,-3.2234,-3.1625,-3.2166,-3.0031,-2.8844,-2.9097,-2.9351,-2.9374,-2.912,-2.8648,-2.8441,-2.8587,-2.8188,-2.725,-2.5777,-2.5579,-2.5211,-2.4673,-2.4673,-2.4735,-2.4838,-2.4724,-2.4673,-2.4662,-2.4549,-2.4704,-2.4993,-2.4548,-2.4662,-2.4946,-2.3993,-2.3964,-2.4165,0.0,0.0,0.0,0.0,0.0,0.0,0.0,0.0,0.0,0.0,0.0,0.0,0.0,0.0,0.0,0.0,0.0,0.0,0.0,-1.2237,-1.2822,-1.3325,-1.3863,-1.4456,-1.5131,-1.4947,-1.4985,-1.5323,-1.5201,-1.5064,-1.4915,-1.52,-1.5356,-1.5408,-1.5562,-1.582,-1.6056,-1.5406,-1.5173,0.0,0.0,-1.3452,-1.3238,-1.2752,-1.3018,-1.3638,-1.3714,-1.5079,-1.7074,-1.8286,-1.9524,-2.0689,-2.1432,-2.2983,-2.4846,-2.6396,-2.82,-2.9972,-3.1407,-3.2471,-3.3099,-3.2758,-3.1843,-3.0594,-2.9225,-2.7148,-2.4936,-2.3035,-2.1758,-2.0849,-2.0272,-2.1566,-2.3482,-2.5807,-2.7798,-2.9864,-3.2239,-3.2963,-3.3646,-3.4628,-3.402,-3.3874,-3.4842,-3.3712,-3.3104,-3.3513,-3.1834,-3.0735,-3.0666,-3.0949,-3.0973,-3.0678,-3.0397,-3.0284,-3.0308,-2.9385,-2.8407,-2.7348,-2.6667,-2.6121,-2.5642,-2.5642,-2.5642,-2.56,-2.5232,-2.5062,-2.5062,-2.4658,-2.4652,-2.4859,-2.4471,-2.46,-2.4846,-2.4075,-2.4031,-2.4247,0.0,0.0,0.0,0.0,0.0,0.0,0.0,0.0,0.0,0.0,0.0,0.0,0.0,0.0,0.0,0.0,0.0,0.0,0.0,0.0,-1.147,-1.2463,-1.2549,-1.2911,-1.3619,-1.3391,-1.327,-1.3287,-1.3645,-1.3649,-1.3382,-1.402,-1.4029,-1.3557,-1.4001,-1.3883,-1.3343,-1.3403,-1.3202,-1.2782,-1.2353,-1.1992,-1.1682,0.0,-1.2219,-1.3019,-1.3244,-1.555,-1.8722,-2.0362,-2.1769,-2.315,-2.4713,-2.6389,-2.8147,-3.0306,-3.1311,-3.2277,-3.4806,-3.4915,-3.4303,-3.4111,-3.2214,-2.9945,-2.8123,-2.5654,-2.3074,-2.0694,-2.017,-1.9948,-1.934,-2.0129,-2.1937,-2.512,-2.6451,-2.8254,-3.1576,-3.3352,-3.4666,-3.5711,-3.5789,-3.5675,-3.5519,-3.4478,-3.3793,-3.387,-3.3649,-3.314,-3.2395,-3.2729,-3.2667,-3.2026,-3.2554,-3.2541,-3.1901,-3.0719,-2.9842,-2.9188,-2.79,-2.7232,-2.711,-2.711,-2.711,-2.7069,-2.6318,-2.5986,-2.5902,-2.502,-2.4658,-2.4658,-2.454,-2.4368,-2.4249,-2.4206,-2.4067,-2.3841,0.0,0.0,0.0,0.0,0.0,0.0,0.0,0.0,0.0,0.0,-1.1437,-1.134,0.0,0.0,0.0,0.0,0.0,0.0,0.0,0.0,0.0,-1.3048,-1.3322,-1.3424,-1.3301,-1.3497,-1.3479,-1.3217,-1.33,-1.3286,-1.325,-1.3311,-1.3295,-1.3191,-1.3171,-1.3106,-1.2986,-1.3004,-1.295,-1.2866,-1.2729,-1.2645,-1.2561,-1.2561,0.0,0.0,-1.4594,-1.5766,-1.7362,-2.0851,-2.3678,-2.5984,-2.7155,-2.8687,-3.0382,-3.2139,-3.3031,-3.3771,-3.5119,-3.5728,-3.5759,-3.4803,-3.3536,-3.1858,-2.9273,-2.6214,0.0,-2.1592,-1.9904,-1.8881,-1.9293,-2.0771,-2.279,-2.534,-2.7104,-2.9347,-3.2816,-3.3548,-3.4319,0.0,-3.5674,-3.5539,-3.5939,-3.4949,-3.4383,-3.465,-3.4263,-3.3729,-3.3216,-3.2651,-3.1913,-3.0922,-3.1411,-3.121,-3.0218,-3.0398,-2.9887,-2.8634,-2.8379,-2.7839,-2.711,-2.711,-2.711,-2.711,-2.6946,-2.6864,-2.6812,-2.5913,-2.5579,-2.5505,-2.4775,-2.4497,-2.4411,-2.4249,-2.4153,-2.411,0.0,0.0,0.0,0.0,0.0,0.0,0.0,-1.0946,-1.1571,-1.1756,-1.1639,-1.162,-1.1873,-1.1668,-1.1307,0.0,0.0,0.0,0.0,0.0,0.0,0.0,0.0,0.0,-1.3256,-1.3509,-1.3592,0.0,0.0,-1.3259,-1.2896,-1.3026,-1.3042,-1.2938,-1.2873,-1.2838,-1.2803,-1.2803,-1.2803,-1.2785,-1.275,-1.2762,0.0,0.0,0.0,0.0,0.0,-1.5709,-1.7242,-2.0016,-2.2987,-2.5858,-2.7864,-2.988,-3.1682,-3.2963,-3.4127,-3.5218,-3.5961,-3.6647,-3.686,-3.5673,-3.3807,-3.1559,-2.8837,0.0,0.0,-2.0092,-1.8803,-1.814,-1.8454,-2.0112,-2.1981,-2.3746,-2.5223,-2.7484,-3.1261,-3.2045,-3.3091,-3.5417,-3.5456,-3.5391,-3.5652,-3.4907,-3.4473,-3.4621,-3.4315,-3.3821,-3.3161,-3.2393,-3.1644,-3.1035,-3.126,-3.1148,-3.0633,-3.062,-3.0271,-2.9588,-2.9305,-2.8922,-2.8514,-2.8791,-2.8923,-2.8895,-2.8739,-2.8498,-2.8181,-2.7607,-2.7184,-2.6886,-2.6477,-2.6021,-2.5616,-2.519,-2.4733,-2.4335,0.0,0.0,0.0,0.0,0.0,0.0,0.0,-1.0864,-1.1627,-1.1627,-1.1687,-1.174,-1.174,-1.174,-1.1475,0.0,0.0,0.0,0.0,0.0,0.0,0.0,0.0,0.0,0.0,0.0,0.0,0.0,0.0,0.0,0.0,0.0,0.0,0.0,0.0,-1.2833,-1.278,-1.2641,-1.2665,0.0,0.0,-1.274,0.0,0.0,0.0,0.0,0.0,-1.5474,-1.704,-1.8979,-2.1414,-2.4118,-2.6747,-2.9504,-3.1862,-3.2672,-3.4304,-3.6023,-3.6722,-3.7332,-3.7482,-3.6397,-3.3708,-3.0703,-2.7991,-2.4356,-2.0901,-1.8617,-1.7891,-1.776,-1.8126,-1.9355,-2.0855,-2.2484,-2.3512,-2.5411,-2.9209,-3.0456,-3.1924,-3.4424,-3.5115,0.0,-3.5387,-3.5105,-3.4937,-3.4937,-3.4561,-3.3835,-3.2764,-3.1998,-3.1455,-3.1128,-3.1128,-3.1087,-3.1047,-3.0645,-3.0444,-3.0432,-2.9993,-2.9792,-2.9817,-3.0369,-3.062,-3.0605,-3.0454,-3.0068,-2.9537,-2.9093,-2.8587,-2.8103,-2.7895,-2.7383,-2.6747,-2.6254,-2.5631,-2.5031,0.0,0.0,0.0,0.0,0.0,0.0,0.0,-1.1425,-1.2041,-1.2041,-1.1536,-1.1171,-1.1171,-1.1171,-1.0762,0.0,0.0,0.0,0.0,0.0,0.0,0.0,0.0,0.0,0.0,0.0,0.0,0.0,0.0,0.0,0.0,0.0,0.0,0.0,0.0,0.0,0.0,-1.2472,0.0,0.0,0.0,0.0,0.0,0.0,0.0,0.0,0.0,-1.5038,-1.5698,-1.8425,0.0,-2.0922,-2.279,-2.648,-3.0228,-3.0806,0.0,0.0,-3.6843,-3.7443,-3.7448,-3.6657,-3.3742,-3.029,-2.7359,0.0,-2.0809,-1.8995,-1.8053,-1.7979,-1.9516,-1.9391,-2.0125,-2.3326,-2.4001,-2.515,-2.8148,-2.9954,-3.1496,-3.2791,0.0,0.0,-3.567,-3.6269,-3.6646,-3.6646,-3.5655,-3.4181,-3.2283,-3.1559,-3.093,-3.0253,-3.0227,-3.0124,-2.9942,-2.9892,-2.9867,-2.9867,-2.9817,-2.9792,-2.9817,-3.0369,-3.062,-3.0645,-3.1079,-3.0976,-3.0408,-2.9602,-2.8922,-2.8375,-2.7505,-2.7138,-2.7056,-2.6999,-2.6946,-2.6864,0.0,0.0,0.0,0.0,0.0,0.0,-1.0206,-1.0766,-1.124,-1.1583,-1.1317,-1.0978,-1.0654,-1.0618,-1.0449,-1.0015,0.0,0.0,0.0,0.0,0.0,0.0,0.0,0.0,0.0,0.0,0.0,-1.2256,0.0,0.0,0.0,0.0,0.0,0.0,0.0,0.0,0.0,0.0,0.0,0.0,0.0,0.0,0.0,0.0,0.0,0.0,0.0,0.0,-1.564,-1.6752,-1.7963,0.0,-1.9803,-2.2365,-2.5702,0.0,-3.1612,-3.4349,-3.6016,-3.7423,-3.8184,-3.6982,-3.3831,-3.0378,-2.7831,0.0,-2.0784,-1.8961,-1.8199,-1.8071,-1.8721,-1.9339,-2.0324,-2.2021,-2.2367,-2.3673,-2.7274,-2.78,-2.9068,-3.2482,-3.3586,-3.4389,0.0,-3.5892,-3.6294,-3.6294,-3.5559,-3.4557,-3.3363,-3.2641,-3.2034,-3.1636,-3.1586,-3.1304,-3.0658,-3.062,-3.0343,-2.9792,-2.9792,-2.9967,-3.0294,-3.052,-3.0783,-3.1097,-3.1298,-3.1097,-3.0605,-3.0558,-3.0251,-2.9742,-2.9358,-2.8903,-2.8397,-2.8049,-2.7597,-2.711,0.0,0.0,0.0,0.0,0.0,-0.9701,-1.0038,-1.0423,-1.0812,-1.1188,-1.1026,-1.0714,-1.0339,-1.0232,-1.0149,-1.0077,-1.0063,0.0,0.0,0.0,0.0,0.0,0.0,0.0,0.0,0.0,-1.17,-1.2213,-1.2244,-1.2094,0.0,0.0,0.0,0.0,0.0,0.0,0.0,0.0,0.0,0.0,0.0,0.0,0.0,0.0,0.0,0.0,0.0,0.0,0.0,0.0,0.0,-1.765,-1.7853,-1.9275,-2.1672,-2.5737,-2.9503,-3.2701,-3.425,-3.6177,-3.742,-3.6202,-3.295,-2.9506,0.0,0.0,-2.0507,-1.8986,-1.8486,-1.8397,-1.8731,-1.9612,-2.059,-2.1518,-2.1891,-2.3206,-2.6427,-2.6652,-2.7918,-3.1752,0.0,-3.3564,-3.4842,-3.5986,-3.6642,-3.6642,-3.6098,-3.559,-3.5117,-3.4162,-3.3359,-3.2713,-3.2713,-3.2321,-3.1536,-3.1536,-3.1156,-3.047,-3.042,-3.0469,-3.071,-3.0979,-3.1122,-3.1185,-3.1675,-3.1399,-3.0658,-3.1173,-3.0984,-3.0369,-3.0369,-2.9988,-2.9394,-2.9016,-2.8462,-2.7891,0.0,0.0,0.0,0.0,0.0,0.0,-1.0303,-1.0747,-1.1099,-1.1099,-1.0642,-1.0317,-1.0291,-1.0057,-0.9801,-0.9523,-0.951,0.0,0.0,0.0,0.0,0.0,0.0,0.0,0.0,0.0,-1.0607,-1.1999,-1.1477,-1.1849,-1.3076,-1.2476,0.0,0.0,0.0,0.0,0.0,0.0,0.0,0.0,0.0,0.0,0.0,0.0,0.0,0.0,0.0,0.0,0.0,0.0,0.0,0.0,0.0,-1.7676,-1.885,-2.2033,-2.6283,-3.0221,-3.1479,-3.3267,-3.4585,-3.3908,-3.0701,-2.7219,-2.5264,-2.2388,-1.9928,-1.9232,-1.8917,-1.9118,-2.0176,-2.0329,-2.0861,-2.2515,-2.3412,-2.4293,-2.5544,-2.7187,-2.8781,0.0,-3.2017,-3.371,-3.5079,-3.7113,-3.8392,-3.8392,-3.7744,-3.737,-3.737,-3.6159,-3.4673,-3.2961,-3.289,-3.2713,-3.2285,-3.2285,-3.2227,-3.2087,-3.1812,-3.1406,-3.0923,-3.179,-3.1625,-3.0721,-3.2353,-3.2127,-3.0658,-3.1173,-3.0758,-2.9804,-2.9804,-2.9792,-2.9804,-2.9792,-2.9792,-2.9753,0.0,0.0,0.0,0.0,0.0,0.0,0.0,-1.0123,-1.0135,-1.051,-1.0087,-0.9762,-0.9762,-0.9835,-0.9867,-0.9776,-0.9775,0.0,0.0,0.0,0.0,0.0,0.0,0.0,0.0,0.0,-1.0795,-1.0834,-1.1871,-1.2176,-1.181,-1.1979,-1.1965,-1.1768,0.0,0.0,0.0,0.0,0.0,0.0,0.0,0.0,0.0,0.0,0.0,0.0,0.0,0.0,0.0,0.0,0.0,0.0,0.0,0.0,0.0,-1.8917,-2.2494,-2.6409,-2.8025,-2.9692,-3.0793,-2.9958,-2.7771,-2.5446,-2.3853,-2.1736,-1.9933,-1.9359,-1.9213,-1.9342,-1.9768,-2.0253,-2.1048,-2.249,-2.3274,-2.4302,0.0,0.0,0.0,-3.0881,-3.3284,-3.5129,-3.5988,-3.6701,-3.709,-3.709,-3.6896,-3.6582,-3.6133,-3.5729,-3.5246,-3.4691,-3.4673,-3.4293,-3.3449,-3.3374,-3.2953,-3.2227,-3.2067,-3.2326,-3.2943,-3.2189,-3.1912,-3.2003,-3.1595,-3.0884,-3.0068,-3.0231,-3.0093,-2.9792,-2.9792,-2.9792,-2.9792,-2.9792,-2.9792,-2.9792,0.0,0.0,0.0,0.0,0.0,0.0,0.0,-0.9714,-0.963,-0.9954,-0.9797,-0.9645,-0.9645,-0.9982,-1.016,-1.0059,-1.0135,0.0,0.0,0.0,0.0,0.0,0.0,0.0,0.0,-1.0991,-1.1108,-1.1318,-1.2155,-1.256,-1.2549,-1.2438,-1.2209,-1.1872,-1.1576,-1.1069,0.0,0.0,0.0,0.0,0.0,0.0,-1.3291,0.0,0.0,0.0,0.0,0.0,0.0,0.0,0.0,0.0,0.0,0.0,0.0,0.0,-1.981,-2.2407,-2.4291,-2.6225,-2.7465,-2.642,-2.4932,0.0,-2.2292,-2.0823,-1.9648,-1.9353,-1.9358,-1.9446,-1.9574,-2.0411,-2.135,-2.2194,-2.3251,-2.4507,-2.6004,0.0,0.0,-3.1555,-3.3814,-3.528,-3.5684,-3.6193,-3.6492,-3.6492,-3.6492,-3.6312,-3.5893,-3.5639,-3.5504,-3.5504,-3.5504,-3.5166,-3.4476,-3.439,-3.3988,-3.329,-3.3119,-3.3342,-3.3831,-3.2952,-3.2691,-3.2876,-3.2098,-3.15,0.0,-3.0637,-3.0394,-3.0177,-2.9895,-2.9792,-2.9792,-2.9792,-2.9792,-2.9792,0.0,0.0,0.0,0.0,0.0,0.0,0.0,-0.9511,-0.9525,-0.9525,-0.9762,-0.9919,-0.9919,-1.0399,-1.0608,-1.0347,0.0,0.0,0.0,0.0,0.0,0.0,0.0,0.0,-1.0681,-1.0733,-1.1469,-1.2898,-1.2434,-1.3094,-1.478,-1.3642,-1.3108,-1.3037,-1.2321,-1.1525,-1.0729,-1.0729,-1.1204,-1.1942,-1.1942,-1.2779,0.0,0.0,0.0,0.0,0.0,0.0,0.0,0.0,0.0,0.0,0.0,0.0,0.0,0.0,0.0,0.0,0.0,-2.2859,-2.4449,-2.3372,-2.2311,-2.1355,-2.0722,-1.9849,0.0,-1.9343,-1.9413,-1.9498,-1.973,-2.0789,-2.168,-2.1874,-2.3454,-2.4903,-2.5585,-2.7485,0.0,0.0,-3.3739,-3.4563,-3.4503,-3.5654,-3.6417,-3.6417,-3.6417,-3.6417,-3.6417,-3.5833,-3.5504,-3.5504,-3.5504,-3.5407,-3.5213,-3.5213,-3.5115,-3.4902,-3.471,-3.4382,-3.3965,-3.4025,-3.3786,-3.3404,-3.3577,-3.3382,-3.2864,-3.2061,-3.1441,-3.0895,-3.0177,-2.9895,-2.9856,-2.983,-2.9792,-2.9792,0.0,0.0,0.0,0.0,0.0,0.0,0.0,0.0,0.0,0.0,-1.0046,-1.021,-1.021,-1.0496,-1.0668,0.0,0.0,0.0,0.0,0.0,0.0,0.0,0.0,0.0,-1.0693,-1.1152,-1.1571,-1.1937,-1.3416,-1.4373,-1.4794,-1.4513,-1.4135,-1.3642,-1.2504,-1.1624,-1.1003,-1.1003,-1.1122,-1.1322,-1.1322,-1.2118,0.0,0.0,0.0,0.0,-1.5283,-1.5433,0.0,0.0,0.0,0.0,0.0,0.0,0.0,0.0,-1.8132,-1.9356,-1.9023,0.0,-2.0945,-2.1184,-2.1002,-2.0692,0.0,-2.0159,-1.9965,-2.0102,-1.9993,-2.0201,-2.1311,-2.1185,-2.1585,-2.3588,-2.4724,-2.5615,-2.6273,-2.8951,0.0,-3.3066,-3.4442,-3.5055,-3.4563,-3.5235,-3.5744,-3.5744,-3.5744,-3.5744,-3.5744,-3.5594,-3.5504,-3.5504,-3.5504,-3.5472,-3.5439,-3.5294,-3.518,-3.5115,-3.4949,-3.5015,-3.5385,-3.474,-3.4367,-3.4183,-3.3564,-3.2944,-3.2291,-3.2108,-3.194,-3.1746,-3.0945,-3.0658,-3.0582,-2.9998,-2.9792,-2.9792,0.0,0.0,0.0,0.0,0.0,0.0,0.0,0.0,0.0,0.0,0.0,-1.0484,-1.0484,-1.0729,0.0,0.0,0.0,0.0,0.0,0.0,0.0,0.0,0.0,-1.0753,-1.0873,-1.1465,-1.1946,-1.229,-1.3445,-1.4461,-1.5294,-1.47,-1.4389,-1.4246,-1.2687,-1.1661,-1.1097,-1.1097,-1.1266,-1.1519,-1.1543,0.0,0.0,0.0,0.0,0.0,-1.5008,-1.5328,0.0,-1.6022,-1.6229,-1.6407,0.0,0.0,0.0,0.0,-1.7917,-1.8706,-1.9098,-1.9599,-2.0031,-2.0093,-2.0162,-2.0209,-2.0177,-2.0214,-2.0278,-2.0429,0.0,-2.058,-2.1719,-2.1766,-2.2463,-2.4887,-2.5834,-2.6919,0.0,0.0,-3.28,-3.4152,-3.4969,-3.5282,-3.4983,-3.5295,-3.5504,-3.5504,-3.5504,-3.5504,-3.5504,-3.5504,-3.5504,-3.5504,-3.5504,-3.5504,-3.5504,-3.5392,-3.5326,-3.5326,-3.5213,-3.5373,-3.5715,-3.5132,-3.4969,-3.5105,-3.4264,-3.3776,-3.3564,-3.288,-3.2613,-3.2541,-3.1746,-3.1452,-3.1415,-3.0996,-3.0608,-3.0305,0.0,0.0,0.0,0.0,0.0,0.0,0.0,0.0,0.0,0.0,0.0,0.0,0.0,0.0,0.0,0.0,0.0,0.0,0.0,0.0,0.0,0.0,-1.0765,-1.0928,-1.1226,-1.1758,-1.243,-1.3246,-1.3444,-1.4395,-1.6026,-1.4932,-1.4462,-1.4443,-1.2672,-1.1589,-1.112,-1.112,-1.143,-1.1897,-1.1959,0.0,0.0,0.0,0.0,0.0,0.0,0.0,0.0,-1.6434,-1.6636,-1.673,-1.7003,0.0,0.0,0.0,0.0,0.0,-1.9707,-2.0368,-2.0391,-1.9956,-2.0006,-2.0186,-2.0262,-2.0385,-2.0532,0.0,0.0,0.0,0.0,-2.2593,0.0,0.0,0.0,0.0,-3.2272,-3.3198,-3.4019,-3.5303,-3.5552,-3.5646,-3.5633,-3.5737,-3.5797,-3.5797,-3.5797,-3.5797,-3.5797,-3.5668,-3.5651,-3.5651,-3.5569,-3.5504,-3.5504,-3.5504,-3.5504,-3.5504,-3.5504,-3.5504,-3.5504,-3.5326,-3.5444,-3.575,-3.5052,-3.4937,-3.5203,-3.3921,-3.3367,-3.3297,-3.2541,-3.2254,-3.2254,-3.2146,-3.1673,-3.1082,0.0,0.0,0.0,0.0,0.0,0.0,0.0,0.0,0.0,0.0,0.0,0.0,0.0,0.0,0.0,0.0,0.0,0.0,0.0,0.0,0.0,-1.1038,-1.1085,-1.1362,-1.1858,-1.2056,-1.2733,-1.387,-1.4995,-1.5968,-1.675,-1.6499,-1.5255,-1.322,-1.1918,-1.1277,-1.1192,-1.125,-1.1316,-1.1416,-1.1427,0.0,0.0,0.0,0.0,0.0,0.0,0.0,0.0,-1.657,-1.6795,-1.7029,-1.7083,0.0,0.0,0.0,0.0,0.0,-1.9205,-1.9976,-2.0652,-2.1218,-2.1386,-2.1438,-2.1437,-2.1413,-2.1419,0.0,0.0,0.0,0.0,-2.3848,-2.5152,0.0,0.0,-3.1904,0.0,0.0,-3.5355,-3.613,-3.6731,-3.6875,-3.6299,-3.6772,-3.7101,-3.7101,-3.7101,-3.7101,-3.7101,-3.6585,-3.6258,-3.6258,-3.5765,-3.5504,-3.5504,-3.5504,-3.5504,-3.5504,-3.5504,-3.5504,-3.5504,-3.5472,-3.5419,-3.5296,-3.5012,-3.4842,-3.4762,-3.4375,-3.423,-3.4147,-3.3332,-3.3038,-3.2967,-3.2326,-3.2001,-3.1819,0.0,0.0,0.0,0.0,0.0,0.0,0.0,0.0,0.0,0.0,0.0,0.0,0.0,0.0,0.0,0.0,0.0,0.0,0.0,0.0,-1.1097,-1.1097,-1.1516,-1.184,-1.2049,-1.2113,-1.2788,-1.4113,-1.5102,-1.569,-1.5916,-1.5492,-1.4279,-1.2447,-1.1881,-1.148,-1.1204,-1.1239,-1.1273,-1.1305,0.0,0.0,0.0,0.0,0.0,0.0,0.0,0.0,0.0,0.0,-1.6965,-1.7095,-1.7095,0.0,0.0,0.0,0.0,0.0,-1.8709,-1.9775,-2.0869,-2.1061,-2.1413,-2.1724,-2.1738,-2.1709,-2.1879,0.0,0.0,0.0,0.0,0.0,-2.6945,-2.9134,0.0,-3.4877,-3.6009,-3.6263,-3.6438,0.0,-3.7098,-3.7208,-3.6967,-3.7209,-3.7399,-3.7399,-3.7399,-3.7399,-3.7399,-3.7101,-3.6951,-3.6951,-3.6321,-3.6005,-3.6005,-3.5651,-3.5504,-3.5504,-3.5504,-3.5504,-3.5504,-3.5504,-3.5392,-3.518,-3.5115,-3.4983,-3.4817,-3.4716,-3.4616,-3.4515,-3.4147,-3.3928,-3.3742,-3.2981,-3.2684,-3.2577,0.0,0.0,0.0,0.0,0.0,0.0,0.0,0.0,0.0,0.0,0.0,0.0,0.0,0.0,0.0,0.0,0.0,0.0,0.0,0.0,-1.1251,-1.1111,-1.1703,-1.2127,-1.2326,-1.2377,-1.2996,-1.4198,-1.489,-1.5178,-1.5089,-1.4442,-1.3372,-1.1998,-1.1883,-1.1629,-1.1293,-1.1285,-1.135,-1.1508,0.0,0.0,0.0,0.0,0.0,0.0,0.0,0.0,0.0,0.0,0.0,0.0,0.0,0.0,0.0,-1.7257,-1.802,-1.8824,-1.8776,-1.9971,-2.12,-2.1097,0.0,-2.1837,-2.2228,-2.2397,-2.2895,0.0,0.0,0.0,0.0,-2.7145,0.0,-3.1631,-3.4783,-3.6771,-3.6555,-3.7152,-3.7616,-3.7699,-3.7682,-3.7711,-3.7819,-3.7838,-3.7838,-3.7838,-3.7838,-3.7838,-3.7838,-3.7693,-3.7605,-3.7605,-3.6981,-3.6631,-3.6631,-3.6179,-3.5797,-3.5504,-3.5504,-3.5504,-3.5504,-3.5504,-3.5439,-3.5261,-3.5213,-3.5115,-3.4968,-3.4935,-3.4835,-3.475,-3.4698,-3.4597,-3.4332,-3.3776,-3.352,-3.3367,0.0,0.0,0.0,0.0,0.0,0.0,0.0,0.0,0.0,0.0,0.0,0.0,0.0,0.0,0.0,0.0,0.0,0.0,0.0,0.0,-1.1689,-1.1125,-1.139,-1.2002,-1.3005,-1.3218,-1.3602,-1.4198,-1.4935,-1.5237,-1.5087,-1.473,-1.3641,-1.1984,-1.154,-1.1439,-1.1571,-1.1497,-1.1696,-1.2034,-1.1854,0.0,0.0,0.0,0.0,0.0,0.0,0.0,0.0,0.0,0.0,0.0,0.0,0.0,-1.7384,-1.7467,-1.815,-1.9082,-1.9935,-2.0845,-2.1729,-2.2379,-2.2164,-2.2145,-2.3537,-2.4381,0.0,-2.6752,0.0,0.0,0.0,-2.8323,-3.0212,-3.316,-3.5015,-3.6539,-3.7864,0.0,-3.9139,-3.9162,-3.9162,-3.9152,-3.9148,-3.9148,-3.9148,-3.9148,-3.9148,-3.9148,-3.9148,-3.8562,-3.8222,-3.8222,-3.7648,-3.734,-3.734,-3.728,-3.6677,-3.5504,-3.5504,-3.5504,-3.5504,-3.5504,-3.5504,-3.5472,-3.5294,-3.518,-3.5148,-3.4968,-3.4902,-3.4868,-3.4765,-3.4597,-3.4414,-3.4549,-3.4481,-3.423,0.0,0.0,0.0,0.0,0.0,0.0,0.0,0.0,0.0,0.0,0.0,0.0,0.0,0.0,0.0,0.0,0.0,0.0,0.0,-1.1357,-1.1445,-1.1285,-1.1902,-1.2459,-1.2895,-1.255,-1.2844,-1.3889,-1.3923,-1.4318,-1.4997,-1.3498,-1.2719,-1.2592,-1.1828,-1.1626,-1.185,-1.1822,-1.1929,-1.2107,-1.2195,-1.2174,0.0,0.0,0.0,0.0,0.0,0.0,0.0,0.0,-1.6061,-1.6617,-1.6903,-1.7244,-1.7561,-1.7743,-1.8511,-1.9331,-1.9596,-2.0709,-2.1829,-2.1982,-2.2201,0.0,0.0,-2.5221,-2.6247,-2.7954,-2.9505,0.0,0.0,0.0,-3.1672,-3.4404,-3.5863,-3.7052,-3.8079,-3.8444,-3.8444,-3.798,-3.793,-3.8112,-3.8576,-3.8195,-3.8295,-3.9232,-3.8444,-3.8129,-3.8593,-3.7936,-3.7567,-3.7567,-3.6928,-3.6581,-3.6581,-3.6216,-3.6021,-3.6012,-3.6028,-3.5846,-3.5504,-3.5504,-3.5504,-3.5504,-3.5439,-3.5392,-3.5359,-3.5294,-3.518,-3.5082,-3.4868,-3.4769,-3.4702,-3.4817,-3.4769,-3.4668,0.0,0.0,0.0,0.0,0.0,0.0,0.0,0.0,0.0,0.0,0.0,0.0,0.0,0.0,0.0,0.0,0.0,0.0,-1.1279,-1.1549,-1.1678,-1.1564,-1.2231,-1.2595,-1.2554,-1.216,-1.2452,-1.3509,-1.3314,-1.3617,-1.4346,-1.3137,-1.2609,-1.2636,-1.2249,-1.221,-1.2431,-1.2153,-1.2277,-1.2665,-1.2548,-1.2423,0.0,0.0,0.0,0.0,0.0,0.0,0.0,0.0,-1.5885,-1.6448,-1.716,-1.758,-1.7866,-1.8072,-1.8791,-1.9538,-1.9514,-2.0749,-2.1989,-2.1873,0.0,0.0,-2.5918,-2.682,-2.7953,-3.0372,-3.1984,-3.3019,-3.3256,0.0,0.0,0.0,-3.5699,-3.6671,-3.7417,-3.7715,-3.7682,-3.7168,-3.7102,-3.7317,-3.7788,-3.7417,-3.7516,-3.8536,-3.7665,-3.7334,-3.7847,-3.7384,-3.7102,-3.7102,-3.6643,-3.6417,-3.6417,-3.6002,-3.6055,-3.6587,-3.6611,-3.6353,-3.5797,-3.5797,-3.5683,-3.5504,-3.5504,-3.5504,-3.5504,-3.5504,-3.5359,-3.518,-3.5034,-3.4968,-3.4902,-3.4968,-3.4935,-3.4902,0.0,0.0,0.0,0.0,0.0,0.0,0.0,0.0,0.0,0.0,0.0,0.0,0.0,0.0,0.0,0.0,0.0,0.0,-1.1603,-1.241,-1.2618,-1.1944,-1.2241,-1.2292,-1.2009,-1.2333,-1.2707,-1.3079,-1.336,-1.3327,-1.3027,-1.403,-1.3564,-1.1955,-1.2759,-1.3233,-1.3361,-1.2484,-1.2827,-1.3822,-1.29,-1.2642,-1.2811,0.0,0.0,0.0,0.0,0.0,0.0,0.0,-1.5423,-1.6806,-1.6894,-1.7561,-1.8328,-1.8385,-1.8964,-1.9646,-1.9935,-2.1136,-2.2296,0.0,0.0,0.0,-2.8691,-2.946,-3.0593,-3.4429,-3.5224,-3.4964,-3.4261,-3.3071,0.0,-3.3216,-3.4202,-3.5148,-3.5876,-3.6622,-3.7069,-3.7069,-3.7069,-3.7069,-3.7085,-3.7069,-3.7085,-3.7102,-3.7102,-3.7085,-3.7085,-3.7085,-3.7069,-3.7069,-3.7069,-3.7069,-3.7069,-3.7069,-3.7107,-3.7171,-3.7198,-3.6921,-3.6399,-3.6399,-3.6085,-3.5504,-3.5504,-3.5504,-3.5504,-3.5504,-3.5359,-3.518,-3.518,-3.5082,-3.4935,-3.5115,-3.5082,-3.4935,0.0,0.0,0.0,0.0,0.0,0.0,0.0,0.0,0.0,0.0,0.0,0.0,0.0,0.0,0.0,0.0,0.0,0.0,-1.3379,-1.3623,-1.3748,-1.3586,-1.3821,-1.37,-1.321,-1.2885,-1.2696,-1.2686,-1.2904,-1.3213,-1.3637,-1.3759,-1.3864,-1.4008,-1.4104,-1.4271,-1.4432,-1.418,-1.4283,-1.4578,-1.4293,-1.3938,-1.3566,0.0,0.0,0.0,0.0,0.0,0.0,0.0,0.0,0.0,-1.7619,-1.8213,-1.8475,-1.862,-1.8855,-1.9301,-2.0463,-2.1108,0.0,-2.3552,0.0,0.0,0.0,-3.0201,0.0,0.0,-3.5589,-3.4851,-3.6301,-3.4898,0.0,-3.5515,-3.5126,-3.488,-3.5603,-3.5423,-3.5014,-3.4477,-3.4427,-3.4829,-3.5864,-3.5255,-3.5413,-3.6986,-3.6141,-3.5545,-3.5545,-3.5545,-3.5081,-3.4038,-3.4502,-3.4518,-3.4005,-3.4518,-3.5035,-3.5597,-3.6123,-3.6632,-3.7101,-3.7101,-3.6753,-3.6148,-3.6148,-3.5878,-3.5504,-3.5504,-3.5472,-3.5407,-3.5407,-3.5359,-3.5326,-3.5392,-3.5359,-3.5326,0.0,0.0,0.0,0.0,0.0,0.0,0.0,0.0,0.0,0.0,0.0,0.0,0.0,0.0,0.0,0.0,0.0,0.0,0.0,-1.4409,-1.4502,-1.4533,-1.4651,-1.4554,-1.4181,-1.3895,-1.3654,-1.3446,-1.3009,-1.3184,-1.3891,-1.3731,-1.4106,-1.488,-1.4491,-1.4706,-1.5306,-1.4751,-1.4659,-1.4907,-1.4907,-1.433,-1.3485,0.0,0.0,0.0,0.0,0.0,0.0,0.0,0.0,0.0,-1.8166,-1.8629,-1.8648,-1.876,-1.8797,-1.9065,-2.0323,-2.0876,0.0,-2.3701,-2.5515,-2.766,-3.1153,0.0,0.0,0.0,-3.6693,-3.5924,-3.7343,-3.5784,0.0,-3.575,-3.4993,-3.4419,-3.4844,-3.45,-3.404,-3.3581,-3.3529,-3.3904,-3.4785,-3.409,-3.4163,-3.5492,-3.4612,-3.4021,-3.4021,-3.4021,-3.363,-3.2735,-3.3133,-3.3143,-3.2702,-3.3149,-3.3872,-3.4899,-3.5346,-3.617,-3.7274,-3.7006,-3.6832,-3.6768,-3.6523,-3.6053,-3.5504,-3.5504,-3.5504,-3.5504,-3.5504,-3.5504,-3.5504,-3.5504,-3.5504,-3.5504,0.0,0.0,0.0,0.0,0.0,0.0,0.0,0.0,0.0,0.0,0.0,0.0,0.0,0.0,0.0,0.0,0.0,0.0,0.0,0.0,-1.5101,-1.5101,-1.5036,-1.5048,-1.5118,-1.5173,-1.5151,-1.5043,-1.369,-1.3349,-1.3988,-1.4074,-1.4437,-1.5005,-1.4453,-1.4935,-1.6061,-1.4691,-1.4469,-1.5032,-1.4967,-1.4134,-1.3011,-1.3687,0.0,0.0,0.0,0.0,0.0,0.0,0.0,0.0,-1.8475,-1.8797,-1.8797,-1.8797,-1.8797,-1.8993,-1.9859,-2.059,0.0,-2.3273,-2.6127,0.0,-3.3152,-3.5739,-3.7612,-3.8522,0.0,-3.7631,-3.7702,-3.6111,-3.4776,-3.4776,-3.4262,-3.385,-3.385,-3.3798,-3.3746,-3.3746,-3.3746,-3.3781,-3.385,-3.3489,-3.3275,-3.3343,-3.2993,-3.2713,-3.2663,-3.2691,-3.2652,-3.2503,-3.2569,-3.2586,-3.2503,-3.2586,-3.3259,-3.4601,-3.4667,-3.5462,-3.6878,-3.6405,-3.6644,-3.7334,-3.6599,-3.6055,-3.5683,-3.5587,-3.5587,-3.5587,-3.5587,-3.5569,-3.5504,-3.5504,-3.5504,-3.5504,0.0,0.0,0.0,0.0,0.0,0.0,0.0,0.0,0.0,0.0,0.0,0.0,0.0,0.0,0.0,0.0,0.0,0.0,0.0,0.0,-1.6642,-1.6642,-1.6079,-1.6084,-1.676,-1.5742,-1.5509,-1.6148,-1.5164,-1.4672,-1.4692,-1.5436,-1.5857,-1.6011,-1.6405,-1.682,-1.7201,-1.6159,-1.5879,-1.6099,-1.547,-1.4725,-1.3982,-1.4148,-1.3798,0.0,0.0,0.0,0.0,0.0,0.0,0.0,-1.8342,-1.8797,-1.8797,-1.8797,-1.8797,-1.91,-2.0501,-2.0983,0.0,0.0,-2.8156,-3.1332,-3.2829,-3.4472,-3.6131,-3.7559,-3.772,-3.7791,-3.8433,-3.7165,-3.6007,-3.6007,-3.464,-3.3596,-3.3596,-3.3036,-3.2633,-3.2633,-3.2633,-3.2878,-3.3454,-3.3152,-3.3142,-3.3722,-3.3384,-3.2917,-3.2341,-3.2562,-3.2166,-3.1023,-3.1532,-3.1548,-3.099,-3.1532,-3.1995,-3.231,-3.2895,-3.3938,-3.5413,-3.643,-3.7012,-3.7191,-3.6035,-3.6075,-3.6966,-3.643,-3.6196,-3.6196,-3.6196,-3.591,-3.5504,-3.5504,-3.5504,-3.5504,0.0,0.0,0.0,0.0,0.0,0.0,0.0,0.0,0.0,0.0,0.0,0.0,0.0,0.0,0.0,0.0,0.0,0.0,0.0,0.0,-1.7129,-1.7183,-1.6924,-1.6985,-1.7427,-1.6847,-1.6722,-1.7115,-1.6802,-1.633,-1.5757,-1.5896,-1.6361,-1.7059,-1.6669,-1.6768,-1.7159,-1.6315,-1.5801,-1.5576,-1.588,-1.5387,-1.452,-1.5266,-1.489,-1.3982,-1.4091,0.0,0.0,0.0,0.0,0.0,0.0,0.0,-1.8797,-1.8797,-1.8815,-1.9173,-2.068,0.0,0.0,-2.5979,0.0,-3.1546,-3.3116,-3.4365,-3.5453,-3.6274,-3.6453,-3.6577,-3.6988,-3.6114,-3.5293,-3.5293,-3.4124,-3.3084,-3.2678,-3.2288,-3.1865,-3.1476,-3.1441,-3.16,-3.1973,-3.2004,-3.2002,-3.2018,-3.234,-3.2193,-3.1443,-3.1726,-3.1587,-3.0797,-3.0958,-3.0886,-3.0506,-3.0886,-3.125,-3.1598,-3.2,-3.2945,-3.4435,-3.6274,-3.6753,-3.6147,-3.6185,-3.6445,-3.6882,-3.6886,-3.6692,-3.6399,-3.6399,-3.6022,-3.5504,-3.5504,-3.5504,-3.5504,0.0,0.0,0.0,0.0,0.0,0.0,0.0,0.0,0.0,0.0,0.0,0.0,0.0,0.0,0.0,0.0,0.0,0.0,0.0,0.0,0.0,-1.7344,-1.7502,-1.7624,-1.7664,-1.7893,-1.7969,-1.7922,-1.8146,-1.79,-1.7209,-1.6426,-1.6734,-1.7905,-1.6614,-1.6436,-1.7041,-1.6277,-1.5565,-1.5077,-1.6226,-1.5972,-1.502,-1.6295,-1.603,-1.4986,-1.5102,-1.5613,-1.627,-1.6518,0.0,0.0,0.0,0.0,-1.8797,-1.8797,-1.886,-1.9192,-2.0539,0.0,-2.2579,-2.6586,-2.8855,0.0,-3.2813,-3.3849,-3.4455,-3.4757,-3.5025,-3.5186,-3.5186,-3.4598,-3.4115,-3.4115,-3.3294,-3.2472,-3.1778,-3.1581,-3.1242,-3.0582,-3.0496,-3.0496,-3.0496,-3.0802,-3.0733,-3.0135,-3.0907,-3.1113,-3.0456,-3.0661,-3.0862,-3.098,-3.0617,-3.041,-3.0414,-3.0348,-3.0621,-3.1217,-3.1482,-3.2315,-3.3696,-3.5644,-3.6032,-3.5221,-3.6341,-3.6741,-3.6664,-3.7163,-3.7111,-3.6723,-3.6723,-3.629,-3.5651,-3.5651,-3.5587,-3.5504,0.0,0.0,0.0,0.0,0.0,0.0,0.0,0.0,0.0,0.0,0.0,0.0,0.0,0.0,0.0,0.0,0.0,0.0,-1.7276,0.0,0.0,-1.7566,-1.7589,-1.771,-1.7947,-1.7973,-1.8128,-1.8406,-1.8506,-1.8837,-1.9356,-1.8332,-1.7959,-1.8149,-1.7942,-1.8006,-1.8206,-1.7302,-1.6922,-1.6895,-1.6448,-1.6159,-1.6019,-1.6221,-1.6211,-1.6094,-1.6111,-1.6229,-1.648,-1.72,-1.7584,0.0,0.0,0.0,-1.8797,-1.8797,-1.886,-1.9076,-1.9926,0.0,-2.3573,0.0,-2.684,-2.8766,0.0,0.0,-3.1528,0.0,-3.4276,-3.5186,-3.5186,-3.4598,-3.4115,-3.4115,-3.2848,-3.1813,-3.1706,-3.11,-3.0618,-3.0496,-3.0496,-3.0496,-3.0496,-3.0555,-3.0543,-3.0436,-3.0307,-3.0184,-3.0079,-2.9782,-2.9917,-3.0571,-3.0251,-3.0058,-3.0065,-2.9729,-2.9595,-2.9711,-3.0986,-3.205,-3.2884,-3.3806,-3.4835,-3.5844,-3.547,-3.631,-3.7906,-3.7426,-3.7548,-3.8051,-3.8051,-3.7324,-3.629,-3.629,-3.5941,-3.5504,0.0,0.0,0.0,0.0,0.0,0.0,0.0,0.0,0.0,0.0,0.0,0.0,0.0,0.0,0.0,-1.6625,-1.7056,-1.742,-1.7625,-1.781,-1.7932,-1.7932,-1.804,-1.8163,-1.827,-1.833,-1.841,-1.8555,-1.8668,-1.8892,-1.923,-1.9212,-1.9427,-1.9797,-1.9313,-1.8931,-1.8614,-1.7744,-1.7153,-1.6798,-1.6921,-1.6983,-1.7036,-1.7498,-1.7409,-1.7025,-1.7025,-1.705,-1.7137,-1.7476,-1.7905,-1.8324,-1.869,0.0,0.0,0.0,-1.901,-1.9276,-1.993,-2.1522,-2.3149,0.0,-2.5449,-2.7085,-2.787,-2.8994,-3.0083,-3.0779,-3.1813,-3.2848,-3.374,-3.3633,-3.3277,-3.283,-3.2152,-3.1403,-3.0529,-2.9726,-2.9212,-2.9212,-2.8816,-2.8727,-2.9176,-2.9622,-2.9708,-2.9248,-2.9882,-3.0107,-2.97,-2.971,-2.9881,-3.0211,-2.9849,-2.958,-2.9396,-2.9208,-2.9034,-2.8837,-2.9499,-3.0394,-3.1504,-3.2232,-3.3607,-3.5396,-3.5506,-3.609,-3.6977,-3.7101,-3.7122,-3.7069,-3.7069,-3.6513,-3.5738,-3.5738,-3.5351,-3.4865,0.0,0.0,0.0,0.0,0.0,0.0,0.0,0.0,0.0,0.0,0.0,0.0,0.0,0.0,0.0,0.0,-1.7437,-1.7693,-1.7956,-1.816,-1.8287,-1.8287,-1.8426,-1.8505,-1.8534,-1.8574,-1.8622,-1.865,-1.8742,-1.8904,-1.9118,-1.9912,-2.068,-2.1375,-2.052,-1.9755,-1.9065,-1.8449,-1.7869,-1.7343,-1.7744,-1.7905,-1.7976,-1.8565,-1.8431,-1.7905,-1.7905,-1.7905,-1.7905,-1.7905,-1.8307,-1.8806,-1.8843,-1.8923,0.0,0.0,0.0,0.0,0.0,0.0,-2.2217,-2.3099,-2.4351,-2.559,0.0,0.0,-2.8671,0.0,-2.9397,-3.0101,-3.1722,-3.2168,-3.2097,-3.1492,-3.1242,-3.0636,-2.9283,-2.8392,-2.7821,-2.7607,-2.7067,-2.6925,-2.7536,-2.8138,-2.8259,-2.7643,-2.8673,-2.9169,-2.8816,-2.9068,-2.9409,-2.9814,-2.9462,-2.9145,-2.8903,-2.8707,-2.8488,-2.8244,-2.8348,-2.9036,-3.0241,-3.0787,-3.2243,-3.4386,-3.5313,-3.5827,-3.6042,-3.6605,-3.665,-3.6348,-3.6348,-3.5959,-3.5439,-3.5439,-3.4945,-3.437,0.0,0.0,0.0,0.0,0.0,0.0,0.0,0.0,0.0,0.0,0.0,0.0,-1.714,-1.728,-1.7356,-1.7554,-1.7692,-1.7894,-1.8166,-1.8368,-1.8475,-1.8475,-1.8485,0.0,-1.8585,-1.8595,-1.8659,-1.8788,-1.8797,-1.9189,-1.9948,-2.0697,-2.1465,-2.2207,-2.1393,-2.0616,-1.993,-1.9895,-1.9841,-1.9752,-1.9029,-1.8744,-1.8744,-1.8779,-1.8779,-1.8744,-1.8744,0.0,0.0,0.0,0.0,0.0,0.0,-1.8984,-1.9018,0.0,0.0,0.0,0.0,-2.0488,0.0,-2.2455,-2.3467,0.0,0.0,0.0,-2.6693,-2.8139,-2.7776,-2.7674,-2.9298,-3.0154,-3.0603,-3.0582,-2.9976,-2.9244,-2.8374,-2.7567,-2.6782,-2.6015,-2.589,-2.589,-2.5913,-2.6029,-2.6042,-2.5925,-2.6065,-2.6435,-2.7098,-2.7143,-2.7861,-2.9376,-2.9037,-2.8851,-2.8914,-2.8202,-2.784,-2.7839,-2.8215,-2.8754,-2.9446,-2.9496,-3.0725,-3.2901,-3.4319,-3.5346,-3.6009,-3.6042,-3.6448,-3.7051,-3.7051,-3.6643,-3.6066,-3.6066,-3.5324,-3.4294,0.0,0.0,0.0,0.0,0.0,0.0,0.0,0.0,0.0,0.0,0.0,0.0,0.0,-1.7693,-1.7715,-1.7788,-1.8029,-1.8304,-1.8573,-1.8649,-1.8695,-1.8695,-1.8695,-1.8696,-1.8724,-1.8724,-1.8742,-1.8797,-1.8797,-1.9207,-2.0019,-2.0888,-2.1381,-2.1518,-2.1233,-2.1233,-2.1422,-2.0412,-2.0002,-1.9966,-1.9698,0.0,0.0,0.0,0.0,0.0,0.0,0.0,0.0,0.0,0.0,0.0,0.0,0.0,0.0,0.0,0.0,0.0,0.0,0.0,0.0,-2.116,-2.2301,-2.3425,-2.3939,-2.4816,-2.568,-2.6225,-2.6464,-2.673,-2.7308,-2.8717,-2.9622,-2.9105,-2.8802,-2.816,-2.684,-2.5997,-2.5599,-2.5832,-2.5415,-2.5295,-2.5815,-2.5856,-2.5838,-2.585,-2.5893,-2.6018,-2.6292,-2.6292,-2.6535,-2.7067,-2.7445,-2.7801,-2.812,-2.7641,-2.7415,-2.7415,-2.7333,-2.7679,-2.8397,-2.9084,-2.9847,-3.0659,-3.2128,-3.374,-3.5297,-3.5297,-3.5446,-3.5694,-3.5694,-3.5539,-3.5325,-3.5325,-3.4855,-3.4223,0.0,0.0,0.0,0.0,0.0,0.0,0.0,0.0,0.0,-1.7619,0.0,0.0,0.0,0.0,-1.8048,-1.8125,-1.8341,-1.8563,-1.8779,-1.8797,-1.8797,-1.8797,-1.8797,-1.8797,-1.8797,-1.8797,-1.8922,-1.9189,-1.9273,-1.9695,-2.0492,-2.145,-2.1821,-2.1674,-2.1614,-2.1867,-2.2243,-2.1286,0.0,-2.0743,0.0,0.0,-1.9564,0.0,0.0,0.0,0.0,0.0,0.0,0.0,0.0,0.0,0.0,0.0,0.0,0.0,0.0,0.0,-1.9497,0.0,0.0,0.0,0.0,-2.2394,-2.2858,-2.3758,-2.4571,-2.4797,-2.5228,-2.5612,-2.5885,-2.7067,-2.7869,-2.7552,-2.7503,-2.7012,-2.5622,-2.5015,-2.4807,-2.5088,-2.4653,-2.4545,-2.5117,-2.5141,-2.5141,-2.5153,-2.5177,-2.5291,-2.5511,-2.5529,-2.5612,-2.58,-2.6318,-2.6743,-2.7053,-2.6737,-2.6558,-2.6558,-2.6507,-2.6656,-2.7063,-2.8059,-2.8705,-2.9118,-3.0112,-3.1918,-3.4137,-3.3889,-3.4087,-3.4535,-3.4535,-3.4369,-3.422,-3.4717,-3.4382,-3.38,0.0,0.0,0.0,0.0,0.0,0.0,0.0,0.0,-1.7907,-1.7907,0.0,0.0,0.0,0.0,0.0,-1.8576,-1.8612,-1.8659,-1.8788,-1.8797,-1.8797,-1.8797,-1.8797,-1.8797,-1.8797,-1.8797,-1.9199,-2.0011,-2.0192,-2.068,-2.1457,-2.2447,-2.2887,-2.282,-2.2692,-2.2512,-2.2318,0.0,-2.2466,-2.2257,0.0,-2.1287,-2.11,0.0,0.0,0.0,-2.0443,-2.0228,0.0,-1.9453,0.0,0.0,0.0,0.0,0.0,0.0,0.0,0.0,0.0,0.0,0.0,0.0,0.0,0.0,-2.2918,0.0,-2.3313,-2.4063,-2.4114,-2.4253,-2.5046,-2.5192,-2.5365,-2.5942,-2.6051,-2.5751,-2.4802,-2.467,-2.4408,-2.3697,-2.3607,-2.3629,-2.37,-2.3754,-2.3783,-2.3711,-2.3754,-2.4093,-2.4747,-2.4771,-2.5076,-2.5747,-2.5765,-2.5783,-2.58,-2.5473,-2.5312,-2.5312,-2.5796,-2.5841,-2.5527,-2.6353,-2.731,-2.8343,-2.8359,-2.9967,-3.2536,-3.1863,-3.2442,-3.3756,-3.3773,-3.3365,-3.2884,-3.4319,-3.4094,-3.3129,0.0,0.0,0.0,0.0,0.0,0.0,-1.776,-1.7973,-1.8149,0.0,0.0,0.0,-1.862,-1.863,-1.8658,-1.8733,-1.8733,-1.8769,-1.8797,-1.8797,-1.8797,-1.8797,-1.8797,-1.8797,-1.8797,-1.8797,-1.9236,-2.0146,-2.0245,-2.1024,-2.2426,-2.2894,-2.3308,-2.3678,-2.3728,-2.3359,-2.261,-2.1944,0.0,-2.2575,-2.1701,-2.1385,0.0,0.0,0.0,0.0,0.0,-2.0834,-2.0324,0.0,-2.027,-2.0533,0.0,0.0,0.0,0.0,0.0,0.0,-1.9609,0.0,0.0,0.0,0.0,0.0,0.0,0.0,-2.3473,-2.4321,-2.441,-2.4431,-2.4653,-2.4681,-2.4699,-2.4709,-2.5134,-2.5158,-2.4316,-2.4179,-2.4138,-2.3971,-2.3831,-2.3771,-2.3834,-2.3768,-2.3732,0.0,-2.3793,-2.3873,-2.4075,-2.3975,-2.4283,-2.504,-2.504,-2.5265,-2.5788,-2.5712,-2.5661,-2.5661,-2.6142,-2.6189,-2.5908,-2.6995,-2.7242,-2.6849,-2.7381,-2.8359,-2.9702,-3.1035,-3.2166,-3.3066,-3.3574,-3.3365,-3.2818,-3.3756,-3.3885,-3.3597,0.0,0.0,0.0,0.0,0.0,-1.7964,-1.8097,-1.831,-1.8477,0.0,0.0,0.0,-1.9724,-1.976,-1.9635,-1.9332,-1.9296,-1.9182,-1.8896,-1.8887,-1.8914,-1.8949,-1.8976,-1.8976,-1.8976,-1.9309,-1.9903,-2.0789,-2.1275,-2.2143,-2.34,-2.3652,-2.3946,-2.4257,-2.421,0.0,0.0,0.0,0.0,0.0,-2.26,0.0,0.0,-2.2515,-2.2535,0.0,0.0,0.0,-2.143,-2.116,-2.1115,0.0,0.0,0.0,0.0,0.0,0.0,0.0,0.0,0.0,0.0,0.0,0.0,0.0,-2.1419,-2.1965,-2.2521,0.0,-2.3762,-2.3851,-2.3516,-2.4026,-2.4335,-2.3859,-2.4422,-2.4694,-2.4089,-2.3996,-2.4016,-2.4094,-2.3955,-2.3876,-2.3945,-2.3813,-2.3757,-2.3789,-2.38,-2.3807,-2.3804,-2.3707,-2.3845,-2.4294,-2.4259,-2.4421,-2.4843,-2.4843,-2.4843,-2.4843,-2.5782,-2.6033,-2.5741,-2.6987,-2.7131,-2.6433,-2.6723,-2.7265,-2.8028,-2.9284,-3.041,-3.1371,-3.1802,-3.152,-3.1111,-3.2752,-3.3143,-3.3011,0.0,0.0,-1.7721,-1.7913,-1.8218,-1.8416,-1.8435,-1.8728,-1.894,0.0,-1.9627,-2.0386,-2.1036,-2.1108,-2.085,-2.018,-2.0146,-1.9909,-1.9326,-1.928,-1.934,-1.9498,-1.9474,-1.9466,-1.949,-2.0192,-2.0949,-2.1762,-2.2723,-2.356,-2.4238,-2.4497,-2.4607,-2.4582,0.0,0.0,0.0,0.0,0.0,-2.2932,-2.3731,-2.4061,0.0,0.0,-2.4036,-2.3984,-2.3382,-2.3096,-2.293,-2.2327,-2.207,0.0,0.0,0.0,0.0,0.0,-2.0258,0.0,0.0,0.0,0.0,0.0,0.0,0.0,-2.0751,-2.0975,-2.1222,0.0,-2.2596,-2.2874,-2.2142,-2.3236,-2.3987,-2.3201,-2.3729,-2.4181,-2.4077,-2.4056,-2.4075,-2.4133,-2.4026,-2.3958,-2.4016,-2.3907,-2.3816,-2.3806,-2.3806,-2.3803,-2.3804,-2.3732,-2.3667,-2.3596,-2.3585,-2.3562,-2.3505,-2.3505,-2.3505,-2.3523,-2.4968,-2.5546,-2.5351,-2.6571,-2.6984,-2.6741,-2.6416,-2.664,-2.7221,-2.7184,-2.8011,-2.9317,-2.9363,-2.9036,-2.8823,-3.1392,-3.1967,-3.1763,0.0,-1.793,-1.8065,-1.8277,-1.8406,-1.8551,-1.8704,-1.9321,-1.977,-1.977,-2.0469,-2.0998,-2.109,-2.1149,-2.1105,-2.0894,-2.1024,-2.1095,-2.1025,-2.1016,-2.1124,-2.1366,-2.1177,-2.1124,-2.1287,-2.1452,-2.1912,-2.2729,-2.3091,-2.3669,-2.4437,-2.4604,-2.4613,-2.4525,-2.4524,0.0,0.0,0.0,0.0,-2.3281,-2.3251,-2.3694,-2.4384,-2.421,-2.4266,-2.4384,-2.4243,-2.3752,-2.3151,-2.3009,-2.2534,-2.2089,0.0,0.0,0.0,-2.1421,0.0,0.0,0.0,0.0,0.0,0.0,0.0,0.0,-2.1008,-2.1447,-2.1992,0.0,-2.2297,-2.2323,-2.2122,-2.2346,-2.2514,-2.2338,-2.2415,-2.2935,-2.4217,-2.4393,-2.4421,-2.443,-2.4294,-2.4219,-2.417,-2.4036,-2.3917,-2.3806,-2.3806,-2.3803,-2.3804,-2.3732,-2.3667,-2.3596,-2.3551,-2.3517,-2.3505,-2.3505,-2.3505,-2.3505,-2.445,-2.505,-2.5333,-2.6233,-2.6809,-2.7085,-2.6758,-2.6674,-2.6808,-2.6527,-2.728,-2.8658,-2.9201,-2.9334,-2.9284,-2.9847,-3.0323,-3.077,-1.8149,-1.8242,-1.8351,-1.8563,-1.8985,-1.9319,-1.9386,-2.0075,-2.0604,-2.0604,-2.1335,-2.199,-2.2311,-2.241,-2.227,-2.1844,-2.189,-2.1827,-2.1516,-2.1497,-2.1589,-2.1797,-2.1773,-2.1799,-2.1906,-2.2383,-2.2858,-2.3241,-2.3726,-2.4169,-2.4607,-2.4607,-2.4623,-2.4645,-2.4604,0.0,0.0,0.0,-2.4404,-2.3982,-2.3849,0.0,-2.4491,-2.4393,-2.4411,-2.45,-2.45,-2.4212,-2.3776,-2.3351,-2.3229,0.0,-2.2739,-2.2617,-2.255,0.0,-2.1718,-2.1476,0.0,0.0,0.0,-2.1402,0.0,0.0,0.0,-2.1491,-2.1672,-2.206,-2.185,-2.1594,-2.1555,-2.224,-2.2514,-2.169,-2.2215,-2.2884,-2.3294,-2.3305,-2.3256,-2.3256,-2.3524,-2.3703,-2.3693,-2.3886,-2.3937,-2.3806,-2.3806,-2.3813,-2.38,-2.3779,-2.3714,-2.3645,-2.3629,-2.3573,-2.3505,-2.3505,-2.3505,-2.3505,-2.432,-2.4805,-2.5027,-2.6043,-2.6638,-2.6859,-2.6736,-2.6691,-2.6674,-2.6346,-2.6651,-2.7346,-2.7677,-2.7791,-2.789,-2.8638,-2.9135,-2.9549,-1.8505,-1.8571,-1.8654,-1.8984,-1.963,-2.0132,-2.0237,-2.0938,-2.1506,-2.1668,-2.2461,-2.3205,-2.3642,-2.3912,-2.3806,-2.3133,-2.2964,-2.2725,-2.2356,-2.2182,-2.2172,-2.2335,-2.2442,-2.2513,-2.2543,-2.3326,-2.3734,-2.3739,-2.4342,-2.4653,-2.47,-2.4607,-2.4629,-2.4791,-2.4684,0.0,0.0,0.0,0.0,-2.4629,0.0,-2.4582,-2.45,-2.45,-2.45,-2.45,-2.45,-2.45,-2.4388,-2.3694,-2.3925,-2.4258,-2.2922,-2.3293,0.0,0.0,0.0,0.0,0.0,0.0,0.0,0.0,0.0,-2.2343,0.0,0.0,0.0,-2.1817,0.0,0.0,0.0,0.0,0.0,-2.1034,0.0,0.0,0.0,-2.1547,0.0,-2.2006,-2.2555,-2.2947,-2.2975,-2.3363,-2.3596,-2.3622,-2.363,-2.3692,-2.3785,-2.3792,-2.375,-2.37,-2.3689,-2.3623,-2.3551,-2.3528,-2.3517,-2.3534,-2.4159,-2.4551,-2.4736,-2.5703,-2.6317,-2.6588,-2.665,-2.6737,-2.6874,-2.6452,-2.631,-2.6292,-2.6238,-2.6285,-2.6535,-2.7578,-2.8078,-2.8343,-1.876,-1.876,-1.902,-1.9818,-2.0034,-2.034,-2.1043,-2.1844,-2.261,-2.3329,-2.4343,-2.4722,0.0,0.0,0.0,0.0,0.0,0.0,-2.5271,0.0,-2.4356,-2.4599,-2.4421,-2.4356,-2.4475,-2.4591,-2.4618,-2.4557,-2.4704,-2.4742,-2.4707,-2.4753,-2.4753,-2.4715,-2.4768,0.0,0.0,0.0,-2.4779,0.0,-2.4791,-2.466,0.0,-2.45,-2.45,-2.45,-2.45,-2.45,-2.4481,0.0,-2.4425,-2.4462,0.0,-2.3814,-2.3471,-2.4045,0.0,0.0,0.0,0.0,0.0,0.0,-2.322,0.0,-2.07,0.0,-2.1953,-2.1343,0.0,0.0,0.0,0.0,0.0,0.0,0.0,0.0,-1.912,-1.9613,-2.0575,-2.2004,-2.2252,-2.2279,-2.2219,-2.2166,-2.2385,-2.2969,-2.3005,-2.3239,-2.3771,-2.3743,-2.3711,-2.37,-2.3652,-2.3629,-2.3678,-2.3618,-2.3585,-2.3585,-2.3617,-2.4005,-2.4712,-2.4836,-2.5643,-2.693,-2.6658,-2.6935,-2.7535,-2.689,-2.6641,-2.6624,-2.6328,-2.6601,-2.7116,-2.6634,-2.6849,-2.7466,-1.9639,-1.9549,-1.9818,-2.0647,-2.1207,-2.164,-2.1954,-2.3208,-2.4062,-2.3891,-2.4832,0.0,0.0,0.0,0.0,0.0,0.0,-2.5855,0.0,0.0,0.0,-2.465,-2.466,-2.4684,-2.4746,-2.4861,-2.4896,-2.4868,-2.4827,-2.4827,-2.4868,-2.4783,-2.4783,-2.4868,-2.4827,0.0,-2.491,0.0,-2.4863,0.0,0.0,0.0,0.0,-2.4623,-2.4599,-2.4549,-2.4517,-2.45,-2.45,0.0,-2.45,0.0,0.0,0.0,0.0,-2.4388,0.0,0.0,0.0,0.0,0.0,0.0,0.0,0.0,-2.2846,0.0,-2.1732,0.0,0.0,0.0,0.0,0.0,0.0,0.0,-2.0637,0.0,0.0,0.0,-2.015,-2.0739,0.0,0.0,-2.2066,-2.2085,-2.2147,-2.2301,-2.2262,-2.2529,-2.3237,-2.318,-2.3324,-2.3736,-2.3739,-2.3718,-2.37,-2.3667,-2.3641,-2.3596,-2.3562,-2.3718,-2.4022,-2.4498,-2.5283,-2.6323,-2.6443,-2.6967,-2.7654,-2.7197,-2.6874,-2.6674,-2.6555,-2.6565,-2.6617,-2.6319,-2.6402,-2.6651,-2.0913,0.0,0.0,-2.1514,-2.2167,-2.2676,-2.2906,-2.4147,-2.4826,0.0,0.0,0.0,-2.6823,-2.74,0.0,0.0,-2.8203,-2.7371,0.0,0.0,-2.4791,0.0,0.0,0.0,-2.4776,-2.4929,-2.5003,-2.5003,-2.4903,-2.4903,-2.5003,-2.4846,-2.4853,-2.5003,0.0,-2.4903,-2.5003,0.0,-2.495,-2.4849,-2.4849,-2.482,-2.4768,-2.47,-2.4637,-2.459,-2.4515,-2.45,-2.45,-2.45,-2.45,0.0,-2.45,-2.45,-2.45,0.0,0.0,0.0,-2.45,0.0,0.0,0.0,0.0,0.0,0.0,0.0,0.0,0.0,0.0,0.0,0.0,0.0,0.0,0.0,0.0,-2.0575,0.0,-1.9855,0.0,0.0,0.0,0.0,0.0,-2.1434,-2.1592,-2.1572,-2.1684,-2.1979,-2.2483,-2.2813,-2.3149,-2.3489,-2.3696,-2.3775,-2.3725,-2.3711,-2.3667,-2.3629,-2.3585,-2.3539,-2.3523,-2.4094,-2.4771,-2.5538,-2.6065,-2.676,-2.7504,-2.7372,-2.718,-2.6955,-2.6775,-2.6538,-2.6329,-2.6239,-2.6202,-2.6202,-2.2611,-2.1968,0.0,0.0,0.0,-2.2928,-2.3894,-2.4275,0.0,0.0,0.0,0.0,0.0,0.0,0.0,0.0,0.0,-2.9464,-2.8668,0.0,-2.5785,0.0,0.0,-2.4996,0.0,-2.5003,-2.5003,-2.5003,-2.5003,-2.5003,-2.5003,-2.4996,-2.4996,-2.5003,-2.5003,-2.5003,-2.5003,-2.5003,-2.5003,-2.4984,-2.4984,-2.4996,-2.4957,0.0,-2.4607,-2.459,-2.4515,0.0,0.0,-2.45,-2.45,0.0,0.0,0.0,0.0,0.0,0.0,0.0,0.0,0.0,0.0,-2.354,0.0,0.0,0.0,0.0,-2.3546,0.0,0.0,0.0,0.0,0.0,0.0,0.0,0.0,0.0,0.0,0.0,0.0,0.0,0.0,0.0,0.0,-1.956,-2.0251,-2.0693,-2.1464,-2.1799,-2.1551,-2.2958,-2.3464,-2.2771,-2.3428,-2.3807,-2.3795,-2.3736,-2.37,-2.37,-2.3573,-2.3505,-2.3505,-2.3523,-2.3969,-2.4783,-2.5503,-2.6287,-2.7059,-2.7501,-2.7686,-2.7595,-2.6939,-2.6691,-2.6641,-2.6311,-2.6202,-2.6202,0.0,0.0,0.0,0.0,0.0,0.0,0.0,-2.4923,0.0,0.0,-2.8426,0.0,0.0,-3.3705,-3.4396,0.0,0.0,-3.1838,-3.0446,-2.8779,0.0,0.0,0.0,-2.6148,0.0,0.0,0.0,-2.5003,-2.5003,-2.5003,-2.5003,-2.5003,-2.5003,-2.5003,0.0,-2.5003,0.0,0.0,0.0,0.0,0.0,-2.5003,-2.4983,0.0,-2.466,-2.4645,-2.4532,-2.45,0.0,-2.45,-2.45,-2.45,-2.45,-2.45,-2.45,-2.45,-2.45,-2.45,0.0,0.0,-2.4491,-2.4236,0.0,0.0,0.0,0.0,0.0,0.0,0.0,0.0,0.0,0.0,0.0,0.0,0.0,0.0,0.0,0.0,0.0,0.0,0.0,0.0,0.0,0.0,-1.8007,-1.9291,-1.8938,-1.9338,-2.0896,-2.1807,-2.2417,-2.2699,-2.3423,-2.3803,-2.3806,-2.3782,-2.3728,-2.37,-2.3656,-2.3596,-2.3505,-2.3505,-2.3933,-2.4748,-2.5479,-2.6264,-2.7049,-2.7743,-2.7893,-2.7657,-2.7213,-2.6891,-2.6657,-2.6311,-2.6202,-2.6202,-2.4432,0.0,0.0,0.0,0.0,0.0,0.0,0.0,0.0,0.0,-3.0698,0.0,-3.5865,0.0,-3.6529,0.0,-3.5685,-3.3752,-3.1753,-3.0086,0.0,-2.6747,-2.6899,0.0,0.0,0.0,0.0,0.0,0.0,-2.5003,-2.5003,-2.5003,-2.5003,0.0,0.0,-2.5003,-2.5003,-2.5003,-2.5003,0.0,0.0,-2.5003,0.0,0.0,-2.4723,-2.4684,0.0,-2.4525,-2.45,-2.45,-2.45,-2.45,-2.45,-2.45,-2.45,-2.45,-2.45,-2.45,-2.45,-2.4524,0.0,-2.4557,-2.419,0.0,-2.4584,0.0,-2.3262,0.0,0.0,0.0,0.0,0.0,0.0,0.0,0.0,0.0,0.0,-2.0007,0.0,0.0,0.0,0.0,0.0,-1.7643,-1.7724,-1.8151,-1.8309,-1.891,-2.0141,-2.1349,-2.2078,-2.2264,-2.327,-2.3806,-2.3806,-2.3803,-2.3768,-2.37,-2.3667,-2.3618,-2.3505,-2.3791,-2.4201,-2.4766,-2.5783,-2.6514,-2.7063,-2.7857,-2.8067,-2.7832,-2.7507,-2.726,-2.6988,-2.6416,-2.6202,-2.6202,0.0,0.0,0.0,0.0,-2.465,0.0,0.0,0.0,-2.9385,0.0,-3.2113,-3.3638,-3.6215,-3.6472,-3.6737,-3.7447,-3.6756,-3.5192,-3.2691,-3.1014,0.0,0.0,-2.6785,-2.6273,-2.6197,0.0,0.0,0.0,0.0,0.0,0.0,0.0,0.0,0.0,-2.5003,0.0,-2.5003,-2.5003,-2.5003,-2.5003,-2.5003,-2.5003,-2.4996,-2.4856,-2.4757,-2.4692,-2.4613,-2.4549,-2.45,-2.45,-2.45,-2.45,-2.45,-2.45,-2.45,-2.45,-2.45,-2.45,-2.45,-2.45,-2.45,-2.45,-2.4541,0.0,0.0,0.0,-2.4637,0.0,0.0,0.0,0.0,0.0,0.0,0.0,0.0,0.0,0.0,0.0,0.0,0.0,0.0,0.0,0.0,-1.8439,-1.9112,-1.7404,-1.9413,-2.0313,0.0,-2.1558,-2.2438,-2.1551,-2.3009,-2.3806,-2.3806,-2.3789,-2.3783,-2.37,-2.3641,-2.3562,-2.3523,-2.4302,-2.4659,-2.4783,-2.6282,-2.6955,-2.7063,-2.7857,-2.8196,-2.8168,-2.7818,-2.7701,-2.7567,-2.6589,-2.6203,-2.6202,-2.5036,-2.5402,-2.5804,0.0,-2.577,-2.6102,0.0,0.0,0.0,0.0,-3.5211,-3.7315,-4.0479,-4.0271,-3.974,-3.9294,-3.7921,0.0,0.0,0.0,0.0,-2.9347,-2.8495,-2.7479,-2.6235,-2.6008,0.0,-2.5003,0.0,0.0,-2.5003,0.0,0.0,0.0,0.0,0.0,-2.5003,-2.5003,-2.5003,-2.5003,-2.5003,-2.5003,-2.5003,0.0,-2.4846,-2.4692,-2.4613,-2.4549,-2.45,-2.45,-2.45,-2.45,-2.45,-2.45,-2.45,-2.45,-2.45,-2.45,-2.45,-2.45,-2.45,-2.45,-2.4517,-2.4551,0.0,0.0,0.0,0.0,0.0,0.0,0.0,0.0,0.0,0.0,0.0,0.0,0.0,0.0,0.0,-2.0822,0.0,0.0,-1.8188,-1.7511,-1.7482,-1.8261,-1.8208,-1.8577,-1.9549,0.0,-2.1898,-2.1652,-2.3051,-2.3806,-2.3806,-2.3803,-2.3779,-2.37,-2.3678,-2.36,-2.3505,-2.3719,-2.4129,-2.4748,-2.5711,-2.6443,-2.7063,-2.7857,-2.8196,-2.8168,-2.7818,-2.7552,-2.7276,-2.6775,-2.6399,-2.6202,-2.6103,0.0,0.0,-2.8389,0.0,0.0,-2.9211,-3.0189,0.0,-3.5078,-3.6594,0.0,-4.0006,-4.046,-4.0127,-3.8906,-3.794,0.0,-3.451,0.0,0.0,-2.9972,-2.9139,-2.8078,-2.6804,-2.6387,0.0,-2.5003,0.0,0.0,-2.5003,0.0,0.0,0.0,0.0,-2.5003,-2.5003,-2.5003,-2.5003,-2.5003,-2.5003,-2.5003,0.0,-2.5003,-2.4887,-2.47,-2.4653,-2.4582,-2.45,-2.45,-2.45,-2.45,-2.45,-2.45,-2.45,-2.45,-2.45,-2.45,-2.45,-2.45,-2.45,-2.45,-2.45,-2.4517,-2.4541,-2.4615,-2.4676,0.0,-2.4834,-2.4785,0.0,0.0,0.0,0.0,0.0,0.0,0.0,0.0,0.0,0.0,-2.0594,0.0,-1.9344,-1.8331,-1.7849,-1.814,-1.8248,-1.8701,0.0,0.0,-2.1857,-2.1704,-2.3602,-2.4356,-2.3806,-2.4273,-2.4231,-2.37,-2.37,-2.3623,-2.3505,-2.3862,-2.4462,-2.5229,-2.5997,-2.6782,-2.7567,-2.8017,-2.8196,-2.8182,-2.7979,-2.7745,-2.7489,-2.7227,-2.6841,-2.6417,-2.7695,0.0,0.0,0.0,0.0,0.0,0.0,-3.271,0.0,-3.6244,0.0,-3.7609,-3.7713,-3.8831,-3.8991,-3.7523,0.0,-3.6386,-3.4017,-3.3051,-3.181,-3.0143,-2.9196,-2.8362,-2.7676,-2.669,-2.5856,0.0,0.0,0.0,0.0,0.0,0.0,0.0,0.0,0.0,0.0,-2.5003,-2.5003,-2.5003,-2.5003,-2.5003,-2.5003,-2.5003,-2.4887,-2.47,-2.47,-2.4604,-2.45,-2.45,-2.45,-2.45,-2.45,-2.45,-2.45,-2.45,-2.45,-2.45,-2.45,-2.45,-2.45,-2.45,-2.45,-2.45,-2.45,-2.4549,-2.4631,-2.4684,-2.4742,-2.4842,0.0,0.0,0.0,0.0,0.0,0.0,0.0,0.0,0.0,0.0,0.0,0.0,0.0,-2.0005,-1.9322,-1.7932,-1.9013,-1.9782,0.0,0.0,-2.2118,-2.1894,-2.4227,-2.5004,-2.4021,-2.4779,-2.4746,-2.3898,-2.3747,-2.3623,-2.3523,-2.4219,-2.4998,-2.5854,-2.6532,-2.7371,-2.8196,-2.8196,-2.8196,-2.8196,-2.8209,-2.8105,-2.7943,-2.7815,-2.7382,-2.6841,0.0,0.0,0.0,0.0,0.0,-3.6045,-3.6272,-3.704,-3.7761,-3.8197,-3.8386,-3.8727,-3.9388,-3.849,-3.7713,-3.7438,-3.7401,0.0,0.0,0.0,0.0,-3.1052,-2.9518,-2.8627,-2.8495,-2.6986,-2.6122,0.0,0.0,0.0,-2.5003,0.0,0.0,0.0,0.0,0.0,-2.5003,-2.5003,0.0,-2.5003,-2.5003,-2.5003,-2.5003,-2.5003,-2.4887,-2.47,-2.47,-2.4604,-2.45,-2.45,-2.45,-2.45,-2.45,-2.45,-2.45,-2.45,-2.45,-2.45,-2.45,-2.45,-2.45,-2.45,-2.45,-2.45,-2.45,-2.4549,-2.4631,-2.4684,-2.4742,-2.482,-2.4834,0.0,0.0,0.0,0.0,0.0,0.0,0.0,0.0,0.0,0.0,-2.0424,0.0,0.0,0.0,-1.9628,-1.9801,0.0,0.0,0.0,-2.2432,0.0,-2.3879,-2.4632,0.0,0.0,-2.4372,-2.4934,-2.4097,-2.3623,-2.3505,-2.3648,-2.4468,-2.5818,-2.5961,-2.684,-2.8196,-2.8196,-2.8196,-2.8209,-2.8318,-2.8313,-2.8228,-2.8201,-2.7947,-2.755,0.0,0.0,0.0,0.0,0.0,0.0,0.0,-3.9797,-4.0157,-3.8879,-3.7931,-3.7382,-3.7315,-3.7353,-3.7059,-3.6178,-3.6102,-3.5382,-3.3714,-3.2861,-3.1838,-3.0579,-2.9745,-2.9139,-2.8703,-2.7907,-2.7062,-2.6197,0.0,0.0,-2.5003,0.0,0.0,0.0,0.0,-2.5231,0.0,0.0,0.0,-2.6299,-2.6299,-2.6299,-2.6299,-2.6299,-2.5914,-2.5372,-2.5372,-2.5005,-2.45,-2.45,-2.45,-2.45,-2.45,-2.45,-2.45,-2.45,-2.45,-2.45,-2.45,-2.45,-2.45,-2.45,-2.45,-2.45,-2.45,-2.4549,-2.4615,-2.4637,-2.4707,-2.4761,-2.4761,-2.4827,0.0,0.0,0.0,0.0,0.0,0.0,-2.187,0.0,0.0,0.0,0.0,0.0,0.0,0.0,0.0,0.0,0.0,0.0,-2.2522,0.0,0.0,0.0,-2.4574,0.0,-2.4579,-2.4467,-2.3956,-2.3645,-2.3551,-2.3517,-2.4343,-2.58,-2.58,-2.6715,-2.8196,-2.8196,-2.8237,-2.8304,-2.8345,-2.8367,-2.8406,-2.8327,-2.8201,-2.7989,0.0,-3.7533,0.0,0.0,-4.0347,0.0,-4.0317,-4.1435,-4.1579,-3.9258,-3.7495,-3.6178,-3.5514,-3.6462,-3.6613,-3.5287,-3.5173,-3.4453,-3.2785,-3.1905,-3.0995,-2.9953,-2.9897,-2.9593,-2.8968,-2.8798,-2.804,0.0,0.0,0.0,0.0,0.0,0.0,0.0,0.0,0.0,0.0,0.0,-2.6861,-2.7494,-2.7494,-2.7494,-2.7494,-2.7494,-2.6979,-2.6218,-2.6057,-2.5454,-2.4723,-2.4555,-2.45,-2.4537,-2.4704,-2.4648,-2.45,-2.45,-2.45,-2.45,-2.45,-2.45,-2.45,-2.45,-2.45,-2.45,-2.45,-2.4532,-2.4582,-2.4599,-2.4637,-2.4692,-2.4723,-2.4839,0.0,0.0,0.0,0.0,0.0,0.0,0.0,0.0,0.0,0.0,-2.0657,0.0,0.0,0.0,0.0,0.0,-2.2413,0.0,0.0,0.0,0.0,-2.5079,-2.4215,0.0,-2.4789,-2.4124,-2.3855,-2.3685,-2.3596,-2.3539,-2.4355,-2.58,-2.58,-2.6715,-2.8196,-2.8223,-2.8304,-2.8384,-2.8353,-2.8406,-2.8453,-2.8353,-2.83,-2.8259,0.0,0.0,0.0,0.0,0.0,0.0,-4.1188,-4.1832,-4.1776,-4.0014,-3.8338,-3.7268,-3.7163,-3.6661,-3.6263,-3.6093,-3.6093,-3.5363,-3.3695,-3.2766,-3.1564,-2.9972,-2.9897,-2.9859,-2.9783,-2.9082,-2.8627,0.0,0.0,-2.7342,0.0,0.0,0.0,0.0,0.0,0.0,0.0,-2.738,-2.7437,-2.7494,-2.7494,-2.7494,-2.7494,-2.7494,-2.733,-2.6979,-2.6255,-2.5828,-2.5485,-2.4741,-2.45,-2.463,-2.5355,-2.5094,-2.45,-2.45,-2.45,-2.45,-2.45,-2.45,-2.45,-2.45,-2.45,-2.45,-2.45,-2.4508,-2.4534,-2.459,-2.4588,-2.4645,-2.4776,-2.4761,-2.4746,0.0,0.0,0.0,0.0,0.0,-2.3556,-2.348,0.0,0.0,-2.2286,-2.1623,-2.1528,0.0,-2.1555,0.0,0.0,0.0,0.0,-2.4534,-2.4722,-2.5034,-2.5513,-2.4653,-2.4537,-2.5157,-2.4236,-2.3729,-2.3596,-2.3585,-2.4402,-2.58,-2.58,-2.6715,-2.8196,-2.8331,-2.834,-2.8327,-2.8445,-2.8458,-2.8393,-2.8327,-2.83,-2.8286,0.0,0.0,0.0,0.0,0.0,0.0,0.0,-4.2192,-4.1795,-4.0127,-3.8433,-3.723,-3.6737,-3.6396,-3.5998,-3.5457,-3.4984,-3.4188,-3.2994,-3.164,-3.0598,-2.9934,-2.9897,-2.9897,-2.9897,-2.9575,-2.9177,0.0,0.0,0.0,0.0,0.0,0.0,0.0,0.0,-2.7771,-2.8218,-2.8218,-2.8502,-2.8938,-2.8938,-2.8938,-2.8938,-2.8938,-2.8564,-2.7985,-2.7577,-2.7042,-2.6552,-2.6637,-2.5708,-2.4555,-2.4871,-2.476,-2.45,-2.45,-2.45,-2.45,-2.45,-2.45,-2.45,-2.45,-2.45,-2.45,-2.45,-2.45,-2.4508,-2.4524,-2.4607,-2.466,-2.4676,-2.4712,-2.4764,-2.4813,0.0,0.0,0.0,0.0,0.0,-2.3705,0.0,-2.3026,0.0,-2.2173,-2.2116,-2.2476,0.0,0.0,0.0,0.0,0.0,-2.4689,0.0,-2.4582,-2.4737,-2.4301,-2.4441,-2.512,-2.4719,-2.4728,-2.5092,-2.5058,-2.5577,-2.655,-2.7018,-2.7607,-2.8196,-2.825,-2.8291,-2.8313,-2.8367,-2.8367,-2.834,-2.8313,-2.8273,-2.8237,-4.2829,0.0,-4.2659,0.0,-4.336,-4.2697,-4.2439,-4.2192,-4.1454,-3.9778,-3.8281,-3.7192,-3.6623,-3.6804,-3.6529,-3.541,-3.4585,-3.3731,-3.286,-3.1248,-3.0292,-3.0276,-3.0503,0.0,-3.0294,-3.0276,-2.9878,-2.9044,-2.9044,0.0,0.0,0.0,0.0,0.0,-2.8207,-2.8521,-2.9044,-2.9044,-2.9385,-2.9897,-2.9897,-2.9897,-2.9897,-2.9897,-2.9506,-2.8902,-2.8579,-2.8049,-2.752,-2.7736,-2.6683,-2.5284,-2.5224,-2.489,-2.45,-2.45,-2.4667,-2.4797,-2.4555,-2.4667,-2.4853,-2.4853,-2.4667,-2.4555,-2.4797,-2.4667,-2.4508,-2.4534,-2.459,-2.4621,-2.4615,-2.4676,-2.4753,-2.4776,0.0,0.0,0.0,-2.4794,0.0,-2.4016,-2.4028,-2.3866,-2.3297,-2.3007,-2.2855,-2.2855,0.0,0.0,0.0,0.0,0.0,0.0,0.0,0.0,-2.4183,-2.4183,-2.4343,-2.4646,-2.4885,-2.5267,-2.5786,-2.6158,-2.656,-2.7045,-2.7839,-2.8196,-2.8196,-2.8223,-2.8264,-2.83,-2.83,-2.83,-2.83,-2.8273,-2.825,-2.8196,-4.3834,-4.4326,-4.4857,-4.4876,-4.4213,-4.3398,-4.2533,-4.1719,-4.0612,-3.8936,-3.795,-3.7401,-3.7401,-3.82,-3.8097,-3.6426,-3.556,-3.4713,-3.3852,-3.221,-3.1263,0.0,0.0,-3.2,-3.1204,-3.1185,-3.0749,-2.9897,0.0,0.0,-2.9878,0.0,-2.9878,-2.9878,-2.9878,-2.9878,-2.9897,-2.9897,-2.9897,-2.9897,-2.9897,-2.9897,-2.9897,-2.9897,-2.9839,-2.9676,-2.8873,-2.852,-2.8256,-2.7398,-2.7134,-2.714,-2.6935,-2.5782,-2.45,-2.45,-2.5057,-2.5522,-2.4723,-2.5076,-2.5689,-2.5689,-2.5094,-2.4704,-2.5503,-2.5076,-2.4525,-2.459,-2.4541,-2.4525,-2.459,-2.4607,-2.4613,-2.4692,0.0,0.0,0.0,-2.4794,0.0,-2.4794,-2.4891,-2.4984,-2.4965,-2.4188,0.0,0.0,0.0,0.0,0.0,0.0,0.0,-2.5003,-2.4977,0.0,-2.4398,-2.4398,-2.4201,-2.3813,-2.461,-2.5005,-2.5057,-2.6446,-2.7043,-2.7045,-2.7839,-2.8196,-2.8196,-2.8259,-2.83,-2.83,-2.83,-2.83,-2.8286,-2.8223,-2.8196,-2.8196,-4.4573,-4.4724,-4.4724,-4.4175,-4.3872,-4.3227,-4.1795,-4.1832,-4.1427,-3.974,-3.9797,-3.9551,-3.8405,-3.8067,-3.747,0.0,-3.6074,-3.5312,0.0,-3.2792,-3.2175,-3.2159,-3.2353,-3.2355,-3.2089,-3.2036,-3.1602,-3.0787,0.0,0.0,0.0,-3.1602,-3.1318,-3.0787,-3.0787,-3.0465,-2.9897,-2.9897,-2.9897,-2.9897,-2.9897,-2.9897,-2.9897,-2.9897,-2.9899,-2.9828,-2.9532,-2.9394,-2.9322,-2.8988,-2.8125,-2.7186,-2.7117,-2.6316,-2.5283,-2.4733,-2.5101,-2.5652,-2.5392,-2.5503,-2.5708,-2.5708,-2.5094,-2.4704,-2.5522,-2.5503,-2.5178,-2.4645,-2.459,-2.4639,-2.4588,-2.4676,-2.4738,-2.4707,-2.466,0.0,-2.466,0.0,-2.4738,-2.4738,-2.4882,-2.5003,-2.5003,-2.4757,0.0,0.0,0.0,0.0,0.0,0.0,0.0,0.0,-2.5003,0.0,-2.461,-2.5018,-2.5355,-2.5654,-2.6309,-2.6892,-2.7392,-2.7795,-2.795,-2.7897,-2.8116,-2.8196,-2.8196,-2.8223,-2.8237,-2.8237,-2.8237,-2.8237,-2.8237,-2.8196,-2.8196,-2.8196,-4.4895,-4.4895,-4.4743,-4.4232,-4.391,-4.336,-4.2299,-4.2033,-4.1567,-4.0525,-4.0044,-3.9608,-3.9191,-3.8162,0.0,-3.6787,-3.6473,-3.573,-3.4343,-3.3506,-3.305,-3.3006,-3.3282,-3.3292,-3.2988,-3.2961,0.0,-3.1693,-3.2169,-3.2397,-3.2397,-3.2397,-3.2132,-3.164,-3.1318,-3.0901,-3.037,-3.0048,-2.9897,-2.9897,-2.9897,-2.9897,-2.9897,-2.9897,-2.9897,-2.9888,-2.9857,-2.9832,-2.9823,-2.9755,-2.9068,-2.8163,-2.7828,-2.7324,-2.6616,-2.5408,-2.5565,-2.6145,-2.6145,-2.6368,-2.6535,-2.6228,-2.5559,-2.5076,-2.5596,-2.5466,-2.5187,-2.4983,-2.4789,-2.4615,-2.4566,-2.4621,-2.4692,-2.47,-2.4637,-2.4615,-2.4629,0.0,-2.4738,0.0,0.0,0.0,0.0,-2.5003,-2.5003,0.0,0.0,0.0,0.0,0.0,-2.5136,-2.5439,-2.5458,-2.552,-2.5635,-2.6007,-2.6312,-2.6539,-2.7125,-2.7797,-2.851,-2.8432,-2.8353,-2.83,-2.8237,-2.8196,-2.8196,-2.8196,-2.8196,-2.8196,-2.8196,-2.8196,-2.8196,-2.8196,-2.8196,-2.8196,-4.4895,-4.4895,-4.4876,0.0,-4.4156,0.0,-4.3531,-4.2204,-4.1181,-4.1113,-3.9096,-3.8224,-3.9748,-3.8569,-3.7631,-3.7603,0.0,0.0,-3.5144,-3.4346,-3.3872,-3.3799,-3.4565,-3.4641,-3.39,-3.3887,-3.3487,-3.2665,-3.2557,-3.2511,-3.2568,-3.2568,-3.2511,-3.236,-3.1621,-3.1223,-3.1052,-3.0238,-2.9897,-2.9897,-2.9897,-2.9897,-2.9897,-2.9897,-2.9897,-2.9897,-2.9897,-2.9897,-2.988,-2.9823,-2.9811,-2.9672,-2.8852,-2.8571,-2.8169,-2.6405,-2.6413,-2.699,-2.6981,-2.7548,-2.7938,-2.7176,-2.6442,-2.5866,-2.5801,-2.5206,-2.4871,-2.5633,-2.5103,-2.4535,-2.4582,-2.4562,-2.4566,-2.4684,-2.4645,-2.4629,-2.4692,-2.4742,-2.4764,0.0,0.0,0.0,-2.4996,-2.4984,-2.5003,0.0,0.0,0.0,0.0,0.0,-2.5496,-2.6178,-2.6254,-2.6586,-2.7209,-2.7257,-2.7112,-2.6762,-2.73,-2.7905,-2.8523,-2.8486,-2.842,-2.8313,-2.8237,-2.8196,-2.8196,-2.8196,-2.8196,-2.8196,-2.8196,-2.8196,-2.8196,-2.8196,-2.8196,-2.8196,0.0,0.0,-4.4706,-4.4099,-4.3284,-4.2507,-4.1889,-4.1454,-4.0961,-4.0298,-4.026,-4.0203,-3.9938,-3.9551,-3.9069,-3.8483,-3.7718,-3.691,-3.6045,-3.5246,-3.4789,-3.4772,-3.4925,-3.4906,-3.4717,-3.4726,-3.4612,-3.4413,-3.3741,-3.3714,-3.4301,-3.4301,-3.3638,-3.2379,-3.2189,-3.1412,-3.02,-2.9991,-2.9897,-2.9897,-2.9897,-2.9897,-2.9897,-2.9897,-2.9897,-2.9897,-2.9897,-2.9897,-2.9888,-2.9872,-2.9483,-2.8941,-2.8736,-2.8177,-2.7509,-2.7017,-2.7389,-2.7942,-2.7837,-2.8024,-2.8222,-2.8017,-2.783,-2.7494,-2.6777,-2.6461,-2.6386,-2.6572,-2.5563,-2.4816,-2.5385,-2.5166,-2.4832,-2.4715,-2.4738,-2.4746,-2.4707,-2.4715,-2.4723,0.0,-2.4791,-2.4849,-2.4849,-2.4943,-2.5003,0.0,0.0,-2.5913,-2.5913,-2.6539,-2.669,-2.6216,-2.6842,-2.7263,-2.7441,-2.7893,-2.8221,-2.8441,-2.8985,-2.8998,-2.8592,-2.9142,-2.9048,-2.8458,-2.8327,-2.8273,-2.8273,-2.8223,-2.8196,-2.8196,-2.8196,-2.8196,-2.8196,-2.8196,-2.8196,-2.8196,-4.4895,-4.4895,-4.4762,-4.4326,-4.3549,-4.2848,-4.2412,-4.1681,-4.1018,-4.0563,-4.0252,-4.0025,-3.9919,-3.9559,-3.9323,-3.9248,-3.8541,-3.7575,-3.634,-3.5846,-3.5429,-3.503,-3.5001,-3.5001,-3.5001,-3.502,-3.5029,-3.5001,-3.45,-3.4282,-3.4358,-3.4737,-3.4226,-3.2994,-3.2994,-3.2501,-3.1583,-3.0825,-3.0484,-3.0465,-3.0067,-2.9897,-2.9897,-2.9897,-2.9897,-2.9897,-2.9897,-2.9897,-2.9897,-2.9897,-2.9612,-2.9252,-2.9252,-2.8898,-2.8472,-2.8407,-2.8342,-2.8381,-2.8726,-2.8838,-2.8755,-2.8381,-2.8017,-2.769,-2.7493,-2.7205,-2.7093,-2.7466,-2.6288,-2.5338,-2.5806,-2.5336,-2.4839,-2.4761,-2.4791,-2.4779,-2.4742,-2.4791,-2.4805,-2.4761,-2.4827,-2.4896,-2.4896,-2.4957,-2.5155,-2.5515,-2.5951,0.0,-2.6766,-2.76,-2.782,-2.7365,-2.7801,-2.8218,-2.8597,-2.9228,-2.9781,-3.0249,-3.0442,-3.0241,-2.9717,-3.0071,-3.0008,-2.9575,-2.9107,-2.8878,-2.8819,-2.842,-2.8223,-2.8196,-2.8196,-2.8196,-2.8196,-2.8196,-2.8196,-2.8196,-4.4895,-4.4895,-4.4895,-4.4895,-4.4137,-4.3493,-4.3493,-4.209,-4.0999,-4.0999,-3.9759,-3.9134,-3.9824,-3.9286,-3.9153,-3.9843,-3.9286,-3.8178,-3.6491,-3.6282,-3.5799,-3.4946,-3.4945,-3.4973,-3.4973,-3.5029,-3.5057,-3.5001,-3.4936,-3.4548,-3.3903,-3.4586,-3.4396,-3.3505,-3.3505,-3.3449,-3.3221,-3.18,-3.1204,-3.1128,-3.0389,-3.0029,-2.9897,-2.9897,-2.9897,-2.9897,-2.9897,-2.9897,-2.9897,-2.9897,-2.9897,-2.9897,-2.9897,-2.9897,-2.9899,-2.9823,-2.9202,-2.8708,-2.9486,-2.9617,-2.9373,-2.869,-2.8006,-2.7642,-2.8202,-2.7793,-2.7521,-2.8334,-2.7185,-2.6051,-2.6161,-2.549,-2.4949,-2.4997,-2.491,-2.4872,-2.4985,0.0,-2.4936,-2.4801,-2.5017,-2.5172,-2.5172,-2.5281,-2.5667,-2.633,-2.652,-2.6899,-2.7638,-2.8446,-2.8949,-2.9063,-2.8949,-2.9271,-3.0086,-3.063,-3.116,-3.1708,-3.1623,-3.138,-3.1003,-3.1074,-3.096,-3.0689,-2.9949,-2.9521,-2.9291,-2.86,-2.8277,-2.8209,-2.8196,-2.8196,-2.8196,-2.8196,-2.8196,-2.8196,-4.4895,-4.4895,-4.4895,-4.4895,-4.3625,-4.259,-4.259,-4.1169,-4.0108,-4.0108,-3.9881,-3.9767,-3.99,-3.9786,-3.9767,-3.99,-3.9786,-3.9001,-3.7325,-3.6585,-3.5799,-3.4946,-3.4917,-3.4917,-3.4917,-3.4927,-3.4945,-3.5001,-3.4936,-3.4832,-3.4718,-3.4832,-3.4074,-3.2587,-3.2587,-3.2217,-3.1572,-3.1299,-3.1204,-3.1185,-3.1052,-3.056,-2.9897,-2.9897,-2.9897,-2.9897,-2.9897,-2.9897,-2.9897,-2.9897,-2.9897,-2.9897,-2.9897,-2.9897,-2.9888,-2.9899,-2.9729,-2.9585,-2.9682,-2.9738,-2.9726,-2.9594,-2.9462,-2.9388,-2.9439,-2.8755,-2.8372,-2.9298,-2.8144,-2.6998,-2.7081,-2.648,-2.5979,-2.5987,-2.5399,-2.521,-2.5892,0.0,-2.4808,-2.4794,-2.5476,-2.5937,-2.5937,-2.6654,-2.7172,-2.7285,-2.7934,-2.8362,-2.8514,-2.929,-3.0048,-3.0787,-3.0105,-3.0124,-3.0995,-3.0941,-3.116,-3.1708,-3.2183,-3.1916,-3.1034,-3.1677,-3.126,-2.9957,-2.9782,-2.9278,-2.8634,-2.8407,-2.8286,-2.8273,-2.8223,-2.8196,-2.8196,-2.8196,-2.8196,-2.8196,-4.4895,-4.4895,-4.4895,-4.4895,-4.427,-4.3606,-4.317,-4.1681,-4.0601,-4.0601,-4.0184,-3.99,-3.99,-3.99,-3.99,-3.99,-3.99,-3.9388,-3.8178,-3.7306,-3.6462,-3.5628,-3.5154,-3.4908,-3.4908,-3.4908,-3.4917,-3.4945,-3.4917,-3.4434,-3.3562,-3.4036,-3.36,-3.2416,-3.2899,-3.3126,-3.3164,-3.2728,-3.2274,-3.181,-3.1374,-3.0673,-2.9897,-2.9897,-2.9897,-2.9897,-2.9897,-2.9897,-2.9897,-2.9897,-2.9897,-2.9897,-2.9897,-2.9897,-2.9897,-2.9897,-2.9883,-2.9841,-2.9764,-2.9773,-2.9808,-2.9808,-2.9808,-2.9782,-2.9729,-2.9391,-2.9222,-2.9662,-2.8796,-2.7974,-2.8037,-2.7032,-2.6349,-2.6823,-2.5837,0.0,-2.6709,-2.6124,-2.5724,-2.6196,-2.6613,-2.6847,-2.6847,-2.7244,-2.7866,-2.873,-2.8741,-2.929,-3.0617,-3.02,-3.0294,-3.1166,-3.1223,-3.1431,-3.1829,-3.2212,-3.2622,-3.3045,-3.3327,-3.3049,-3.2288,-3.2234,-3.1781,-3.1053,-3.0143,-2.9524,-2.9106,-2.8607,-2.8367,-2.83,-2.8277,-2.8237,-2.8196,-2.8196,-2.8196,-2.8196,-4.4895,-4.4895,-4.4895,-4.4895,-4.4895,-4.463,-4.3815,-4.245,-4.1473,-4.1473,-4.0904,-4.0412,-4.0222,-4.0203,-4.0127,-3.9919,-3.99,-3.9635,-3.9031,-3.7988,-3.704,-3.6244,-3.5363,-3.4908,-3.4908,-3.4908,-3.4908,-3.4908,-3.4908,-3.4245,-3.3013,-3.3676,-3.3524,-3.2728,-3.3392,-3.4036,-3.4586,-3.396,-3.3316,-3.2653,-3.2027,-3.1261,-3.0484,-3.0484,-3.037,-3.02,-3.02,-3.0067,-2.9897,-2.9897,-2.9897,-2.9897,-2.9897,-3.0048,-3.02,-3.02,-3.0332,-3.0373,-2.9945,-2.9815,-2.9815,-2.9815,-2.9815,-2.9816,-2.9765,-2.9773,-2.9808,-2.9808,-2.9291,-2.881,-2.8669,-2.7604,-2.6983,-2.7646,0.0,-2.6103,-2.7562,-2.7032,-2.6823,-2.7676,-2.7941,-2.8131,-2.8339,-2.8529,-2.9147,-3.0389,-2.9916,-3.0389,-3.2303,-3.1185,-3.0787,-3.145,-3.1905,-3.2208,-3.2397,-3.3259,-3.3889,-3.4221,-3.4221,-3.3947,-3.3433,-3.2802,-3.2299,-3.1864,-3.0618,-2.9835,-2.9403,-2.8758,-2.8427,-2.8353,-2.8313,-2.8259,-2.8223,-2.8196,-2.8196,-2.8196,-4.4895,-4.4895,-4.4895,-4.4895,-4.4895,-4.463,-4.3815,-4.2924,-4.2306,-4.2306,-4.2261,-4.1927,-4.1188,-4.1094,-4.0772,-3.9976,-3.99,-3.9862,-3.9824,-3.83,-3.704,-3.6244,-3.5363,-3.4908,-3.4908,-3.4908,-3.4908,-3.4908,-3.4908,-3.4832,-3.4718,-3.4775,-3.4377,-3.3619,-3.3676,-3.3733,-3.3771,-3.3733,-3.3657,-3.36,-3.3543,-3.2994,-3.2208,-3.2208,-3.1753,-3.109,-3.109,-3.0598,-2.9897,-2.9897,-2.9897,-2.9897,-2.9897,-3.0446,-3.109,-3.109,-3.1621,-3.1886,-3.0324,-2.9888,-2.9888,-2.9888,-2.9888,-2.988,-2.9899,-2.9841,-2.9808,-2.9808,-2.9699,-2.9373,-2.8565,-2.8428,-2.8431,-2.8506,0.0,0.0,-2.8495,-2.7915,-2.7695,-2.8514,-2.9271,-3.0048,-3.0852,-3.161,-3.2103,-3.2208,-3.2151,-3.2208,-3.2379,-3.2284,-3.2246,-3.2303,-3.164,-3.164,-3.2379,-3.3259,-3.3909,-3.4293,-3.4293,-3.4049,-3.3591,-3.3465,-3.2601,-3.1165,-3.0989,-3.0061,-2.8677,-2.8554,-2.8492,-2.8466,-2.8353,-2.83,-2.8286,-2.8223,-2.8196,-2.8196,-4.4919,-4.4895,-4.4895,-4.4895,-4.4895,-4.48,-4.4497,-4.3739,-4.3208,-4.3208,-4.2754,-4.2268,-4.1977,-4.1503,-4.1075,-4.0734,-4.0203,-3.99,-3.99,-3.9294,-3.7902,-3.5495,-3.5078,-3.4908,-3.4908,-3.4908,-3.4908,-3.4908,-3.4908,-3.4643,-3.415,-3.415,-3.3998,-3.3695,-3.3695,-3.3979,-3.4434,-3.4434,-3.415,-3.3695,-3.3695,-3.3183,-3.2397,-3.2397,-3.2208,-3.1867,-3.1374,-3.0995,-3.0617,-3.0086,-3.0257,-3.0711,-3.0711,-3.128,-3.1943,-3.1943,-3.2151,-3.2265,-3.1621,-3.109,-3.0711,-3.0711,-3.0294,-2.988,-2.9849,-2.9825,-2.979,-2.9756,-3.0105,-3.033,-3.0011,-3.0029,-3.0262,-3.0818,0.0,-2.9469,-3.0806,-3.0303,-3.0094,-3.0901,-3.1261,-3.1583,-3.1905,-3.2208,-3.2625,-3.3164,-3.271,-3.2861,-3.3884,-3.3486,-3.2956,-3.2416,-3.2634,-3.2899,-3.3202,-3.4064,-3.444,-3.4293,-3.4302,-3.4049,-3.3587,-3.3007,-3.2433,-3.1815,-3.1243,-3.0382,-2.9337,-2.9324,-2.8982,-2.8492,-2.844,-2.838,-2.83,-2.8259,-2.8237,-2.8196,-4.5023,-4.503,-4.5019,-4.4919,-4.4948,-4.4972,-4.4907,-4.4421,-4.408,-4.408,-4.3568,-4.3095,-4.2848,-4.2318,-4.1757,-4.1245,-4.0639,-4.0184,-3.9919,-3.9654,-3.8376,-3.5799,-3.5458,-3.5221,-3.4936,-3.4936,-3.4936,-3.4936,-3.4917,-3.4624,-3.4074,-3.4074,-3.4074,-3.4074,-3.4074,-3.4377,-3.4908,-3.4908,-3.4586,-3.4074,-3.4074,-3.3714,-3.3202,-3.3202,-3.3032,-3.2747,-3.2179,-3.1819,-3.1488,-3.0882,-3.1071,-3.1583,-3.1583,-3.2141,-3.2861,-3.3107,-3.3202,-3.3202,-3.3202,-3.2596,-3.1933,-3.164,-3.1128,-3.0667,-3.0599,-3.0591,-3.0555,-3.0452,-3.0874,-3.1259,-3.1248,-3.1337,-3.161,-3.2204,-3.1389,-3.109,-3.2246,-3.216,-3.2293,-3.3089,-3.343,-3.36,-3.36,-3.3828,-3.4112,-3.4453,-3.3922,-3.3979,-3.4851,-3.4377,-3.379,-3.3176,-3.3752,-3.4074,-3.4046,-3.468,-3.4821,-3.4424,-3.4383,-3.416,-3.3757,-3.3035,-3.2424,-3.1915,-3.1275,-3.04,-2.9427,-2.9694,-2.945,-2.8928,-2.9155,-2.904,-2.8717,-2.8672,-2.846,-2.8196,-4.5234,-4.5312,-4.5301,-4.4967,-4.5068,-4.5126,-4.4931,-4.4895,-4.4895,-4.4895,-4.4895,-4.4592,-4.3796,-4.3701,-4.3038,-4.1359,-4.1188,-4.0809,-3.9957,-3.9153,-3.8329,-3.7457,-3.671,-3.5894,-3.502,-3.5001,-3.5001,-3.5001,-3.4936,-3.4908,-3.4908,-3.4908,-3.4908,-3.4908,-3.4908,-3.4908,-3.4908,-3.4908,-3.4908,-3.4908,-3.4908,-3.4908,-3.4908,-3.4908,-3.4396,-3.3714,-3.3695,-3.3145,-3.2397,-3.2397,-3.2397,-3.2397,-3.2416,-3.3013,-3.3866,-3.4661,-3.4908,-3.4908,-3.4908,-3.432,-3.3505,-3.2634,-3.2397,-3.2371,-3.2307,-3.2307,-3.225,-3.2037,-3.206,-3.2093,-3.2019,-3.2172,-3.2307,-3.2326,-3.2381,-3.2435,-3.2435,-3.3183,-3.4036,-3.4813,-3.5685,-3.6206,-3.6206,-3.6927,-3.7078,-3.6282,-3.6206,-3.5817,-3.4965,-3.4927,-3.4879,-3.4817,-3.4879,-3.4879,-3.4817,-3.4946,-3.4908,-3.4694,-3.4564,-3.4386,-3.4185,-3.3793,-3.2744,-3.1193,-3.1066,-3.0097,-2.869,-2.9494,-2.9802,-2.988,-3.0613,-3.0364,-2.9588,-2.9524,-2.8957,-2.8196,-4.5509,-4.5473,-4.54,-4.5148,-4.5241,-4.5241,-4.4943,-4.5014,-4.5068,-4.4907,-4.4895,-4.4819,-4.4573,-4.3872,-4.3284,-4.2981,-4.1321,-4.0184,-3.9919,-3.9673,-3.9201,-3.8419,-3.7043,-3.6179,-3.5913,-3.5361,-3.5057,-3.5001,-3.4983,-3.4945,-3.4908,-3.4908,-3.4908,-3.4908,-3.4908,-3.4908,-3.4908,-3.4908,-3.4908,-3.4908,-3.4908,-3.4908,-3.4908,-3.4908,-3.4756,-3.4472,-3.3903,-3.3524,-3.3221,-3.2615,-3.2804,-3.3411,-3.3979,-3.4339,-3.4586,-3.4832,-3.4908,-3.4908,-3.4908,-3.4718,-3.4339,-3.3524,-3.2861,-3.2362,-3.2212,-3.2173,-3.2113,-3.1912,-3.2403,-3.2871,-3.2857,-3.3506,-3.4232,-3.4798,-3.5001,-3.5249,-3.5836,-3.6121,-3.6386,-3.6632,-3.6879,-3.704,-3.704,-3.7268,-3.7306,-3.7059,-3.704,-3.6927,-3.667,-3.6651,-3.6601,-3.6486,-3.5952,-3.5891,-3.6344,-3.5447,-3.4908,-3.4694,-3.4564,-3.4386,-3.4185,-3.3793,-3.3022,-3.2032,-3.1905,-3.1256,-3.0296,-3.0532,-3.0636,-3.0659,-3.088,-3.0446,-2.9674,-2.9588,-2.9022,-2.8259,-4.5629,-4.5602,-4.5552,-4.5313,-4.5391,-4.5371,-4.5072,-4.5125,-4.5125,-4.4919,-4.4895,-4.4919,-4.5003,-4.4374,-4.385,-4.3669,-4.1369,-3.99,-3.99,-3.99,-3.9713,-3.9252,-3.7993,-3.6996,-3.6349,-3.5863,-3.5435,-3.5029,-3.5011,-3.4974,-3.4908,-3.4908,-3.4908,-3.4908,-3.4908,-3.5097,-3.5382,-3.504,-3.5097,-3.5382,-3.504,-3.4908,-3.4946,-3.5287,-3.5401,-3.5382,-3.5211,-3.5154,-3.5078,-3.4567,-3.4737,-3.5249,-3.5742,-3.5666,-3.5476,-3.5799,-3.5666,-3.5401,-3.5401,-3.5401,-3.5211,-3.4377,-3.379,-3.3337,-3.3132,-3.3081,-3.3018,-3.2806,-3.3288,-3.3754,-3.3754,-3.4358,-3.501,-3.5482,-3.5627,-3.5855,-3.6329,-3.6718,-3.6927,-3.6927,-3.7514,-3.778,-3.7438,-3.7704,-3.778,-3.7438,-3.7401,-3.7401,-3.7401,-3.7349,-3.7276,-3.7156,-3.6655,-3.6581,-3.6948,-3.6179,-3.5764,-3.5725,-3.494,-3.4637,-3.4734,-3.4042,-3.3218,-3.2343,-3.191,-3.1437,-3.098,-3.0672,-3.0708,-3.0998,-3.0998,-3.0473,-2.9688,-2.9616,-2.9062,-2.8286,-4.5645,-4.5715,-4.5715,-4.5456,-4.5528,-4.5528,-4.5248,-4.5235,-4.5162,-4.4967,-4.4943,-4.5014,-4.5192,-4.5049,-4.4608,-4.3795,-4.1493,-4.0035,-3.9919,-3.9911,-3.9922,-3.9911,-3.9296,-3.8223,-3.6676,-3.6563,-3.6108,-3.5321,-3.5257,-3.5154,-3.5022,-3.5022,-3.4965,-3.4908,-3.4984,-3.5457,-3.6149,-3.542,-3.5571,-3.6225,-3.5363,-3.5059,-3.5192,-3.5941,-3.6244,-3.6396,-3.7135,-3.7401,-3.7401,-3.7401,-3.7401,-3.7401,-3.7401,-3.6908,-3.6453,-3.7192,-3.6889,-3.632,-3.632,-3.632,-3.613,-3.5325,-3.5116,-3.503,-3.4695,-3.4661,-3.4633,-3.43,-3.4506,-3.4736,-3.4736,-3.4884,-3.504,-3.5116,-3.5059,-3.504,-3.5116,-3.5799,-3.632,-3.632,-3.7647,-3.8273,-3.7476,-3.8121,-3.8254,-3.7457,-3.7476,-3.7504,-3.7494,-3.7446,-3.7382,-3.7305,-3.7169,-3.7098,-3.7088,-3.7042,-3.71,-3.7257,-3.5581,-3.5066,-3.5532,-3.4339,-3.3253,-3.2237,-3.1297,-3.0926,-3.0944,-3.0129,-3.0273,-3.0998,-3.0998,-3.0509,-2.9809,-2.9724,-2.917,-2.8394,-4.5752,-4.5786,-4.5745,-4.5588,-4.5669,-4.5669,-4.54,-4.5457,-4.5456,-4.5302,-4.5282,-4.5262,-4.521,-4.5251,-4.5123,-4.4661,-4.2696,-4.1021,-3.9968,-3.9989,-4.0059,-4.0057,-3.9995,-3.9536,-3.862,-3.781,-3.7296,-3.7072,-3.7043,-3.6644,-3.5922,-3.5922,-3.5552,-3.4927,-3.5609,-3.6017,-3.6225,-3.667,-3.6984,-3.7078,-3.6263,-3.6301,-3.6803,-3.6377,-3.6585,-3.7173,-3.7344,-3.7401,-3.7401,-3.7401,-3.7401,-3.7401,-3.7401,-3.7287,-3.7173,-3.7363,-3.7287,-3.7135,-3.7135,-3.7135,-3.7097,-3.6908,-3.686,-3.6489,-3.5071,-3.5229,-3.548,-3.467,-3.5133,-3.5711,-3.5711,-3.5814,-3.6121,-3.6756,-3.6329,-3.614,-3.6765,-3.7021,-3.7135,-3.7135,-3.7457,-3.7609,-3.742,-3.7571,-3.7609,-3.742,-3.8026,-3.8363,-3.8266,-3.8829,-3.9072,-3.8826,-3.8209,-3.8096,-3.8622,-3.7486,-3.6991,-3.7126,-3.6021,-3.5479,-3.5386,-3.3728,-3.2735,-3.2219,-3.0699,-3.0418,-3.0944,-3.0129,-3.0273,-3.0998,-3.0998,-3.0853,-3.0626,-3.0556,-3.0,-2.9142,-4.5807,-4.5807,-4.5786,-4.5708,-4.5745,-4.5723,-4.5528,-4.5554,-4.5554,-4.5429,-4.54,-4.5381,-4.5362,-4.5381,-4.4671,-4.2855,-4.1893,-4.0955,-3.997,-4.003,-4.01,-4.009,-4.0232,-4.0148,-3.9826,-3.9361,-3.8689,-3.7747,-3.7641,-3.7338,-3.6805,-3.6387,-3.596,-3.5533,-3.5998,-3.6415,-3.6813,-3.723,-3.7647,-3.795,-3.7116,-3.7021,-3.7401,-3.7401,-3.7647,-3.8064,-3.8452,-3.8584,-3.8584,-3.8584,-3.8584,-3.8584,-3.8584,-3.8319,-3.8102,-3.849,-3.8319,-3.8026,-3.8026,-3.8026,-3.7931,-3.7495,-3.7704,-3.7644,-3.6228,-3.6266,-3.6435,-3.5826,-3.6189,-3.6621,-3.6621,-3.6704,-3.6908,-3.7344,-3.7059,-3.6794,-3.6832,-3.7173,-3.7268,-3.687,-3.7173,-3.7249,-3.687,-3.6832,-3.7002,-3.7382,-3.7476,-3.7825,-3.8566,-3.8859,-3.8975,-3.884,-3.8656,-3.8755,-3.9101,-3.8332,-3.7977,-3.8047,-3.6944,-3.6316,-3.6062,-3.4631,-3.3423,-3.2401,-3.1347,-3.1156,-3.151,-3.0668,-3.0582,-3.0912,-3.0527,-3.0346,-3.0228,-2.9763,-2.9299,-2.8818,-4.5807,-4.5807,-4.5807,-4.5807,-4.5807,-4.5752,-4.5653,-4.5637,-4.5596,-4.5475,-4.5465,-4.5493,-4.5552,-4.4991,-4.3459,-4.0625,-4.0579,-4.0496,-3.9977,-4.007,-4.0129,-4.011,-4.0266,-4.0396,-4.0554,-4.0662,-3.9947,-3.8328,-3.815,-3.7966,-3.7718,-3.6975,-3.6567,-3.6444,-3.6576,-3.7022,-3.7648,-3.78,-3.8369,-3.906,-3.8055,-3.7799,-3.8092,-3.8538,-3.8879,-3.922,-3.9881,-4.0127,-4.0127,-4.0127,-4.0014,-3.99,-3.99,-3.9437,-3.9039,-3.9692,-3.9437,-3.8917,-3.8917,-3.8917,-3.8727,-3.7997,-3.8357,-3.8674,-3.7755,-3.7547,-3.743,-3.7057,-3.7284,-3.754,-3.754,-3.7585,-3.7628,-3.7628,-3.7495,-3.7173,-3.651,-3.6984,-3.7154,-3.6491,-3.7002,-3.7135,-3.6472,-3.6415,-3.668,-3.7363,-3.6927,-3.7163,-3.8374,-3.8354,-3.8232,-3.8076,-3.8473,-3.8692,-3.8692,-3.8692,-3.8692,-3.8687,-3.7633,-3.7129,-3.7026,-3.5963,-3.4543,-3.2949,-3.2401,-3.2169,-3.2115,-3.1249,-3.0896,-3.0838,-3.0157,-2.9922,-2.9893,-2.9142,-2.875,-2.8588,-4.5807,-4.5807,-4.5807,-4.5807,-4.5807,-4.58,-4.5786,-4.5759,-4.5778,-4.5737,-4.5757,-4.5745,-4.5752,-4.3155,-4.1235,-4.0771,-4.0508,-4.0319,-4.0177,-4.0221,-4.0239,-4.0196,-4.0361,-4.0571,-4.0754,-4.0839,-4.0614,-4.006,-4.0027,-3.9533,-3.8613,-3.8497,-3.8079,-3.7443,-3.8136,-3.8516,-3.866,-3.9411,-4.0198,-4.0802,-3.9245,-3.9442,-4.0536,-3.922,-3.9589,-4.0877,-4.098,-4.1018,-4.1018,-4.1018,-4.0525,-3.99,-3.99,-3.9824,-3.9767,-3.9862,-3.9824,-3.973,-3.973,-3.973,-3.9711,-3.9597,-3.9654,-3.9659,-3.9403,-3.8904,-3.8279,-3.7509,-3.7966,-3.8517,-3.8517,-3.8527,-3.8519,-3.8519,-3.7893,-3.7363,-3.7249,-3.7344,-3.7363,-3.7249,-3.7344,-3.7363,-3.7249,-3.7249,-3.7287,-3.7401,-3.8007,-3.8079,-3.7432,-3.7969,-3.7926,-3.71,-3.7043,-3.7021,-3.7021,-3.7021,-3.7021,-3.7034,-3.697,-3.7243,-3.7718,-3.6304,-3.5281,-3.4504,-3.3066,-3.2324,-3.2061,-3.1164,-3.084,-3.0892,-3.0732,-3.1006,-3.1473,-3.1306,-3.0779,-3.0101,-4.5807,-4.5807,-4.5807,-4.5807,-4.5807,-4.5807,-4.5807,-4.5807,-4.5807,-4.5807,-4.5807,-4.5807,-4.5807,-4.2808,-4.1184,-4.2106,-4.1242,-4.0728,-4.0964,-4.0668,-4.0396,-4.0257,-4.0475,-4.0642,-4.074,-4.0926,-4.0869,-4.0574,-4.0462,-4.0112,-3.9576,-3.9051,-3.8603,-3.828,-3.8641,-3.8794,-3.8851,-3.9736,-4.0551,-4.1231,-4.049,-4.061,-4.1113,-4.0385,-4.0555,-4.1256,-4.17,-4.1567,-4.1188,-4.1188,-4.062,-3.99,-3.99,-3.99,-3.99,-3.99,-3.99,-3.99,-3.99,-4.026,-4.0506,-4.0014,-4.026,-4.0476,-3.994,-3.9583,-3.9245,-3.8775,-3.9432,-3.9949,-3.9456,-3.9778,-3.993,-3.9456,-3.9456,-3.9191,-3.8254,-3.9323,-4.0025,-3.9589,-3.9513,-3.9323,-3.885,-3.8812,-3.9001,-3.9494,-3.9012,-3.8696,-3.8718,-3.8512,-3.7983,-3.7047,-3.7324,-3.7223,-3.6718,-3.6699,-3.6699,-3.6699,-3.6763,-3.6727,-3.659,-3.5913,-3.4884,-3.3663,-3.3191,-3.2639,-3.2046,-3.2074,-3.1825,-3.1412,-3.1445,-3.1317,-3.1112,-3.1543,-3.0921,-2.9851]},{"header":{"parameterUnit":"m.s-1","parameterCategory":1,"la1":30.6,"la2":28.766,"lo1":-90.7593,"lo2":-88.6598,"dy":0.0162,"dx":0.0183,"nx":116,"ny":114,"refTime":"2023-09-01T06:00:00:Z","depth":0,"parameterNumber":3,"parameterNumberName":"V-component_of_WINDS"},"data":[0.0,0.0,0.0,0.0,0.0,0.0,0.0,0.0,0.0,0.0,0.0,0.0,0.0,0.0,0.0,0.0,0.0,0.0,0.0,0.0,0.0,0.0,0.0,0.0,0.0,0.0,0.0,0.0,0.0,0.0,0.0,0.0,0.0,0.0,0.0,0.0,0.0,0.0,0.0,0.0,0.0,0.0,0.0,0.0,0.0,0.0,0.0,0.0,0.0,0.0,0.0,0.0,0.0,0.0,0.0,0.0,0.0,0.0,0.0,0.0,0.0,0.0,0.0,0.0,0.0,0.0,0.0,0.0,0.0,0.0,0.0,0.0,0.0,0.0,0.0,0.0,0.0,0.0,0.0,0.0,0.0,0.0,0.0,0.0,0.0,0.0,0.0,0.0,0.0,0.0,0.0,0.0,0.0,0.0,0.0,0.0,0.0,0.0,0.0,0.0,0.0,0.0,0.0,0.0,0.0,0.0,0.0,0.0,0.0,0.0,0.0,0.0,0.0,0.0,0.0,0.0,0.0,0.0,0.0,0.0,0.0,0.0,0.0,0.0,0.0,0.0,0.0,0.0,0.0,0.0,0.0,0.0,0.0,0.0,0.0,0.0,0.0,0.0,0.0,0.0,0.0,0.0,0.0,0.0,0.0,0.0,0.0,0.0,0.0,0.0,0.0,0.0,0.0,0.0,0.0,0.0,0.0,0.0,0.0,0.0,0.0,0.0,0.0,0.0,0.0,0.0,0.0,0.0,0.0,0.0,0.0,0.0,0.0,0.0,0.0,0.0,0.0,0.0,0.0,0.0,0.0,0.0,0.0,0.0,0.0,0.0,0.0,0.0,0.0,0.0,0.0,0.0,0.0,0.0,0.0,0.0,0.0,0.0,0.0,0.0,0.0,0.0,0.0,0.0,0.0,0.0,0.0,0.0,0.0,0.0,0.0,0.0,0.0,0.0,0.0,0.0,0.0,0.0,0.0,0.0,0.0,0.0,0.0,0.0,0.0,0.0,0.0,0.0,0.0,0.0,0.0,0.0,0.0,0.0,0.0,0.0,0.0,0.0,0.0,0.0,0.0,0.0,0.0,0.0,0.0,0.0,0.0,0.0,0.0,0.0,0.0,0.0,0.0,0.0,0.0,0.0,0.0,0.0,0.0,0.0,0.0,0.0,0.0,0.0,0.0,0.0,0.0,0.0,0.0,0.0,0.0,0.0,0.0,0.0,0.0,0.0,0.0,0.0,0.0,0.0,0.0,0.0,0.0,0.0,0.0,0.0,0.0,0.0,0.0,0.0,0.0,0.0,0.0,0.0,0.0,0.0,0.0,0.0,0.0,0.0,0.0,0.0,0.0,0.0,0.0,0.0,0.0,0.0,0.0,0.0,0.0,0.0,0.0,0.0,0.0,0.0,0.0,0.0,0.0,0.0,0.0,0.0,0.0,0.0,0.0,0.0,0.0,0.0,0.0,0.0,0.0,0.0,0.0,0.0,0.0,0.0,0.0,0.0,0.0,0.0,0.0,0.0,0.0,0.0,0.0,0.0,0.0,0.0,0.0,0.0,0.0,0.0,0.0,0.0,0.0,0.0,0.0,0.0,0.0,0.0,0.0,0.0,0.0,0.0,0.0,0.0,0.0,0.0,0.0,0.0,0.0,0.0,0.0,0.0,0.0,0.0,0.0,0.0,0.0,0.0,0.0,0.0,0.0,0.0,0.0,0.0,0.0,0.0,0.0,0.0,0.0,0.0,0.0,0.0,0.0,0.0,0.0,0.0,0.0,0.0,0.0,0.0,0.0,0.0,0.0,0.0,0.0,0.0,0.0,0.0,0.0,0.0,0.0,0.0,0.0,0.0,0.0,0.0,0.0,0.0,0.0,0.0,0.0,0.0,0.0,0.0,0.0,0.0,0.0,0.0,0.0,0.0,0.0,0.0,0.0,0.0,0.0,0.0,0.0,0.0,0.0,0.0,0.0,0.0,0.0,0.0,0.0,0.0,0.0,0.0,0.0,0.0,0.0,0.0,0.0,0.0,0.0,0.0,0.0,0.0,0.0,0.0,0.0,0.0,0.0,0.0,0.0,0.0,0.0,0.0,0.0,0.0,0.0,0.0,0.0,0.0,0.0,0.0,0.0,0.0,0.0,0.0,0.0,0.0,0.0,0.0,0.0,0.0,0.0,0.0,0.0,0.0,0.0,0.0,0.0,0.0,0.0,0.0,0.0,0.0,0.0,0.0,0.0,0.0,0.0,0.0,0.0,0.0,0.0,0.0,0.0,0.0,0.0,0.0,0.0,0.0,0.0,0.0,0.0,0.0,0.0,0.0,0.0,0.0,0.0,0.0,0.0,0.0,0.0,0.0,0.0,0.0,0.0,0.0,0.0,0.0,0.0,0.0,0.0,0.0,0.0,0.0,0.0,0.0,0.0,0.0,0.0,0.0,0.0,0.0,0.0,0.0,0.0,0.0,0.0,0.0,0.0,0.0,0.0,0.0,0.0,0.0,0.0,0.0,0.0,0.0,0.0,0.0,0.0,0.0,0.0,0.0,0.0,0.0,0.0,0.0,0.0,0.0,0.0,0.0,0.0,0.0,0.0,0.0,0.0,0.0,0.0,0.0,0.0,0.0,0.0,0.0,0.0,0.0,0.0,0.0,0.0,0.0,0.0,0.0,0.0,0.0,0.0,0.0,0.0,0.0,0.0,0.0,0.0,0.0,0.0,0.0,0.0,0.0,0.0,0.0,0.0,0.0,0.0,0.0,0.0,0.0,0.0,0.0,0.0,0.0,0.0,0.0,0.0,0.0,0.0,0.0,0.0,0.0,0.0,0.0,0.0,0.0,0.0,0.0,0.0,0.0,0.0,0.0,0.0,0.0,0.0,0.0,0.0,0.0,0.0,0.0,0.0,0.0,0.0,0.0,0.0,0.0,0.0,0.0,0.0,0.0,0.0,0.0,0.0,0.0,0.0,0.0,0.0,0.0,0.0,0.0,0.0,0.0,0.0,0.0,0.0,0.0,0.0,0.0,0.0,0.0,0.0,0.0,0.0,0.0,0.0,0.0,0.0,0.0,0.0,0.0,0.0,0.0,0.0,0.0,0.0,0.0,0.0,0.0,0.0,0.0,0.0,0.0,0.0,0.0,0.0,0.0,0.0,0.0,0.0,0.0,0.0,0.0,0.0,0.0,0.0,0.0,0.0,0.0,0.0,0.0,0.0,0.0,0.0,0.0,0.0,0.0,0.0,0.0,0.0,0.0,0.0,0.0,0.0,0.0,0.0,0.0,0.0,0.0,0.0,0.0,0.0,0.0,0.0,0.0,0.0,0.0,0.0,0.0,0.0,0.0,0.0,0.0,0.0,0.0,0.0,0.0,0.0,0.0,0.0,0.0,0.0,0.0,0.0,0.0,0.0,0.0,0.0,0.0,0.0,0.0,0.0,0.0,0.0,0.0,0.0,0.0,0.0,0.0,0.0,0.0,0.0,0.0,0.0,0.0,0.0,0.0,0.0,0.0,0.0,0.0,0.0,0.0,0.0,0.0,0.0,0.0,0.0,0.0,0.0,0.0,0.0,0.0,0.0,0.0,0.0,0.0,0.0,0.0,0.0,0.0,0.0,0.0,0.0,0.0,0.0,0.0,0.0,0.0,0.0,0.0,0.0,0.0,0.0,0.0,0.0,0.0,0.0,0.0,0.0,0.0,0.0,0.0,0.0,0.0,0.0,0.0,0.0,0.0,0.0,0.0,0.0,0.0,0.0,0.0,0.0,0.0,0.0,0.0,0.0,0.0,0.0,0.0,0.0,0.0,0.0,0.0,0.0,0.0,0.0,0.0,0.0,0.0,0.0,0.0,0.0,0.0,0.0,0.0,0.0,0.0,0.0,0.0,0.0,0.0,0.0,0.0,0.0,0.0,0.0,0.0,0.0,0.0,0.0,0.0,0.0,0.0,0.0,0.0,0.0,0.0,0.0,0.0,0.0,0.0,0.0,0.0,0.0,0.0,0.0,0.0,0.0,0.0,0.0,0.0,0.0,0.0,0.0,0.0,0.0,0.0,0.0,0.0,0.0,0.0,0.0,0.0,0.0,0.0,0.0,0.0,0.0,0.0,0.0,0.0,0.0,0.0,0.0,0.0,0.0,0.0,0.0,0.0,0.0,0.0,0.0,0.0,0.0,0.0,0.0,0.0,0.0,0.0,0.0,0.0,0.0,0.0,0.0,0.0,0.0,0.0,0.0,0.0,0.0,0.0,0.0,0.0,0.0,0.0,0.0,0.0,0.0,0.0,0.0,0.0,0.0,0.0,0.0,0.0,0.0,0.0,0.0,0.0,0.0,0.0,0.0,0.0,0.0,0.0,0.0,0.0,0.0,0.0,0.0,0.0,0.0,0.0,0.0,0.0,0.0,0.0,0.0,0.0,0.0,0.0,0.0,0.0,0.0,0.0,0.0,0.0,0.0,0.0,0.0,0.0,0.0,0.0,0.0,0.0,0.0,0.0,0.0,0.0,0.0,0.0,0.0,0.0,0.0,0.0,0.0,0.0,0.0,0.0,0.0,0.0,0.0,0.0,0.0,0.0,0.0,0.0,0.0,0.0,0.0,0.0,0.0,0.0,0.0,0.0,0.0,0.0,0.0,0.0,0.0,0.0,0.0,0.0,0.0,0.0,0.0,0.0,0.0,0.0,0.0,0.0,0.0,0.0,0.0,0.0,0.0,0.0,0.0,0.0,0.0,0.0,0.0,0.0,0.0,0.0,0.0,0.0,0.0,0.0,0.0,0.0,0.0,0.0,0.0,0.0,0.0,0.0,0.0,0.0,0.0,0.0,0.0,0.0,0.0,0.0,0.0,0.0,0.0,0.0,0.0,0.0,0.0,0.0,0.0,0.0,0.0,0.0,0.0,0.0,0.0,0.0,0.0,0.0,0.0,0.0,0.0,0.0,0.0,0.0,0.0,0.0,0.0,0.0,0.0,0.0,0.0,0.0,0.0,0.0,0.0,0.0,0.0,0.0,0.0,0.0,0.0,0.0,0.0,0.0,0.0,0.0,0.0,0.0,0.0,0.0,0.0,0.0,0.0,0.0,0.0,0.0,0.0,0.0,0.0,0.0,0.0,0.0,0.0,0.0,0.0,0.0,0.0,0.0,0.0,0.0,0.0,0.0,0.0,0.0,0.0,0.0,0.0,0.0,0.0,0.0,0.0,0.0,0.0,0.0,0.0,0.0,0.0,0.0,0.0,0.0,0.0,0.0,0.0,0.0,0.0,0.0,0.0,0.0,0.0,0.0,0.0,0.0,0.0,0.0,0.0,0.0,0.0,0.0,0.0,0.0,0.0,0.0,0.0,0.0,0.0,0.0,0.0,0.0,0.0,0.0,0.0,0.0,0.0,0.0,0.0,0.0,0.0,0.0,0.0,0.0,0.0,0.0,0.0,0.0,0.0,0.0,0.0,0.0,0.0,0.0,0.0,0.0,0.0,0.0,0.0,0.0,0.0,0.0,0.0,0.0,0.0,0.0,0.0,0.0,0.0,0.0,0.0,0.0,0.0,0.0,0.0,0.0,0.0,0.0,0.0,0.0,0.0,0.0,0.0,0.0,0.0,0.0,0.0,0.0,0.0,0.0,0.0,0.0,0.0,0.0,0.0,0.0,0.0,0.0,0.0,0.0,0.0,0.0,0.0,0.0,0.0,0.0,0.0,0.0,0.0,0.0,0.0,0.0,0.0,0.0,0.0,0.0,0.0,0.0,0.0,0.0,0.0,0.0,0.0,0.0,0.0,0.0,0.0,0.0,0.0,0.0,0.0,0.0,0.0,0.0,0.0,0.0,0.0,0.0,0.0,0.0,0.0,0.0,0.0,0.0,0.0,0.0,0.0,0.0,0.0,0.0,0.0,0.0,0.0,0.0,0.0,0.0,0.0,0.0,0.0,0.0,0.0,0.0,0.0,0.0,0.0,0.0,0.0,0.0,0.0,0.0,0.0,0.0,0.0,0.0,0.0,0.0,0.0,0.0,0.0,0.0,0.0,0.0,0.0,0.0,0.0,0.0,0.0,0.0,0.0,0.0,0.0,0.0,0.0,0.0,0.0,0.0,0.0,0.0,0.0,0.0,0.0,0.0,0.0,0.0,2.6707,2.5644,0.0,0.0,0.0,0.0,0.0,0.0,0.0,0.0,0.0,0.0,0.0,0.0,0.0,0.0,0.0,0.0,0.0,0.0,0.0,0.0,0.0,0.0,0.0,0.0,0.0,0.0,0.0,0.0,0.0,0.0,0.0,0.0,0.0,0.0,0.0,0.0,0.0,0.0,2.4275,2.4755,2.5615,2.613,2.5936,2.5157,0.0,0.0,0.0,0.0,0.0,0.0,0.0,0.0,0.0,0.0,0.0,0.0,0.0,0.0,0.0,0.0,0.0,0.0,0.0,0.0,0.0,0.0,0.0,0.0,0.0,0.0,0.0,0.0,0.0,0.0,0.0,0.0,0.0,0.0,0.0,0.0,0.0,0.0,0.0,0.0,0.0,0.0,0.0,0.0,0.0,0.0,0.0,0.0,0.0,0.0,0.0,0.0,0.0,0.0,0.0,0.0,0.0,0.0,0.0,0.0,0.0,0.0,0.0,0.0,0.0,0.0,0.0,0.0,0.0,0.0,3.0166,2.8459,0.0,0.0,0.0,0.0,0.0,0.0,0.0,0.0,0.0,0.0,0.0,0.0,0.0,0.0,0.0,0.0,0.0,0.0,0.0,0.0,0.0,0.0,0.0,0.0,1.9623,1.977,1.9895,1.9895,0.0,0.0,0.0,0.0,0.0,0.0,0.0,2.3656,2.4054,2.4054,2.4604,2.5668,2.7179,2.8369,2.8053,2.6534,2.599,0.0,0.0,0.0,0.0,0.0,0.0,0.0,0.0,0.0,0.0,0.0,0.0,0.0,0.0,0.0,0.0,0.0,0.0,0.0,0.0,0.0,0.0,0.0,0.0,0.0,0.0,0.0,0.0,0.0,0.0,0.0,0.0,0.0,0.0,0.0,0.0,0.0,0.0,0.0,0.0,0.0,0.0,0.0,0.0,0.0,0.0,0.0,0.0,0.0,0.0,0.0,0.0,0.0,0.0,0.0,0.0,0.0,0.0,0.0,0.0,0.0,0.0,0.0,3.5865,3.6472,3.7122,3.6981,3.7362,3.8006,3.5039,3.2927,3.15,3.0384,0.0,0.0,0.0,0.0,0.0,0.0,0.0,0.0,0.0,0.0,0.0,0.0,0.0,0.0,0.0,0.0,0.0,0.0,0.0,0.0,0.0,2.0303,2.0545,2.1249,2.1889,2.1968,0.0,0.0,0.0,0.0,0.0,0.0,2.3632,2.379,2.3837,2.3837,2.606,2.768,2.8676,3.099,3.2052,3.1854,2.9102,2.8801,3.0132,0.0,0.0,0.0,0.0,0.0,0.0,0.0,0.0,0.0,0.0,0.0,0.0,0.0,0.0,0.0,0.0,0.0,0.0,0.0,0.0,0.0,0.0,0.0,0.0,0.0,0.0,0.0,0.0,0.0,0.0,0.0,0.0,0.0,0.0,0.0,0.0,0.0,0.0,0.0,0.0,0.0,2.7404,2.6645,0.0,0.0,0.0,0.0,0.0,0.0,0.0,0.0,0.0,0.0,0.0,0.0,0.0,3.391,3.4435,3.732,3.8706,3.8607,4.1071,4.2305,4.2371,4.1673,4.1743,4.2331,4.118,0.0,3.4957,3.2635,0.0,0.0,0.0,0.0,0.0,0.0,0.0,0.0,0.0,0.0,0.0,0.0,0.0,0.0,0.0,0.0,0.0,0.0,0.0,0.0,0.0,2.1171,2.2007,2.277,2.436,2.4617,2.2908,2.3125,0.0,0.0,0.0,2.193,2.3161,2.318,2.4049,2.5823,2.7846,2.9731,3.1469,3.3533,3.4783,3.5252,3.3939,3.2505,3.0897,2.8582,0.0,0.0,0.0,0.0,0.0,0.0,0.0,0.0,0.0,0.0,0.0,0.0,0.0,0.0,0.0,0.0,0.0,0.0,0.0,0.0,0.0,0.0,0.0,0.0,0.0,0.0,0.0,0.0,0.0,0.0,0.0,0.0,0.0,0.0,0.0,0.0,0.0,0.0,0.0,2.7994,2.8825,2.7587,2.8926,2.9286,0.0,0.0,0.0,0.0,0.0,0.0,0.0,0.0,0.0,3.5406,3.725,3.8555,3.926,4.1577,4.2923,4.3317,4.4556,4.5387,4.58,4.4977,4.5038,4.5708,4.4424,4.2826,4.084,3.6975,3.4613,3.3272,0.0,0.0,0.0,0.0,3.1505,3.1626,0.0,0.0,0.0,0.0,0.0,0.0,0.0,0.0,0.0,0.0,0.0,0.0,2.1061,2.2636,2.4067,2.5226,2.6801,2.6934,2.5153,2.4205,0.0,0.0,2.0992,2.1118,2.2574,2.3257,2.5052,2.8015,2.9826,3.1836,3.4063,3.5921,3.7221,3.8033,3.8188,3.6315,3.2866,3.0478,2.8901,2.7848,0.0,0.0,0.0,0.0,0.0,0.0,0.0,0.0,0.0,0.0,0.0,0.0,0.0,0.0,0.0,0.0,0.0,0.0,0.0,0.0,0.0,0.0,0.0,0.0,0.0,0.0,0.0,0.0,0.0,0.0,0.0,0.0,0.0,0.0,0.0,0.0,0.0,2.9387,3.0503,2.8725,3.1187,3.19,0.0,0.0,0.0,0.0,0.0,0.0,3.6654,3.7059,3.7871,3.9363,4.149,4.2957,4.3721,4.5123,4.6245,4.7032,4.7097,4.7435,4.8012,4.7409,4.7237,4.735,4.6097,4.5426,4.487,4.0617,3.8,3.6524,3.478,3.4121,3.4218,3.4879,3.4719,3.4475,0.0,0.0,0.0,0.0,0.0,0.0,0.0,0.0,0.0,0.0,0.0,2.1097,2.3389,2.5063,2.6964,2.9295,2.892,2.8491,2.8364,2.5326,2.3488,2.3399,2.171,2.1263,2.2303,2.4746,2.7218,2.9676,3.2053,3.4063,3.5731,3.8101,3.9675,4.0523,4.0789,4.0013,3.8206,3.3523,3.1763,3.1743,2.7614,0.0,0.0,0.0,0.0,0.0,0.0,0.0,0.0,0.0,0.0,0.0,0.0,0.0,0.0,0.0,0.0,0.0,0.0,0.0,0.0,0.0,0.0,0.0,0.0,0.0,0.0,0.0,0.0,0.0,0.0,0.0,0.0,0.0,0.0,0.0,0.0,0.0,0.0,3.0194,3.4229,0.0,0.0,0.0,0.0,3.5995,3.8266,3.9986,4.0855,4.2344,4.3527,4.4308,4.5344,4.6163,4.6774,4.7314,4.7872,4.8497,4.8696,4.8831,4.8941,4.8887,4.796,4.6374,4.6294,4.5738,4.4735,4.2239,4.0737,3.9792,3.8044,3.7444,3.7552,3.759,3.7678,3.7763,0.0,0.0,0.0,0.0,0.0,0.0,0.0,0.0,1.9094,1.9095,2.0246,2.2165,2.5027,2.7236,2.9712,3.2632,3.2632,3.1715,2.9946,2.6821,2.4688,2.3927,2.1855,2.2037,2.4813,2.6802,2.9207,3.2057,3.3898,3.5633,3.7248,3.911,4.0301,4.0917,4.1629,4.1814,4.129,3.6736,3.4055,3.2587,2.8811,2.6979,0.0,0.0,0.0,0.0,0.0,0.0,0.0,0.0,0.0,0.0,0.0,0.0,0.0,0.0,0.0,0.0,0.0,0.0,0.0,0.0,0.0,0.0,0.0,0.0,0.0,0.0,0.0,0.0,0.0,0.0,0.0,0.0,0.0,0.0,0.0,0.0,0.0,3.5628,3.8977,0.0,3.7058,3.7559,3.8877,4.0846,4.1711,4.3013,4.4972,4.6019,4.669,4.6938,4.7819,4.8393,4.8607,4.8777,4.8985,4.9167,4.9249,4.9003,4.8483,4.7948,4.7038,4.5889,4.5374,4.4957,4.4584,4.3744,4.3,4.2262,4.1138,4.0712,4.0764,4.0863,4.0922,4.0893,0.0,0.0,0.0,0.0,0.0,0.0,0.0,0.0,1.9421,1.915,2.0735,2.3056,2.6081,2.8792,3.1686,3.4889,3.4359,3.3116,3.1413,2.7486,2.4869,2.4064,2.2571,2.3276,2.6532,2.8497,3.0973,3.4067,3.5362,3.6818,3.8403,3.9417,4.0341,4.1147,4.1783,4.2662,4.3422,4.0207,3.7389,3.4753,3.1016,2.9553,2.9232,0.0,0.0,0.0,0.0,0.0,0.0,0.0,0.0,0.0,0.0,0.0,0.0,0.0,0.0,0.0,0.0,0.0,0.0,0.0,0.0,0.0,0.0,0.0,0.0,0.0,0.0,0.0,0.0,0.0,0.0,0.0,0.0,0.0,0.0,3.5908,3.8739,3.9069,4.2195,4.3264,4.0545,4.098,4.2313,4.4423,4.4979,4.6034,4.788,4.8653,4.8908,4.8645,4.9208,4.9509,4.9509,4.9509,4.9509,4.9509,4.9208,4.8626,4.7781,4.7237,4.6392,4.5284,4.5021,4.4745,4.4501,4.4501,4.4267,4.3838,4.3316,4.3133,4.3182,4.3277,4.3145,4.2783,0.0,0.0,0.0,0.0,0.0,0.0,0.0,1.981,2.001,1.9204,2.1242,2.3808,2.6544,2.9716,3.2891,3.5971,3.3828,3.2416,3.2741,2.7192,2.3915,2.3919,2.3953,2.5045,2.7336,2.9829,3.2598,3.5673,3.6479,3.7636,3.9143,3.9161,3.9966,4.144,4.144,4.2661,4.4643,4.3874,4.1794,3.8648,3.4399,3.3362,3.3824,0.0,0.0,0.0,0.0,0.0,0.0,0.0,0.0,0.0,0.0,0.0,0.0,0.0,0.0,0.0,0.0,0.0,0.0,0.0,0.0,0.0,0.0,0.0,0.0,0.0,0.0,0.0,0.0,0.0,0.0,0.0,0.0,0.0,3.4191,3.8338,4.0964,4.0212,4.3703,4.4935,4.1754,4.3594,4.5462,4.652,4.81,4.9166,4.9481,5.0244,5.03,4.9512,4.9459,4.9459,4.9459,4.9459,4.9459,4.9474,4.863,4.7785,4.6963,4.6963,4.6063,4.4524,4.5293,4.52,4.4487,4.4487,4.4487,4.4487,4.4501,4.4578,4.468,4.4699,4.4222,4.3353,0.0,0.0,0.0,0.0,0.0,0.0,0.0,2.0164,2.001,1.9204,2.2184,2.5228,2.75,3.0833,3.3524,3.5084,3.3166,3.1259,2.9814,2.6072,2.4029,2.4317,2.6416,2.8847,3.165,3.2906,3.4755,3.7263,3.8019,3.8897,3.9836,4.0383,4.1332,4.2569,4.2569,4.3404,4.4805,4.4405,4.4118,4.3543,3.8773,3.6402,3.5348,0.0,0.0,0.0,0.0,0.0,0.0,0.0,0.0,0.0,0.0,0.0,0.0,0.0,0.0,0.0,0.0,0.0,0.0,0.0,0.0,0.0,0.0,0.0,0.0,0.0,0.0,0.0,0.0,0.0,0.0,0.0,3.4008,3.6609,3.7747,4.0685,4.3315,4.4856,4.6744,4.7553,4.665,4.7184,4.794,4.8825,4.9324,4.962,4.971,4.9932,4.9691,4.8874,4.8855,4.8855,4.8855,4.8855,4.8855,4.8855,4.8597,4.7743,4.6351,4.6351,4.5461,4.3923,4.4162,4.4125,4.3923,4.3923,4.3923,4.3971,4.4354,4.451,4.4565,4.4672,4.3863,4.2678,0.0,0.0,0.0,0.0,0.0,0.0,0.0,2.059,2.0391,1.9258,2.2139,2.4968,2.6661,2.9751,3.2092,3.3002,3.1234,2.935,2.7645,2.5407,2.4669,2.5828,2.818,3.07,3.3355,3.4117,3.5622,3.7905,3.8328,3.9056,4.013,4.0849,4.1732,4.2715,4.3022,4.3881,4.5053,4.4892,4.5427,4.6125,4.2893,4.0814,3.9223,3.4985,3.333,3.3053,3.1154,3.068,3.0798,2.9938,0.0,0.0,0.0,0.0,0.0,0.0,0.0,0.0,0.0,0.0,0.0,0.0,0.0,0.0,0.0,0.0,0.0,0.0,0.0,0.0,0.0,0.0,0.0,0.0,3.7345,3.9964,4.1511,4.3248,4.5042,4.6906,4.7683,4.8094,4.821,4.8229,4.8452,4.9045,4.9433,4.9545,4.9307,4.9621,4.9437,4.8642,4.8605,4.8605,4.8605,4.8605,4.8605,4.8605,4.8236,4.7369,4.6077,4.5762,4.4895,4.3714,4.4064,4.4194,4.4231,4.4581,4.4507,4.4208,0.0,0.0,0.0,0.0,4.3006,4.1905,0.0,0.0,0.0,0.0,0.0,0.0,0.0,2.1024,2.0879,1.9279,2.1509,2.3601,2.458,2.7257,2.9282,3.0076,2.851,2.7112,2.6184,2.525,2.5727,2.7959,2.9599,3.1478,3.3609,3.437,3.5825,3.8024,3.8024,3.8819,4.0367,4.1018,4.1762,4.2574,4.325,4.415,4.5214,4.5276,4.5925,4.6837,4.6096,4.5227,4.3834,3.8704,3.7061,3.7176,3.5028,3.3372,3.2187,3.2274,0.0,0.0,0.0,0.0,0.0,0.0,0.0,0.0,0.0,0.0,0.0,0.0,0.0,0.0,0.0,0.0,0.0,0.0,0.0,0.0,0.0,0.0,0.0,0.0,4.062,4.2828,4.5085,4.5752,4.632,4.7263,4.7379,4.7467,4.772,4.7669,4.7723,4.7955,4.8689,4.8921,4.8476,4.9121,0.0,0.0,0.0,4.8403,4.8219,4.8403,4.844,4.8348,4.7684,4.6911,4.6118,4.5418,4.4644,4.3925,4.4533,4.4865,4.4994,4.5621,4.5456,4.4736,4.3992,4.3695,4.3603,4.2899,4.2065,4.1209,0.0,0.0,0.0,0.0,0.0,0.0,0.0,2.1226,2.0616,1.9057,2.0855,2.2248,2.2203,2.4667,2.6406,2.6568,2.6006,2.5657,2.5718,2.6064,2.7283,2.9548,3.1664,3.3503,3.5143,3.5943,3.7168,3.8785,3.8785,3.9851,4.1863,4.2016,4.2811,4.4175,4.431,4.4501,4.4759,4.5152,4.5433,4.5621,4.5231,4.4814,4.4144,4.1756,4.0134,3.8913,3.7192,3.6741,3.6877,3.627,3.5984,3.5615,3.3899,3.1679,0.0,0.0,0.0,0.0,0.0,0.0,0.0,0.0,0.0,0.0,0.0,0.0,0.0,0.0,0.0,0.0,0.0,0.0,0.0,4.1336,4.2808,4.4371,4.6925,4.7157,4.7241,4.7666,4.7855,4.7977,4.8023,4.7491,4.716,4.7209,4.7353,4.7481,4.756,4.7687,4.75,4.6923,4.7541,4.725,4.596,4.7232,4.7541,4.6904,4.7395,0.0,4.6432,4.6268,4.5759,4.4959,4.4468,4.4614,4.5177,4.4686,4.4395,4.4216,4.3859,4.3695,4.3677,4.3529,4.2548,4.1271,0.0,0.0,0.0,0.0,0.0,0.0,0.0,2.0868,2.0081,1.8818,2.0142,2.1132,2.0963,2.2743,2.3802,2.3437,2.3238,2.3818,2.5393,2.6607,2.8566,3.1513,3.3128,3.4472,3.5583,3.6383,3.7354,3.8447,3.8819,3.9935,4.1762,4.2117,4.2912,4.4012,4.4429,4.4615,4.4626,4.4852,4.5089,4.5294,4.5155,4.4706,4.3987,4.2828,4.1142,3.9369,3.9247,3.8634,3.7932,3.8174,3.8003,3.7433,3.5842,3.4035,3.1968,0.0,0.0,0.0,0.0,0.0,0.0,0.0,0.0,0.0,0.0,0.0,0.0,0.0,0.0,3.4552,3.6703,0.0,4.1222,4.3277,4.4886,4.6109,4.6807,4.7444,4.7792,4.7657,4.7631,4.7558,4.7449,4.6955,4.6649,4.6649,4.687,4.6939,4.6817,4.6641,4.6332,4.5855,4.6424,4.619,4.5021,4.6547,4.6942,4.6172,4.7068,4.7078,4.6302,4.6424,4.6069,4.5291,4.5291,4.5291,4.5236,4.4421,4.4095,4.4044,4.3524,4.3065,4.2645,4.226,4.1363,4.0301,0.0,0.0,0.0,0.0,0.0,0.0,0.0,1.9838,1.9137,1.8307,1.907,1.9698,1.9812,2.0777,2.1245,2.0784,2.1116,2.2498,2.5245,2.7045,2.9557,3.3026,3.4165,3.4969,3.5577,3.6383,3.7144,3.7905,3.8633,3.9749,4.1221,4.1813,4.2557,4.3426,4.4079,4.4462,4.4615,4.4615,4.4814,4.5161,4.5161,4.4509,4.3445,4.2748,4.1218,3.9529,4.017,3.8933,3.7184,3.851,3.8418,3.7571,3.6565,3.5576,3.4042,3.0174,2.8621,0.0,0.0,0.0,0.0,0.0,0.0,0.0,0.0,3.2176,3.2797,3.4977,3.6351,3.797,4.0569,4.2602,4.4084,4.4732,4.6306,4.7176,4.6419,4.7454,4.8019,4.7273,4.7126,4.7004,4.6707,4.6279,4.6024,4.6024,4.637,4.6459,4.6123,4.5705,4.5368,4.507,4.5255,4.5054,4.4427,4.5836,4.6209,4.5569,4.6534,4.6655,4.6029,4.6327,4.6071,4.5414,4.6206,4.6086,4.5332,4.4617,4.4331,4.424,4.3262,4.2502,4.185,4.1216,4.0492,3.9731,0.0,0.0,0.0,0.0,0.0,0.0,0.0,0.0,1.73,1.7184,1.7085,1.7221,1.7686,1.8073,1.8538,1.9096,2.079,2.2874,2.5329,2.7497,2.9998,3.2986,3.4572,3.543,3.5514,3.6354,3.7144,3.7905,3.8633,3.9749,4.1204,4.1288,4.2083,4.3392,4.3477,4.3927,4.4615,4.4615,4.4626,4.4665,4.4665,4.3776,4.2387,4.1665,4.0916,4.0035,3.8203,3.6495,3.533,3.6852,3.6818,3.6358,3.75,3.6807,3.4833,3.099,2.8338,2.662,2.6482,2.7745,2.9754,3.2406,3.2295,3.3157,0.0,3.908,3.8025,4.0075,4.0965,4.1747,4.2788,4.3441,4.4379,4.6152,4.6305,4.6488,4.7305,4.7925,4.7742,4.6157,4.6709,4.6918,4.6234,4.549,4.5054,4.5054,4.5108,4.5214,4.5407,4.4758,4.4426,4.4575,4.4034,4.3657,4.345,4.4401,4.4785,4.4666,4.5484,4.584,4.5753,4.6145,4.6086,4.5705,4.6389,4.6297,4.5622,4.531,4.5164,4.5001,4.348,4.2865,4.2737,4.2647,4.2122,4.1325,0.0,0.0,0.0,0.0,0.0,0.0,0.0,0.0,0.0,1.6148,1.6438,1.6668,1.67,1.7218,1.7636,1.7773,2.0054,2.2352,2.4381,2.7265,3.0026,3.253,3.414,3.4857,3.4634,3.5764,3.6489,3.6783,3.7543,3.8816,4.0552,4.0561,4.1339,4.2777,4.3189,4.3606,4.3927,4.4412,4.4615,4.4564,4.4079,4.2997,4.1491,3.9901,3.8052,3.6249,3.5546,3.4322,0.0,3.4111,3.4182,3.4129,3.5642,3.5024,3.3143,3.0127,2.9136,2.9125,2.9594,3.0603,3.1986,3.3935,3.5405,3.7111,3.9931,4.0078,4.0134,4.1877,4.2691,4.3314,4.4087,4.4727,4.5309,4.5857,4.6503,4.6988,4.7154,4.7362,4.6896,4.5346,4.5501,4.5454,4.4716,4.381,4.3451,4.3891,4.4126,4.4029,4.3469,4.3767,4.3665,4.3073,4.3039,4.2986,4.2893,4.3321,4.3725,4.4096,4.4595,4.5052,4.5485,4.58,4.585,4.5681,4.5502,4.5016,4.4319,4.3811,4.3358,4.2942,4.2609,4.2498,4.2464,4.2263,4.1976,4.1578,0.0,0.0,0.0,0.0,0.0,0.0,0.0,0.0,0.0,0.0,1.5876,1.6378,1.65,1.6916,1.713,1.7018,1.8973,2.1064,2.3095,2.5989,2.8755,3.1236,3.2934,3.3738,3.3629,3.5029,3.5671,3.5481,3.624,3.7235,3.848,3.8665,3.9512,4.0946,4.1863,4.2456,4.2834,4.3623,4.3972,4.3904,4.3115,4.1796,4.0054,3.7821,3.5115,3.25,3.2584,3.1517,3.0179,3.0714,3.0712,3.0801,3.2527,3.2265,3.0959,2.921,2.9643,3.0767,3.1157,3.2383,3.3975,3.563,3.8179,4.0324,4.0552,4.1224,4.2073,4.3082,4.3634,4.4106,4.4633,4.5038,4.5211,4.4997,4.6089,4.6791,4.6248,4.6397,4.5963,4.4291,4.391,4.3578,4.3035,4.2534,4.2428,4.2981,4.3084,4.2784,4.1953,4.2696,4.273,4.1864,4.1977,4.2136,4.2252,4.2189,4.247,4.3145,4.3326,4.3704,4.4234,4.4652,4.5017,4.5347,4.4569,4.3963,4.345,4.2694,4.2056,4.1618,4.2078,4.2147,4.1958,4.1964,4.1967,4.1868,0.0,0.0,0.0,0.0,0.0,0.0,0.0,0.0,0.0,0.0,0.0,0.0,0.0,1.6888,1.6725,1.698,1.7436,1.886,2.1577,2.3316,2.5641,2.8781,3.0771,3.2064,3.2632,3.4341,3.4883,3.4177,3.4966,3.5008,3.4406,3.5114,3.6129,3.7428,3.8816,4.0103,4.1322,4.2049,4.2354,4.2303,4.1559,3.9952,3.7753,3.547,3.2763,3.0108,2.9417,2.7707,2.5895,2.6623,2.637,2.6101,2.8294,2.8897,2.879,2.872,2.9389,3.0055,2.9761,3.2161,3.5389,3.8036,4.0069,4.1835,4.3312,4.4243,4.4681,4.4322,4.4271,4.4305,4.4321,4.3684,4.3342,4.3785,4.4684,4.511,4.4389,4.5181,4.5019,4.282,4.1926,4.148,4.1475,4.2088,4.2502,4.2518,4.1884,4.147,4.1409,4.1453,4.147,4.1409,4.0818,4.0785,4.1437,4.0801,4.0818,4.147,4.147,4.1515,4.1548,4.2278,4.332,4.4507,4.3909,4.3685,4.3716,4.2694,4.2288,4.2271,4.2364,4.1973,4.1436,4.2261,4.27,4.2647,0.0,0.0,0.0,0.0,0.0,0.0,0.0,0.0,0.0,0.0,0.0,0.0,0.0,0.0,0.0,0.0,1.7037,1.8353,1.9491,2.1672,2.3626,2.5203,2.7743,2.9297,2.9675,3.0672,3.1302,3.1526,3.1342,3.1563,3.2148,3.2409,3.323,3.4594,3.5547,3.6724,3.8051,3.8653,3.9183,3.9441,3.8048,3.6755,3.5351,3.2628,3.0023,2.7655,0.0,2.5295,2.4736,2.4261,2.3995,2.4059,2.5297,2.5297,2.5246,2.7193,2.8472,2.9807,3.2398,3.5411,3.8212,4.0077,4.1733,4.3153,4.4181,4.4214,4.3722,4.261,4.1999,4.1355,4.0194,4.0115,4.0557,4.1524,4.2747,4.3829,4.448,4.467,4.3947,4.1819,4.2318,4.2118,4.0242,4.0267,4.0763,4.1678,4.1529,4.121,4.0746,4.1624,4.1922,4.1425,4.0746,4.0713,4.138,4.0233,4.0233,4.1409,4.1409,4.1409,4.1397,4.1674,4.2036,4.2434,4.2239,4.191,4.1506,4.1251,4.1179,4.1163,4.1192,4.1643,4.2255,4.1985,4.2538,4.3204,0.0,0.0,0.0,0.0,0.0,0.0,0.0,0.0,0.0,0.0,0.0,0.0,0.0,0.0,0.0,0.0,0.0,1.7042,1.7399,1.9025,2.0591,2.1981,2.4135,2.5651,2.6276,2.7007,2.7471,2.7659,2.7494,2.7721,2.8303,2.88,2.9488,3.036,3.1598,3.2834,3.4036,3.4631,3.5195,3.5556,3.3903,3.2476,3.1055,2.8636,2.6556,0.0,2.3206,2.2878,2.3074,2.2406,2.2227,2.2374,2.3096,2.3814,2.4769,2.6864,2.8656,3.0835,3.4936,3.7649,3.9834,4.2006,4.3254,4.4125,4.4572,4.3926,4.2704,4.1011,3.9957,3.8864,3.7216,3.6922,3.7413,3.8985,4.0073,4.1244,4.2699,4.2767,4.2302,4.1247,4.1833,4.1719,4.0277,3.9631,3.9691,4.0603,4.0668,4.0375,3.972,4.0994,4.1303,4.0371,4.0359,4.0375,4.0339,3.9442,3.9425,4.0306,4.0519,4.0796,4.1044,4.1044,4.1177,4.1409,4.116,4.0796,4.0393,4.0209,4.0136,4.0184,4.0459,4.1053,4.1657,4.1416,4.178,4.2267,0.0,0.0,0.0,0.0,0.0,0.0,0.0,0.0,0.0,0.0,0.0,0.0,0.0,0.0,0.0,0.0,0.0,0.0,1.5446,1.5701,1.6879,1.9151,2.0246,2.1417,2.2717,2.3492,2.36,2.3005,2.3652,2.3657,2.307,2.4409,2.4973,2.498,2.7041,2.847,2.9426,3.0042,3.052,3.0709,2.9259,2.7367,2.529,2.3819,2.2647,2.1639,2.0558,2.0508,2.0991,2.1135,2.1167,2.1259,2.1892,2.4369,2.7176,2.783,3.0026,3.3096,3.7086,3.8829,4.0363,4.3735,4.4606,4.4629,4.4547,4.3357,4.1638,3.9499,3.8033,3.6694,3.5191,3.406,3.4099,3.6267,3.698,3.7778,3.9331,3.9843,4.0308,4.0966,4.0482,4.0423,4.1213,4.0099,3.9345,3.9377,3.9346,3.9062,3.8525,3.9708,3.9819,3.8525,3.9661,3.9708,3.8446,3.8399,3.838,3.8322,3.8925,3.9636,4.0343,4.0343,4.068,4.1276,4.0613,4.0343,4.0293,3.9597,3.9315,3.9458,4.0224,4.0241,3.9888,4.0666,4.0627,4.0221,0.0,0.0,0.0,0.0,0.0,0.0,0.0,0.0,0.0,0.0,0.0,0.0,0.0,0.0,0.0,0.0,0.0,0.0,1.5012,1.5902,1.6743,1.7362,1.8691,1.9796,2.0642,2.0919,2.1234,2.1618,2.1252,2.0978,2.084,2.128,2.1747,2.2217,2.2807,2.3775,2.4918,2.4954,2.5303,2.5735,2.4674,2.3869,2.3191,2.1739,2.132,2.135,2.0301,2.021,2.0788,2.179,2.3171,2.4508,2.4681,2.6156,2.8206,3.0205,3.294,3.5868,3.8278,4.1034,4.3357,4.374,4.3878,4.3597,4.2639,4.0567,3.8235,3.6071,3.3822,3.1662,2.9959,3.0942,3.2455,3.3775,3.6075,3.8384,4.0274,4.0835,4.09,4.0531,4.1051,4.1075,4.0205,3.9894,3.9581,3.9194,3.9315,3.9519,3.9866,4.0213,4.0245,3.9897,3.9251,3.8967,3.9078,3.862,3.838,3.8306,3.8463,3.8914,3.958,3.958,3.968,3.9846,3.9663,3.958,3.9564,3.9381,3.963,4.0094,3.9864,4.0344,4.1109,4.0428,4.0785,4.1437,0.0,0.0,0.0,0.0,0.0,0.0,0.0,0.0,0.0,0.0,0.0,0.0,0.0,0.0,0.0,0.0,0.0,0.0,0.0,1.4616,1.5247,1.5845,1.6668,1.7343,1.7873,1.8052,1.8097,1.7941,1.84,1.8437,1.8054,1.8855,1.9305,1.9414,1.974,2.0431,2.1307,2.1157,2.142,0.0,0.0,2.042,2.0047,1.9221,1.9254,1.9658,1.9006,1.9965,2.1707,2.2989,2.46,2.6244,2.7125,2.8636,3.0546,3.311,3.5293,3.7427,3.9929,4.2317,4.4023,4.3669,4.3132,4.2303,4.069,3.7973,3.504,3.2294,3.0085,2.8112,2.6419,2.7418,2.9062,3.0893,3.3276,3.5749,3.8167,3.937,4.0098,4.0366,4.0905,4.1001,4.0258,3.9735,3.9277,3.898,3.9137,3.9339,3.9516,3.9791,3.9822,3.9532,3.9082,3.8849,3.8879,3.8555,3.8215,3.7902,3.7908,3.8096,3.8467,3.8467,3.8467,3.8495,3.8761,3.8871,3.8871,3.9175,3.9547,3.9879,3.9545,3.9947,4.0644,3.9969,4.0292,4.0959,0.0,0.0,0.0,0.0,0.0,0.0,0.0,0.0,0.0,0.0,0.0,0.0,0.0,0.0,0.0,0.0,0.0,0.0,0.0,0.0,1.373,1.4886,1.489,1.5017,1.5359,1.561,1.5198,1.4155,1.5906,1.6338,1.5565,1.7045,1.7441,1.6968,1.7563,1.8052,1.8407,1.8363,1.8508,1.873,1.81,1.7448,1.6879,0.0,1.717,1.7554,1.7655,1.9725,2.2661,2.432,2.5944,2.759,2.9517,3.145,3.3544,3.6118,3.7315,3.8467,4.1572,4.2925,4.3416,4.3269,4.2268,4.0746,3.8619,3.5391,3.1905,2.8614,2.6767,2.536,2.4097,2.431,2.5571,2.8393,3.0162,3.2217,3.5223,3.7041,3.867,4.0276,4.0364,4.0412,4.068,3.9488,3.8789,3.8878,3.8966,3.8888,3.8521,3.9005,3.8931,3.8167,3.8796,3.8781,3.8018,3.8105,3.7855,3.7275,3.7278,3.731,3.7399,3.7399,3.7399,3.7429,3.7937,3.8165,3.8222,3.8898,3.9175,3.9175,3.9272,3.9379,3.9475,3.9501,3.9563,3.9677,0.0,0.0,0.0,0.0,0.0,0.0,0.0,0.0,0.0,0.0,1.5177,1.4612,0.0,0.0,0.0,0.0,0.0,0.0,0.0,0.0,0.0,1.5619,1.5359,1.5374,1.5712,1.5492,1.5404,1.5475,1.5815,1.5903,1.5755,1.6111,1.62,1.6109,1.6301,1.6403,1.6473,1.6459,1.6502,1.6542,1.6476,1.6368,1.626,1.626,0.0,0.0,1.8389,1.9427,2.0922,2.4904,2.8218,3.0898,3.2362,3.4188,3.6207,3.8302,3.9364,4.0247,4.1946,4.2863,4.3091,4.2032,4.0773,3.8992,3.5908,3.2228,0.0,2.6546,2.4092,2.2402,2.2589,2.3894,2.576,2.8328,3.0235,3.2736,3.6446,3.7259,3.8115,0.0,3.9707,3.9644,4.0178,3.9072,3.8608,3.9337,3.8898,3.8716,3.8977,3.874,3.8033,3.6851,3.7434,3.7195,3.6013,3.655,3.6743,3.6568,3.6569,3.686,3.7399,3.7399,3.7399,3.7399,3.7517,3.7576,3.7589,3.8238,3.8463,3.8535,3.9077,3.9299,3.9352,3.9475,3.9511,3.9537,0.0,0.0,0.0,0.0,0.0,0.0,0.0,1.7018,1.6955,1.6828,1.5587,1.4839,1.5162,1.4901,1.444,0.0,0.0,0.0,0.0,0.0,0.0,0.0,0.0,0.0,1.4819,1.5169,1.5095,0.0,0.0,1.5388,1.5133,1.5662,1.5927,1.6012,1.6039,1.6067,1.6095,1.6095,1.6095,1.6109,1.6137,1.6153,0.0,0.0,0.0,0.0,0.0,1.8433,1.9922,2.3127,2.6212,2.9356,3.2914,3.5609,3.759,3.8087,3.9172,4.0424,4.146,4.2158,4.2309,4.1037,3.9062,3.6384,3.238,0.0,0.0,2.3216,2.1774,2.1006,2.1276,2.2732,2.4519,2.6373,2.8013,3.0524,3.4719,3.559,3.6751,3.9334,3.9378,3.9305,3.9596,3.8768,3.837,3.8789,3.8616,3.848,3.8485,3.8011,3.7545,3.6985,3.7255,3.712,3.6507,3.6492,3.6478,3.6457,3.6108,3.6116,3.6414,3.6768,3.6937,3.6984,3.7623,3.7732,3.7482,3.8437,3.8642,3.8398,3.8705,3.9036,3.9257,3.8975,3.9104,3.9422,0.0,0.0,0.0,0.0,0.0,0.0,0.0,1.6769,1.6917,1.6917,1.5794,1.4993,1.4993,1.4993,1.4655,0.0,0.0,0.0,0.0,0.0,0.0,0.0,0.0,0.0,0.0,0.0,0.0,0.0,0.0,0.0,0.0,0.0,0.0,0.0,0.0,1.6097,1.6139,1.5999,1.603,0.0,0.0,1.5945,0.0,0.0,0.0,0.0,0.0,1.7185,1.8718,2.0941,2.3267,2.6033,3.0837,3.4468,3.6896,3.6365,3.7601,3.9312,4.0339,4.092,4.0994,3.9895,3.7272,3.3801,2.9497,2.5891,2.2809,2.0451,2.0002,2.0118,2.0264,2.1496,2.301,2.4591,2.5715,2.7975,3.244,3.3603,3.5146,3.8231,3.8659,0.0,3.8702,3.8059,3.763,3.763,3.7552,3.7578,3.7691,3.7218,3.6911,3.6933,3.6933,3.6967,3.7,3.6522,3.6282,3.6267,3.5744,3.5504,3.5534,3.6193,3.6492,3.6555,3.7691,3.78,3.7299,3.8433,3.8544,3.7979,3.8132,3.8478,3.8827,3.8289,3.8451,3.8914,0.0,0.0,0.0,0.0,0.0,0.0,0.0,1.6392,1.6649,1.6649,1.5274,1.4298,1.4298,1.4298,1.3775,0.0,0.0,0.0,0.0,0.0,0.0,0.0,0.0,0.0,0.0,0.0,0.0,0.0,0.0,0.0,0.0,0.0,0.0,0.0,0.0,0.0,0.0,1.5334,0.0,0.0,0.0,0.0,0.0,0.0,0.0,0.0,0.0,1.6021,1.6579,1.9672,0.0,2.2338,2.4601,2.8584,3.2487,3.2963,0.0,0.0,3.8571,3.8943,3.8694,3.8209,3.5402,3.1919,2.8642,0.0,2.188,1.9886,1.9191,1.9154,1.9816,2.0613,2.2011,2.4581,2.5017,2.6619,3.1056,3.2262,3.3628,3.6258,0.0,0.0,3.7099,3.6348,3.5855,3.5855,3.4886,3.5088,3.6893,3.6384,3.5817,3.5421,3.5391,3.5505,3.5684,3.5624,3.5594,3.5594,3.5534,3.5504,3.5534,3.6193,3.6492,3.6522,3.7203,3.7162,3.6643,3.7298,3.7186,3.6647,3.7255,3.7524,3.7583,3.7504,3.7517,3.7576,0.0,0.0,0.0,0.0,0.0,0.0,1.5238,1.5375,1.5541,1.5943,1.495,1.4052,1.3636,1.359,1.3375,1.2847,0.0,0.0,0.0,0.0,0.0,0.0,0.0,0.0,0.0,0.0,0.0,1.3853,0.0,0.0,0.0,0.0,0.0,0.0,0.0,0.0,0.0,0.0,0.0,0.0,0.0,0.0,0.0,0.0,0.0,0.0,0.0,0.0,1.5572,1.6862,1.7807,0.0,1.9333,2.1882,2.5257,0.0,3.1475,3.3902,3.5937,3.7098,3.7523,3.6821,3.3979,3.0444,2.6935,0.0,2.0648,1.8797,1.8399,1.847,1.8761,1.9551,2.0637,2.2118,2.2269,2.3725,2.8182,2.8351,2.9515,3.3416,3.4029,3.4389,0.0,3.5118,3.5125,3.5125,3.4339,3.4108,3.4548,3.4023,3.3684,3.363,3.365,3.3939,3.4576,3.461,3.4905,3.5504,3.5504,3.5714,3.6103,3.6372,3.6686,3.706,3.73,3.706,3.6555,3.7153,3.7026,3.6483,3.6743,3.7077,3.7344,3.697,3.7041,3.7399,0.0,0.0,0.0,0.0,0.0,1.3855,1.4335,1.4445,1.4644,1.5119,1.4435,1.3713,1.3263,1.295,1.2816,1.2897,1.2908,0.0,0.0,0.0,0.0,0.0,0.0,0.0,0.0,0.0,1.2909,1.3154,1.3628,1.3943,0.0,0.0,0.0,0.0,0.0,0.0,0.0,0.0,0.0,0.0,0.0,0.0,0.0,0.0,0.0,0.0,0.0,0.0,0.0,0.0,0.0,1.5892,1.6075,1.7356,1.9685,2.4264,2.7814,3.0628,3.2431,3.4032,3.5047,3.4204,3.1474,2.8123,0.0,0.0,1.9333,1.79,1.7774,1.7922,1.797,1.8857,1.984,2.0509,2.0684,2.2022,2.5913,2.585,2.6901,3.0999,0.0,3.2131,3.3282,3.3778,3.402,3.402,3.3515,3.2971,3.2533,3.1926,3.1865,3.25,3.25,3.289,3.3671,3.3671,3.4075,3.482,3.5226,3.5596,3.5878,3.6675,3.709,3.7165,3.7749,3.7419,3.6537,3.715,3.6926,3.6193,3.6193,3.6459,3.6789,3.6316,3.643,3.6845,0.0,0.0,0.0,0.0,0.0,0.0,1.3217,1.3786,1.4206,1.4206,1.3621,1.3205,1.3201,1.2364,1.1917,1.219,1.22,0.0,0.0,0.0,0.0,0.0,0.0,0.0,0.0,0.0,1.231,1.3297,1.2636,1.2931,1.4084,1.3496,0.0,0.0,0.0,0.0,0.0,0.0,0.0,0.0,0.0,0.0,0.0,0.0,0.0,0.0,0.0,0.0,0.0,0.0,0.0,0.0,0.0,1.595,1.701,1.9926,2.3407,2.662,2.7851,2.9367,3.0531,2.9999,2.7462,2.4616,2.2847,2.0203,1.7944,1.7316,1.7372,1.7557,1.7694,1.8751,1.984,2.0586,2.108,2.226,2.4776,2.5687,2.6956,0.0,2.9987,3.0687,3.1794,3.212,3.2215,3.2215,3.1741,3.1427,3.1427,3.0409,3.0608,3.2249,3.2321,3.25,3.2925,3.2925,3.301,3.3227,3.464,3.4956,3.4419,3.7139,3.7689,3.6611,3.8556,3.8287,3.6537,3.715,3.6656,3.5519,3.5519,3.5504,3.5519,3.5504,3.5504,3.5537,0.0,0.0,0.0,0.0,0.0,0.0,0.0,1.2985,1.3001,1.3452,1.2939,1.2523,1.2523,1.2091,1.1837,1.1912,1.1938,0.0,0.0,0.0,0.0,0.0,0.0,0.0,0.0,0.0,1.2094,1.2006,1.3069,1.3347,1.2888,1.313,1.3143,1.2899,0.0,0.0,0.0,0.0,0.0,0.0,0.0,0.0,0.0,0.0,0.0,0.0,0.0,0.0,0.0,0.0,0.0,0.0,0.0,0.0,0.0,1.6553,1.9554,2.3058,2.474,2.6039,2.6768,2.6446,2.4732,2.2761,2.1524,1.9614,1.7909,1.7203,1.7073,1.7075,1.7033,1.7606,1.8418,1.9379,1.9965,2.0986,0.0,0.0,0.0,2.7201,2.8933,3.0203,3.0941,3.1069,3.1122,3.1122,3.0959,3.0696,3.0319,2.998,3.0037,3.0558,3.0608,3.0945,3.1742,3.1878,3.2313,3.301,3.3571,3.4214,3.4867,3.5828,3.6309,3.6333,3.7074,3.6806,3.5833,3.6028,3.5863,3.5504,3.5504,3.5504,3.5504,3.5504,3.5504,3.5504,0.0,0.0,0.0,0.0,0.0,0.0,0.0,1.2462,1.2354,1.277,1.2372,1.2044,1.2044,1.174,1.156,1.1648,1.1582,0.0,0.0,0.0,0.0,0.0,0.0,0.0,0.0,1.189,1.1834,1.1823,1.2753,1.3149,1.3051,1.3022,1.2782,1.2374,1.2225,1.1844,0.0,0.0,0.0,0.0,0.0,0.0,1.2863,0.0,0.0,0.0,0.0,0.0,0.0,0.0,0.0,0.0,0.0,0.0,0.0,0.0,1.6439,1.8844,2.0609,2.2103,2.2995,2.2416,2.1482,0.0,1.9636,1.8585,1.7613,1.7122,1.6939,1.6867,1.6718,1.7241,1.7915,1.8581,1.951,2.0564,2.182,0.0,0.0,2.6537,2.8373,2.9603,2.9942,3.0369,3.062,3.062,3.062,3.047,3.0118,2.9905,2.9792,2.9792,2.9792,3.0101,3.0771,3.0897,3.1281,3.1938,3.2617,3.3197,3.3758,3.4724,3.5211,3.5332,3.5805,3.5605,0.0,3.5322,3.5274,3.51,3.5392,3.5504,3.5504,3.5504,3.5504,3.5504,0.0,0.0,0.0,0.0,0.0,0.0,0.0,1.2174,1.2164,1.2164,1.1949,1.1768,1.1768,1.1373,1.1178,1.1367,0.0,0.0,0.0,0.0,0.0,0.0,0.0,0.0,1.1108,1.1139,1.1595,1.2455,1.2007,1.2645,1.4273,1.3146,1.2603,1.2535,1.1899,1.14,1.1062,1.1062,1.1253,1.1532,1.1532,1.2127,0.0,0.0,0.0,0.0,0.0,0.0,0.0,0.0,0.0,0.0,0.0,0.0,0.0,0.0,0.0,0.0,0.0,1.782,1.9274,1.8178,1.7946,1.7879,1.7388,1.7178,0.0,1.6926,1.6876,1.6837,1.6777,1.7521,1.8191,1.8355,1.9723,2.0943,2.1468,2.3062,0.0,0.0,2.831,2.8938,2.8888,2.9917,3.0557,3.0557,3.0557,3.0557,3.0557,3.0068,2.9792,2.9792,2.9792,2.9908,3.0075,3.0075,3.019,3.0406,3.1736,3.2062,3.1535,3.3729,3.4381,3.377,3.4694,3.4719,3.4106,3.4836,3.4766,3.4312,3.51,3.5392,3.5424,3.5472,3.5504,3.5504,0.0,0.0,0.0,0.0,0.0,0.0,0.0,0.0,0.0,0.0,1.1659,1.149,1.149,1.1256,1.112,0.0,0.0,0.0,0.0,0.0,0.0,0.0,0.0,0.0,1.1097,1.1549,1.1904,1.2121,1.3155,1.388,1.4287,1.4015,1.362,1.3146,1.2075,1.1299,1.0789,1.0789,1.0835,1.091,1.091,1.1575,0.0,0.0,0.0,0.0,1.3821,1.3594,0.0,0.0,0.0,0.0,0.0,0.0,0.0,0.0,1.3356,1.4031,1.332,0.0,1.5855,1.5927,1.6006,1.6057,0.0,1.6071,1.6095,1.5954,1.6154,1.6578,1.7257,1.7503,1.8152,1.9837,2.0792,2.1493,2.2046,2.4293,0.0,2.7745,2.89,2.9415,2.8938,2.9566,2.9993,2.9993,2.9993,2.9993,2.9993,2.9867,2.9792,2.9792,2.9792,2.983,2.9869,3.0011,3.0113,3.019,3.0649,3.1047,3.1306,3.2537,3.3043,3.301,3.3859,3.3892,3.3438,3.3614,3.3585,3.3526,3.4293,3.4576,3.4643,3.5279,3.5504,3.5504,0.0,0.0,0.0,0.0,0.0,0.0,0.0,0.0,0.0,0.0,0.0,1.1267,1.1267,1.1062,0.0,0.0,0.0,0.0,0.0,0.0,0.0,0.0,0.0,1.1038,1.092,1.1515,1.1946,1.2183,1.3012,1.3844,1.4641,1.4103,1.3835,1.3757,1.2251,1.1261,1.0693,1.0693,1.0855,1.1099,1.1074,0.0,0.0,0.0,0.0,0.0,1.319,1.3149,0.0,1.2801,1.2538,1.2336,0.0,0.0,0.0,0.0,1.2516,1.2886,1.2761,1.3345,1.4026,1.4004,1.4381,1.475,1.4761,1.5267,1.5666,1.5534,0.0,1.6042,1.6741,1.6967,1.7629,1.9444,2.023,2.1126,0.0,0.0,2.6032,2.7779,2.8508,2.902,2.9289,2.9616,2.9792,2.9792,2.9792,2.9792,2.9792,2.9792,2.9792,2.9792,2.9792,2.9792,2.9792,2.9895,2.9972,2.9972,3.0075,3.0278,3.0571,3.115,3.1625,3.2027,3.2302,3.2475,3.2554,3.2665,3.2684,3.2755,3.3526,3.3802,3.3837,3.4274,3.4673,3.4938,0.0,0.0,0.0,0.0,0.0,0.0,0.0,0.0,0.0,0.0,0.0,0.0,0.0,0.0,0.0,0.0,0.0,0.0,0.0,0.0,0.0,0.0,1.1027,1.0976,1.084,1.133,1.1899,1.2543,1.2703,1.3601,1.5175,1.417,1.3814,1.3947,1.2211,1.1167,1.0668,1.0668,1.0966,1.1439,1.1374,0.0,0.0,0.0,0.0,0.0,0.0,0.0,0.0,1.23,1.2059,1.1961,1.1604,0.0,0.0,0.0,0.0,0.0,1.3044,1.3354,1.3211,1.2805,1.3336,1.3939,1.3828,1.4607,1.5332,0.0,0.0,0.0,0.0,1.6453,0.0,0.0,0.0,0.0,2.3501,2.412,2.5115,2.7334,2.7651,2.8101,2.9178,2.9328,2.9378,2.9378,2.9378,2.9378,2.9378,2.9534,2.9585,2.9585,2.9714,2.9792,2.9792,2.9792,2.9792,2.9792,2.9792,2.9792,2.9792,2.9972,3.0406,3.1008,3.0739,3.1046,3.1628,3.184,3.1942,3.2015,3.2755,3.3038,3.3038,3.3143,3.3596,3.4143,0.0,0.0,0.0,0.0,0.0,0.0,0.0,0.0,0.0,0.0,0.0,0.0,0.0,0.0,0.0,0.0,0.0,0.0,0.0,0.0,0.0,1.0753,1.0705,1.0924,1.1451,1.1441,1.2005,1.3162,1.4075,1.4923,1.5688,1.5555,1.454,1.2711,1.136,1.0702,1.0621,1.056,1.0575,1.0669,1.0656,0.0,0.0,0.0,0.0,0.0,0.0,0.0,0.0,1.215,1.187,1.1567,1.1522,0.0,0.0,0.0,0.0,0.0,1.2741,1.3097,1.3348,1.355,1.3723,1.3822,1.3788,1.4039,1.4244,0.0,0.0,0.0,0.0,1.705,1.8148,0.0,0.0,2.2809,0.0,0.0,2.557,2.6431,2.6932,2.71,2.686,2.7272,2.7516,2.7516,2.7516,2.7516,2.7516,2.8263,2.8712,2.8712,2.9417,2.9792,2.9792,2.9792,2.9792,2.9792,2.9792,2.9792,2.9792,2.983,2.9984,3.0279,3.0369,3.0623,3.089,3.1088,3.1161,3.1222,3.1978,3.2254,3.2326,3.2967,3.3283,3.3457,0.0,0.0,0.0,0.0,0.0,0.0,0.0,0.0,0.0,0.0,0.0,0.0,0.0,0.0,0.0,0.0,0.0,0.0,0.0,0.0,1.0693,1.0693,1.0904,1.1187,1.1534,1.1495,1.2003,1.3132,1.396,1.4504,1.4777,1.4573,1.361,1.1994,1.1399,1.0942,1.0609,1.0572,1.0535,1.0473,0.0,0.0,0.0,0.0,0.0,0.0,0.0,0.0,0.0,0.0,1.166,1.1504,1.1504,0.0,0.0,0.0,0.0,0.0,1.2179,1.2507,1.282,1.3288,1.3608,1.3773,1.3716,1.3797,1.4039,0.0,0.0,0.0,0.0,0.0,1.7962,1.9467,0.0,2.314,2.4118,2.423,2.4635,0.0,2.5916,2.6235,2.6674,2.6972,2.711,2.711,2.711,2.711,2.711,2.7516,2.7718,2.7718,2.8633,2.9091,2.9091,2.9585,2.9792,2.9792,2.9792,2.9792,2.9792,2.9792,2.9895,3.0113,3.019,3.0343,3.0533,3.0647,3.0761,3.0874,3.1222,3.1431,3.1603,3.234,3.2613,3.272,0.0,0.0,0.0,0.0,0.0,0.0,0.0,0.0,0.0,0.0,0.0,0.0,0.0,0.0,0.0,0.0,0.0,0.0,0.0,0.0,1.0842,1.0706,1.0961,1.1309,1.1697,1.1643,1.2066,1.301,1.3585,1.3878,1.3917,1.338,1.258,1.1587,1.1425,1.1012,1.0485,1.0523,1.0423,1.0249,0.0,0.0,0.0,0.0,0.0,0.0,0.0,0.0,0.0,0.0,0.0,0.0,0.0,0.0,0.0,1.126,1.1151,1.1143,1.1562,1.1852,1.2147,1.2708,0.0,1.3778,1.389,1.4098,1.4516,0.0,0.0,0.0,0.0,1.7004,0.0,1.9813,2.1735,2.2977,2.2842,2.3215,2.3907,2.4893,2.506,2.5437,2.6419,2.6494,2.6494,2.6494,2.6494,2.6494,2.6494,2.67,2.6823,2.6823,2.7678,2.8171,2.8171,2.8843,2.9378,2.9792,2.9792,2.9792,2.9792,2.9792,2.9869,3.0049,3.0075,3.019,3.033,3.0368,3.0482,3.0609,3.0698,3.0811,3.1048,3.1566,3.1809,3.1942,0.0,0.0,0.0,0.0,0.0,0.0,0.0,0.0,0.0,0.0,0.0,0.0,0.0,0.0,0.0,0.0,0.0,0.0,0.0,0.0,1.1288,1.072,1.0437,1.0926,1.2314,1.2085,1.2301,1.301,1.3536,1.3871,1.3977,1.3003,1.2229,1.1573,1.0879,1.0413,1.0148,1.0261,1.0034,0.9594,0.9816,0.0,0.0,0.0,0.0,0.0,0.0,0.0,0.0,0.0,0.0,0.0,0.0,0.0,1.0916,1.0783,1.0825,1.0934,1.105,1.1259,1.1553,1.1993,1.2861,1.3838,1.4707,1.5235,0.0,1.6676,0.0,0.0,0.0,1.7698,1.8878,2.0721,2.188,2.2832,2.366,0.0,2.4457,2.4531,2.4531,2.4584,2.47,2.47,2.47,2.47,2.47,2.47,2.47,2.5463,2.5902,2.5902,2.673,2.7191,2.7191,2.7273,2.8143,2.9792,2.9792,2.9792,2.9792,2.9792,2.9792,2.983,3.0011,3.0113,3.0152,3.033,3.0406,3.0444,3.0622,3.0811,3.0986,3.0836,3.0911,3.1161,0.0,0.0,0.0,0.0,0.0,0.0,0.0,0.0,0.0,0.0,0.0,0.0,0.0,0.0,0.0,0.0,0.0,0.0,0.0,1.0872,1.0837,1.0523,1.0599,1.0854,1.1334,1.0957,1.1214,1.2126,1.1787,1.2015,1.2724,1.1503,1.0911,1.085,1.0418,1.0084,0.979,0.9854,0.9725,0.9502,0.9421,0.9448,0.0,0.0,0.0,0.0,0.0,0.0,0.0,0.0,1.0555,1.074,1.0691,1.0697,1.063,1.0244,1.0155,1.0197,1.0447,1.0723,1.1063,1.1535,1.2117,0.0,0.0,1.4124,1.485,1.6425,1.6864,0.0,0.0,0.0,1.9599,2.0672,2.2031,2.3153,2.3795,2.4022,2.4022,2.3732,2.3701,2.3815,2.4105,2.3867,2.3929,2.4456,2.4022,2.3826,2.4115,2.4168,2.4164,2.4164,2.5026,2.5496,2.5496,2.6012,2.6776,2.7758,2.8594,2.9287,2.9792,2.9792,2.9792,2.9792,2.9869,2.9895,2.9934,3.0011,3.0113,3.0228,3.0444,3.0558,3.0634,3.0533,3.0558,3.0672,0.0,0.0,0.0,0.0,0.0,0.0,0.0,0.0,0.0,0.0,0.0,0.0,0.0,0.0,0.0,0.0,0.0,0.0,1.0587,1.0582,1.0469,1.0186,1.0309,1.036,1.0349,0.9935,1.0196,1.1186,1.0496,1.0615,1.1488,1.0591,1.0188,1.0187,1.0165,0.9998,0.969,0.9602,0.9506,0.9415,0.9179,0.9151,0.0,0.0,0.0,0.0,0.0,0.0,0.0,0.0,1.0071,1.0203,1.0158,1.0175,1.0108,0.9736,0.9626,0.9662,0.9756,1.012,1.0518,1.0846,0.0,0.0,1.2887,1.3702,1.4824,1.6836,1.7186,1.7234,1.7497,0.0,0.0,0.0,2.1663,2.2915,2.3381,2.3567,2.3546,2.3225,2.3184,2.3318,2.367,2.3381,2.3443,2.4022,2.3536,2.3329,2.365,2.336,2.3184,2.3184,2.3796,2.4104,2.4104,2.4686,2.5363,2.6098,2.7029,2.8148,2.9378,2.9378,2.9546,2.9792,2.9792,2.9792,2.9792,2.9792,2.9934,3.0113,3.0254,3.033,3.0406,3.033,3.0368,3.0406,0.0,0.0,0.0,0.0,0.0,0.0,0.0,0.0,0.0,0.0,0.0,0.0,0.0,0.0,0.0,0.0,0.0,0.0,1.0288,1.046,1.0332,0.9737,0.9393,0.9326,0.9595,0.9272,0.9489,1.0288,0.9954,0.9997,1.0385,1.0525,1.0267,0.9724,1.0126,1.0154,0.9887,0.9622,0.9426,0.9301,0.9159,0.8914,0.86,0.0,0.0,0.0,0.0,0.0,0.0,0.0,0.895,0.9364,0.9244,0.924,0.9288,0.9217,0.9326,0.9397,0.9006,0.9383,0.9898,0.0,0.0,0.0,1.2774,1.4448,1.6224,1.8162,1.8581,1.8444,1.7978,1.8332,0.0,1.9226,2.0703,2.1963,2.2418,2.2884,2.3163,2.3163,2.3163,2.3163,2.3174,2.3163,2.3174,2.3184,2.3184,2.3174,2.3174,2.3174,2.3163,2.3163,2.3163,2.3163,2.3163,2.3163,2.3868,2.519,2.515,2.6336,2.8502,2.8502,2.8961,2.9792,2.9792,2.9792,2.9792,2.9792,2.9934,3.0113,3.0113,3.0228,3.0368,3.019,3.0228,3.0368,0.0,0.0,0.0,0.0,0.0,0.0,0.0,0.0,0.0,0.0,0.0,0.0,0.0,0.0,0.0,0.0,0.0,0.0,1.0883,1.086,1.0765,1.0496,1.025,0.9953,0.9597,0.9043,0.8973,0.9452,0.9119,0.9188,0.9638,0.9905,1.0026,0.9992,1.0294,1.0297,1.0035,0.9952,0.9908,0.9856,0.9824,0.9513,0.9086,0.0,0.0,0.0,0.0,0.0,0.0,0.0,0.0,0.0,0.9001,0.9081,0.9036,0.8732,0.8692,0.8796,0.9164,0.9398,0.0,1.0486,0.0,0.0,0.0,1.3843,0.0,0.0,1.7696,1.7901,1.7169,1.7638,0.0,1.8488,1.9621,2.0597,2.1024,2.1022,2.0831,2.0512,2.0482,2.0721,2.139,2.1604,2.2128,2.3111,2.2584,2.2211,2.2211,2.2211,2.1921,2.1269,2.1559,2.1569,2.1248,2.1569,2.2105,2.2787,2.3124,2.4767,2.7516,2.7516,2.8011,2.8882,2.8882,2.9248,2.9792,2.9792,2.983,2.9908,2.9908,2.9934,2.9972,2.9895,2.9934,2.9972,0.0,0.0,0.0,0.0,0.0,0.0,0.0,0.0,0.0,0.0,0.0,0.0,0.0,0.0,0.0,0.0,0.0,0.0,0.0,1.0735,1.0609,1.0534,1.0403,1.0167,0.9815,0.9262,0.9166,0.9503,0.8899,0.8851,0.9304,0.9504,0.9786,1.0108,1.0053,1.0154,1.0349,0.995,0.9911,1.0102,1.0102,0.9666,0.9032,0.0,0.0,0.0,0.0,0.0,0.0,0.0,0.0,0.0,0.8689,0.8761,0.872,0.8475,0.8394,0.8513,0.9048,0.9295,0.0,1.0584,1.136,1.2351,1.387,0.0,0.0,0.0,1.7208,1.7279,1.6773,1.7164,0.0,1.7679,1.8557,1.9325,1.9564,1.942,1.9161,1.8902,1.8874,1.9084,1.963,2.0131,2.0731,2.159,2.1419,2.1259,2.1259,2.1259,2.0963,2.0405,2.0653,2.071,2.0385,2.0664,2.1166,2.1807,2.2087,2.3377,2.5558,2.5912,2.676,2.7959,2.8343,2.9,2.9792,2.9792,2.9792,2.9792,2.9792,2.9792,2.9792,2.9792,2.9792,2.9792,0.0,0.0,0.0,0.0,0.0,0.0,0.0,0.0,0.0,0.0,0.0,0.0,0.0,0.0,0.0,0.0,0.0,0.0,0.0,0.0,1.0234,1.0234,1.019,1.0174,1.0173,0.9807,0.9769,1.0075,0.9147,0.8919,0.9369,0.9382,0.9646,1.0097,0.9657,0.9956,1.0732,0.9793,0.9668,1.0092,1.0048,0.9467,0.8652,0.9081,0.0,0.0,0.0,0.0,0.0,0.0,0.0,0.0,0.8347,0.8394,0.8394,0.8394,0.8394,0.8481,0.8842,0.9167,0.0,1.0392,1.1667,0.0,1.476,1.5912,1.6746,1.7151,0.0,1.6705,1.6737,1.6839,1.6915,1.6915,1.7552,1.8046,1.8046,1.8018,1.799,1.799,1.799,1.8009,1.8046,1.8707,1.9163,1.9202,1.9873,2.0293,2.0262,2.0329,2.0354,2.0261,2.0302,2.0312,2.0261,2.0312,2.0783,2.1621,2.1662,2.2159,2.31,2.3982,2.5303,2.7,2.802,2.8873,2.9546,2.9663,2.9663,2.9663,2.9663,2.9714,2.9792,2.9792,2.9792,2.9792,0.0,0.0,0.0,0.0,0.0,0.0,0.0,0.0,0.0,0.0,0.0,0.0,0.0,0.0,0.0,0.0,0.0,0.0,0.0,0.0,1.1198,1.1198,1.0845,1.0697,1.0806,1.0005,0.9715,0.9944,0.9568,0.9574,0.9933,1.0048,1.0151,1.0274,1.0527,1.0639,1.0619,1.0295,1.0116,0.9987,0.9667,0.9201,0.8695,0.8798,0.8435,0.0,0.0,0.0,0.0,0.0,0.0,0.0,0.8214,0.8394,0.8394,0.8394,0.8394,0.8529,0.9128,0.9342,0.0,0.0,1.2536,1.395,1.4573,1.5348,1.6087,1.6722,1.6745,1.6776,1.7111,1.6742,1.6362,1.6362,1.6569,1.6704,1.6704,1.6471,1.6315,1.6315,1.6315,1.6437,1.6771,1.7442,1.8041,1.8405,1.9129,1.939,1.9098,1.9905,2.01,1.9385,1.9751,1.9761,1.9365,1.9751,2.0041,2.0238,2.0555,2.1207,2.2128,2.3041,2.4266,2.568,2.7278,2.7869,2.773,2.8462,2.8791,2.8791,2.8791,2.9209,2.9792,2.9792,2.9792,2.9792,0.0,0.0,0.0,0.0,0.0,0.0,0.0,0.0,0.0,0.0,0.0,0.0,0.0,0.0,0.0,0.0,0.0,0.0,0.0,0.0,1.1418,1.1266,1.0912,1.0743,1.081,1.0073,0.9825,1.0081,0.9725,0.9643,0.9798,0.9646,0.9782,1.0099,0.9991,0.9976,1.0007,0.9707,0.9424,0.9152,0.933,0.8973,0.8404,0.8792,0.8467,0.777,0.7571,0.0,0.0,0.0,0.0,0.0,0.0,0.0,0.8394,0.8394,0.8353,0.8461,0.9207,0.0,0.0,1.1567,0.0,1.4045,1.4744,1.53,1.5785,1.615,1.623,1.6285,1.6516,1.6079,1.5713,1.5713,1.5596,1.5427,1.5281,1.5099,1.4944,1.4761,1.4745,1.4819,1.5037,1.587,1.6438,1.6534,1.7513,1.7983,1.7564,1.8641,1.9026,1.8596,1.9157,1.9347,1.9108,1.9347,1.9575,1.9793,1.9996,2.0586,2.1518,2.2666,2.3697,2.4612,2.5989,2.6662,2.6858,2.7544,2.8091,2.8502,2.8502,2.904,2.9792,2.9792,2.9792,2.9792,0.0,0.0,0.0,0.0,0.0,0.0,0.0,0.0,0.0,0.0,0.0,0.0,0.0,0.0,0.0,0.0,0.0,0.0,0.0,0.0,0.0,1.0943,1.0725,1.0563,1.0457,1.0021,0.9884,1.0088,0.9597,0.9393,0.9441,0.9082,0.9252,0.9798,0.9186,0.9064,0.9301,0.8907,0.8539,0.8293,0.8879,0.865,0.8028,0.871,0.8501,0.7801,0.753,0.7552,0.7673,0.7462,0.0,0.0,0.0,0.0,0.8394,0.8394,0.8299,0.837,0.9091,0.0,0.9935,1.1837,1.2885,0.0,1.4609,1.5115,1.5386,1.5475,1.5594,1.5712,1.5712,1.5449,1.5189,1.5189,1.4824,1.4415,1.4148,1.4061,1.391,1.3616,1.3618,1.3618,1.3618,1.4404,1.4824,1.4535,1.5748,1.6369,1.6024,1.704,1.7639,1.7707,1.8442,1.8818,1.8775,1.8918,1.9181,1.9554,1.972,2.0193,2.1005,2.2273,2.3121,2.3645,2.457,2.5369,2.6092,2.6569,2.7273,2.8051,2.8051,2.8673,2.9585,2.9585,2.9663,2.9792,0.0,0.0,0.0,0.0,0.0,0.0,0.0,0.0,0.0,0.0,0.0,0.0,0.0,0.0,0.0,0.0,0.0,0.0,1.1086,0.0,0.0,1.0659,1.0621,1.038,0.9923,0.9835,0.9588,0.9177,0.8926,0.896,0.9232,0.9366,0.9449,0.9549,0.944,0.9274,0.9052,0.8935,0.8692,0.8355,0.8111,0.7947,0.7835,0.7955,0.7841,0.7633,0.7598,0.7482,0.7402,0.7658,0.7806,0.0,0.0,0.0,0.8394,0.8394,0.8299,0.8294,0.869,0.0,1.0342,0.0,1.1985,1.2845,0.0,0.0,1.4037,0.0,1.5261,1.5712,1.5712,1.5449,1.5189,1.5189,1.4625,1.4164,1.4117,1.3846,1.3632,1.3618,1.3618,1.3618,1.3618,1.3724,1.3799,1.3751,1.4537,1.4967,1.4915,1.5669,1.6244,1.6513,1.729,1.7662,1.7534,1.8173,1.8538,1.8611,1.9409,2.0027,2.0498,2.1124,2.1873,2.2726,2.3589,2.409,2.4324,2.5126,2.5746,2.6152,2.6152,2.718,2.8673,2.8673,2.917,2.9792,0.0,0.0,0.0,0.0,0.0,0.0,0.0,0.0,0.0,0.0,0.0,0.0,0.0,0.0,0.0,1.1188,1.1103,1.0859,1.0408,1.0128,0.9991,0.9991,0.9795,0.9607,0.9359,0.9239,0.9079,0.8825,0.8631,0.861,0.8764,0.9035,0.9266,0.9443,0.9367,0.908,0.8655,0.8392,0.809,0.7788,0.7801,0.7807,0.7831,0.8043,0.7956,0.7714,0.7714,0.7658,0.7608,0.7758,0.7948,0.8159,0.8346,0.0,0.0,0.0,0.7899,0.7764,0.8281,0.908,0.9946,0.0,1.1364,1.2059,1.2409,1.2909,1.3394,1.3703,1.4164,1.4625,1.5022,1.4975,1.4816,1.4617,1.4315,1.3982,1.3592,1.3235,1.3044,1.3044,1.283,1.279,1.3028,1.3227,1.3227,1.306,1.3697,1.3999,1.381,1.4692,1.5266,1.5393,1.6165,1.6693,1.7014,1.7334,1.7662,1.8019,1.8433,1.8992,1.9686,2.0141,2.1,2.2118,2.2784,2.3103,2.3162,2.3807,2.4454,2.5062,2.5062,2.5865,2.6991,2.6991,2.7495,2.8233,0.0,0.0,0.0,0.0,0.0,0.0,0.0,0.0,0.0,0.0,0.0,0.0,0.0,0.0,0.0,0.0,1.0869,1.037,0.9826,0.9529,0.9368,0.9368,0.9136,0.8975,0.8915,0.8785,0.8683,0.8622,0.8467,0.8441,0.8537,0.8866,0.9207,0.9517,0.9324,0.8977,0.8513,0.8214,0.7933,0.7722,0.7877,0.7948,0.798,0.829,0.8206,0.7948,0.7948,0.7948,0.7948,0.7948,0.8151,0.8373,0.8291,0.8106,0.0,0.0,0.0,0.0,0.0,0.0,0.9089,0.9864,1.0462,1.0994,0.0,0.0,1.2578,0.0,1.3012,1.3402,1.4082,1.428,1.4248,1.4021,1.391,1.364,1.3076,1.2678,1.2423,1.2328,1.2051,1.1988,1.2296,1.2528,1.2545,1.2343,1.2766,1.2949,1.283,1.3593,1.4106,1.4301,1.5012,1.5619,1.6062,1.6449,1.6864,1.7308,1.7585,1.8143,1.8942,1.9285,2.0197,2.1487,2.2066,2.2387,2.2522,2.2873,2.3461,2.4173,2.4173,2.4714,2.5454,2.5454,2.6095,2.6974,0.0,0.0,0.0,0.0,0.0,0.0,0.0,0.0,0.0,0.0,0.0,0.0,1.0972,1.1008,1.0924,1.0678,1.0448,1.0098,0.9558,0.9208,0.9036,0.9036,0.9016,0.0,0.8716,0.8695,0.8602,0.8414,0.8394,0.8569,0.8881,0.9215,0.9557,0.9858,0.9525,0.9206,0.8874,0.8858,0.8834,0.8794,0.8497,0.837,0.837,0.8386,0.8386,0.837,0.837,0.0,0.0,0.0,0.0,0.0,0.0,0.7912,0.7829,0.0,0.0,0.0,0.0,0.7609,0.0,0.8648,0.9008,0.0,0.0,0.0,1.1193,1.1836,1.2041,1.2321,1.3044,1.3425,1.3665,1.3616,1.3346,1.302,1.267,1.2274,1.1924,1.1582,1.1527,1.1527,1.1571,1.1453,1.1425,1.1543,1.1469,1.1597,1.203,1.212,1.2477,1.3156,1.3889,1.4227,1.4142,1.5472,1.6154,1.6195,1.7205,1.7968,1.8445,1.8476,1.9199,2.0509,2.1445,2.2087,2.2501,2.2522,2.283,2.3265,2.3265,2.3796,2.4557,2.4557,2.5547,2.6914,0.0,0.0,0.0,0.0,0.0,0.0,0.0,0.0,0.0,0.0,0.0,0.0,0.0,1.0292,1.0254,1.0167,0.9814,0.9377,0.8834,0.8671,0.8618,0.8618,0.8618,0.857,0.8508,0.8508,0.8467,0.8394,0.8394,0.8577,0.8913,0.8974,0.9213,0.9581,0.9453,0.9453,0.951,0.9088,0.8905,0.8889,0.877,0.0,0.0,0.0,0.0,0.0,0.0,0.0,0.0,0.0,0.0,0.0,0.0,0.0,0.0,0.0,0.0,0.0,0.0,0.0,0.0,0.8043,0.8449,0.8788,0.9249,0.9744,1.0213,1.0429,1.0726,1.1004,1.1242,1.2375,1.3227,1.2996,1.2861,1.2574,1.1985,1.1574,1.1364,1.1367,1.1249,1.1229,1.1359,1.141,1.1403,1.1374,1.1326,1.1381,1.1535,1.1535,1.171,1.2051,1.2544,1.3075,1.3677,1.462,1.508,1.508,1.586,1.6467,1.6979,1.7954,1.8651,1.9158,2.0124,2.1083,2.2056,2.2056,2.2149,2.2304,2.2304,2.2478,2.2776,2.2776,2.3455,2.4468,0.0,0.0,0.0,0.0,0.0,0.0,0.0,0.0,0.0,1.0456,0.0,0.0,0.0,0.0,0.9697,0.9511,0.9219,0.8854,0.8435,0.8394,0.8394,0.8394,0.8394,0.8394,0.8394,0.8394,0.8449,0.8569,0.833,0.8436,0.8857,0.8693,0.8816,0.9172,0.9314,0.9565,0.9874,0.9283,0.0,0.9208,0.0,0.0,0.8736,0.0,0.0,0.0,0.0,0.0,0.0,0.0,0.0,0.0,0.0,0.0,0.0,0.0,0.0,0.0,0.6666,0.0,0.0,0.0,0.0,0.7793,0.8179,0.8677,0.9126,0.9302,0.9653,0.996,1.0066,1.1108,1.1973,1.2016,1.203,1.1886,1.1408,1.1138,1.098,1.0974,1.0847,1.08,1.0856,1.0899,1.0899,1.0872,1.0817,1.0898,1.1126,1.1134,1.1236,1.1487,1.1717,1.2152,1.2831,1.3477,1.3825,1.3825,1.4542,1.5197,1.5743,1.6859,1.7677,1.8195,1.8816,1.9944,2.1331,2.1176,2.13,2.158,2.158,2.1476,2.1383,2.1694,2.2221,2.2852,0.0,0.0,0.0,0.0,0.0,0.0,0.0,0.0,0.9875,0.9875,0.0,0.0,0.0,0.0,0.0,0.8736,0.8704,0.8602,0.8414,0.8394,0.8394,0.8394,0.8394,0.8394,0.8394,0.8394,0.8548,0.8883,0.8158,0.8146,0.8778,0.8448,0.8443,0.8731,0.9111,0.9498,0.9849,0.0,0.9507,0.9793,0.0,0.9036,0.9367,0.0,0.0,0.0,0.8625,0.8379,0.0,0.7638,0.0,0.0,0.0,0.0,0.0,0.0,0.0,0.0,0.0,0.0,0.0,0.0,0.0,0.0,0.7007,0.0,0.7942,0.8462,0.8896,0.9249,0.9583,0.9639,0.9896,1.0712,1.0857,1.0864,1.0945,1.0952,1.0772,1.0304,1.0265,1.0213,0.9999,0.987,0.9851,0.9973,0.987,1.0072,1.0728,1.0771,1.1001,1.1463,1.1471,1.1479,1.1487,1.215,1.2483,1.2483,1.3429,1.4214,1.4887,1.5253,1.6247,1.7668,1.7678,1.868,2.0281,1.9958,2.0321,2.1093,2.1104,2.0798,2.0498,2.1445,2.1983,2.2346,0.0,0.0,0.0,0.0,0.0,0.0,1.0176,0.9835,0.9549,0.0,0.0,0.0,0.8732,0.8712,0.8651,0.8488,0.8488,0.8455,0.8394,0.8394,0.8394,0.8394,0.8394,0.8394,0.8394,0.8394,0.8414,0.8474,0.8026,0.8123,0.8721,0.8079,0.8254,0.9059,0.8871,0.8908,0.9106,0.9033,0.0,0.9035,0.8906,0.8749,0.0,0.0,0.0,0.0,0.0,0.8128,0.7929,0.0,0.7579,0.7372,0.0,0.0,0.0,0.0,0.0,0.0,0.6395,0.0,0.0,0.0,0.0,0.0,0.0,0.0,0.7457,0.7756,0.8049,0.8293,0.8369,0.8408,0.8595,0.9146,0.968,0.9942,0.9732,0.9708,0.9599,0.9382,0.9629,0.9725,0.9569,0.9784,0.9921,0.0,0.9825,0.9888,1.0064,1.03,1.0621,1.0985,1.1083,1.1249,1.1515,1.1684,1.1796,1.1796,1.2786,1.3561,1.4214,1.539,1.6208,1.6777,1.7068,1.7678,1.8515,1.944,2.01,2.0612,2.0979,2.0798,2.0457,2.1093,2.1328,2.1455,0.0,0.0,0.0,0.0,0.0,0.9932,0.9648,0.9279,0.8987,0.0,0.0,0.0,0.8808,0.8824,0.8768,0.8632,0.8617,0.849,0.8216,0.8188,0.8126,0.7995,0.7981,0.7981,0.7981,0.8097,0.8193,0.8294,0.7902,0.8032,0.8633,0.7914,0.7896,0.8501,0.8573,0.0,0.0,0.0,0.0,0.0,0.876,0.0,0.0,0.8869,0.882,0.0,0.0,0.0,0.7933,0.7649,0.7425,0.0,0.0,0.0,0.0,0.0,0.0,0.0,0.0,0.0,0.0,0.0,0.0,0.0,0.6497,0.6715,0.6966,0.0,0.7578,0.775,0.7641,0.7778,0.7966,0.8157,0.8618,0.9018,0.9187,0.9211,0.9159,0.9008,0.9316,0.9465,0.9342,0.9621,0.981,0.9732,0.9706,0.974,0.9799,1.0032,1.0306,1.0595,1.0674,1.0841,1.1093,1.1093,1.1093,1.1093,1.1954,1.2697,1.3364,1.4805,1.5625,1.6,1.6537,1.6996,1.7471,1.8299,1.9003,1.9603,1.9872,1.9696,1.9393,2.0416,2.071,2.0627,0.0,0.0,1.036,0.9904,0.9459,0.9157,0.9116,0.8733,0.8457,0.0,0.8738,0.905,0.9366,0.9398,0.9256,0.8985,0.8917,0.8631,0.8005,0.7961,0.7814,0.7412,0.7475,0.7497,0.7433,0.7675,0.7937,0.8272,0.7796,0.7883,0.8494,0.7783,0.7494,0.7574,0.0,0.0,0.0,0.0,0.0,0.8602,0.8579,0.8758,0.0,0.0,0.9106,0.8967,0.8395,0.815,0.8035,0.7443,0.7224,0.0,0.0,0.0,0.0,0.0,0.6607,0.0,0.0,0.0,0.0,0.0,0.0,0.0,0.6344,0.6413,0.6539,0.0,0.7314,0.7405,0.7194,0.7494,0.7707,0.7538,0.7681,0.812,0.8942,0.9054,0.9001,0.8903,0.9133,0.9256,0.9159,0.9387,0.9562,0.9588,0.9588,0.9647,0.9799,0.9921,1.0076,1.029,1.0316,1.0368,1.0496,1.0496,1.0496,1.0504,1.1149,1.1811,1.2536,1.3758,1.4689,1.5323,1.599,1.6485,1.6845,1.6904,1.7461,1.8319,1.8393,1.8143,1.7967,1.9569,1.9975,1.9896,0.0,0.9913,0.9707,0.9388,0.9177,0.8923,0.8598,0.8704,0.8802,0.8802,0.9007,0.9212,0.939,0.9306,0.9259,0.9302,0.9005,0.8684,0.8335,0.8411,0.8135,0.7357,0.7997,0.8135,0.7643,0.7702,0.7867,0.8133,0.7559,0.7548,0.8029,0.7434,0.7408,0.7821,0.7762,0.0,0.0,0.0,0.0,0.748,0.8063,0.8216,0.8189,0.8573,0.8474,0.8129,0.7994,0.7861,0.769,0.7559,0.7376,0.723,0.0,0.0,0.0,0.7012,0.0,0.0,0.0,0.0,0.0,0.0,0.0,0.0,0.6373,0.6404,0.6488,0.0,0.6631,0.6745,0.6869,0.6939,0.6991,0.6963,0.7175,0.7535,0.8074,0.8162,0.8141,0.8115,0.8395,0.8666,0.8857,0.9106,0.9361,0.9588,0.9588,0.9647,0.9799,0.9921,1.0076,1.029,1.0393,1.047,1.0496,1.0496,1.0496,1.0496,1.0918,1.1581,1.2527,1.3044,1.3808,1.4706,1.5332,1.5634,1.5752,1.6296,1.7046,1.7864,1.8247,1.833,1.8299,1.8651,1.8994,1.9274,0.9549,0.937,0.9199,0.8854,0.8828,0.8804,0.8656,0.8885,0.9039,0.9039,0.9221,0.9476,0.9817,0.9686,0.9568,0.947,0.9264,0.8958,0.8475,0.8522,0.8287,0.7665,0.7791,0.7719,0.7409,0.7273,0.7262,0.7412,0.7367,0.7389,0.7494,0.7494,0.744,0.73,0.7434,0.0,0.0,0.0,0.7287,0.7332,0.7692,0.0,0.7928,0.8162,0.8109,0.7901,0.7901,0.7838,0.7725,0.7644,0.7576,0.0,0.7443,0.7376,0.7327,0.0,0.7109,0.703,0.0,0.0,0.0,0.7006,0.0,0.0,0.0,0.6596,0.6471,0.6535,0.642,0.632,0.6385,0.6614,0.6722,0.6476,0.6765,0.7051,0.7177,0.7404,0.7556,0.7556,0.7928,0.819,0.8158,0.8782,0.9309,0.9588,0.9588,0.9621,0.9706,0.9758,0.9914,1.0128,1.0213,1.0342,1.0496,1.0496,1.0496,1.0496,1.0828,1.1272,1.177,1.2632,1.3281,1.3796,1.4935,1.541,1.5439,1.6105,1.6653,1.7088,1.7295,1.7408,1.747,1.7895,1.8206,1.8464,0.8975,0.8883,0.8798,0.8502,0.8586,0.8754,0.8904,0.9104,0.9268,0.9337,0.9419,0.9612,1.0035,0.9844,0.9588,0.9376,0.922,0.8923,0.8358,0.8321,0.8125,0.7663,0.7346,0.7125,0.7027,0.6799,0.6722,0.6779,0.7153,0.7273,0.7112,0.7494,0.7354,0.6788,0.7166,0.0,0.0,0.0,0.0,0.7354,0.0,0.7574,0.7901,0.7901,0.7901,0.7901,0.7901,0.7901,0.7865,0.7727,0.7774,0.7823,0.7448,0.7568,0.0,0.0,0.0,0.0,0.0,0.0,0.0,0.0,0.0,0.7206,0.0,0.0,0.0,0.6462,0.0,0.0,0.0,0.0,0.0,0.6007,0.0,0.0,0.0,0.6613,0.0,0.7044,0.7438,0.7622,0.741,0.8273,0.8999,0.9364,0.9397,0.9452,0.964,0.9673,0.9777,0.9999,1.0025,1.018,1.0393,1.0445,1.047,1.0478,1.0756,1.0931,1.1045,1.2122,1.2694,1.2896,1.432,1.4974,1.5089,1.5894,1.6202,1.623,1.6355,1.6464,1.6581,1.7233,1.7502,1.7668,0.8475,0.8475,0.8518,0.8643,0.8685,0.8765,0.8959,0.9272,0.9568,0.9873,0.9558,0.9335,0.0,0.0,0.0,0.0,0.0,0.0,0.7726,0.0,0.7243,0.6448,0.7089,0.7243,0.6759,0.6704,0.6827,0.7042,0.688,0.6891,0.7085,0.6923,0.6923,0.7058,0.6869,0.0,0.0,0.0,0.6756,0.0,0.6788,0.7246,0.0,0.7901,0.7901,0.7901,0.7901,0.7901,0.7895,0.0,0.7877,0.7889,0.0,0.7737,0.7654,0.7784,0.0,0.0,0.0,0.0,0.0,0.0,0.7154,0.0,0.6107,0.0,0.5985,0.5769,0.0,0.0,0.0,0.0,0.0,0.0,0.0,0.0,0.5235,0.5578,0.6046,0.6518,0.6644,0.6758,0.6952,0.7309,0.7817,0.8559,0.863,0.895,0.9725,0.9895,0.9973,0.9999,1.0162,1.0213,1.0051,1.0239,1.0316,1.0316,1.0484,1.0719,1.1003,1.1155,1.1551,1.2166,1.293,1.3429,1.3803,1.5021,1.5497,1.5565,1.6173,1.6622,1.6903,1.6643,1.6777,1.708,0.8616,0.8576,0.8643,0.8844,0.8974,0.9102,0.9262,0.9347,0.9418,0.9532,0.9038,0.0,0.0,0.0,0.0,0.0,0.0,0.8152,0.0,0.0,0.0,0.7214,0.7246,0.7166,0.695,0.6603,0.6468,0.6576,0.6652,0.6652,0.6576,0.6815,0.6815,0.6576,0.6652,0.0,0.6413,0.0,0.6517,0.0,0.0,0.0,0.0,0.744,0.7521,0.7681,0.7848,0.7901,0.7901,0.0,0.7901,0.0,0.0,0.0,0.0,0.7865,0.0,0.0,0.0,0.0,0.0,0.0,0.0,0.0,0.6632,0.0,0.6052,0.0,0.0,0.0,0.0,0.0,0.0,0.0,0.5385,0.0,0.0,0.0,0.547,0.5971,0.0,0.0,0.6852,0.6858,0.7116,0.7761,0.8048,0.8451,0.9007,0.9365,0.9631,0.9862,0.9955,1.0007,0.9999,1.0076,1.0187,1.029,1.0368,1.0498,1.0727,1.0907,1.1257,1.1754,1.2613,1.3189,1.3563,1.4499,1.5089,1.5439,1.572,1.616,1.6632,1.6446,1.6498,1.6653,0.8716,0.0,0.0,0.9049,0.921,0.9306,0.9313,0.9088,0.8883,0.0,0.0,0.0,0.8457,0.8377,0.0,0.0,0.8421,0.8205,0.0,0.0,0.7491,0.0,0.0,0.0,0.6842,0.6418,0.6205,0.6205,0.644,0.644,0.6205,0.6657,0.663,0.6205,0.0,0.644,0.6205,0.0,0.6337,0.6571,0.6571,0.668,0.6869,0.7112,0.7327,0.7547,0.7788,0.7901,0.7901,0.7901,0.7901,0.0,0.7901,0.7901,0.7901,0.0,0.0,0.0,0.7901,0.0,0.0,0.0,0.0,0.0,0.0,0.0,0.0,0.0,0.0,0.0,0.0,0.0,0.0,0.0,0.0,0.5154,0.0,0.4973,0.0,0.0,0.0,0.0,0.0,0.6171,0.6396,0.7113,0.7573,0.8027,0.8518,0.9073,0.9441,0.964,0.9755,0.9818,0.9888,0.9973,1.0076,1.0213,1.0316,1.0419,1.0504,1.0759,1.1061,1.1404,1.2224,1.2764,1.3156,1.3909,1.449,1.4903,1.5264,1.571,1.6134,1.6316,1.6413,1.6413,0.8567,0.8765,0.0,0.0,0.0,0.9205,0.8874,0.8329,0.0,0.0,0.0,0.0,0.0,0.0,0.0,0.0,0.0,0.7449,0.7248,0.0,0.6459,0.0,0.0,0.6232,0.0,0.6205,0.6205,0.6205,0.6205,0.6205,0.6205,0.6232,0.6232,0.6205,0.6205,0.6205,0.6205,0.6205,0.6205,0.62,0.62,0.6232,0.6309,0.0,0.7494,0.7547,0.7788,0.0,0.0,0.7901,0.7901,0.0,0.0,0.0,0.0,0.0,0.0,0.0,0.0,0.0,0.0,0.7309,0.0,0.0,0.0,0.0,0.6227,0.0,0.0,0.0,0.0,0.0,0.0,0.0,0.0,0.0,0.0,0.0,0.0,0.0,0.0,0.0,0.0,0.4945,0.5545,0.6724,0.713,0.7719,0.8652,0.9392,0.9599,0.9229,0.9585,0.974,0.9614,0.9862,0.9999,0.9999,1.0342,1.0496,1.0496,1.0504,1.0703,1.1034,1.1388,1.1738,1.2118,1.3117,1.3541,1.3683,1.4932,1.541,1.5497,1.6163,1.6413,1.6413,0.0,0.0,0.0,0.0,0.0,0.0,0.0,0.7858,0.0,0.0,0.7783,0.0,0.0,0.8521,0.8576,0.0,0.0,0.7938,0.7626,0.7209,0.0,0.0,0.0,0.6459,0.0,0.0,0.0,0.6205,0.6205,0.6205,0.6205,0.6205,0.6205,0.6205,0.0,0.6205,0.0,0.0,0.0,0.0,0.0,0.6205,0.6287,0.0,0.7246,0.73,0.7735,0.7901,0.0,0.7901,0.7901,0.7901,0.7901,0.7901,0.7901,0.7901,0.7901,0.7901,0.0,0.0,0.7605,0.7439,0.0,0.0,0.0,0.0,0.0,0.0,0.0,0.0,0.0,0.0,0.0,0.0,0.0,0.0,0.0,0.0,0.0,0.0,0.0,0.0,0.0,0.0,0.4636,0.535,0.5926,0.6588,0.74,0.848,0.9114,0.92,0.9493,0.9647,0.9588,0.9699,0.9829,0.9999,1.0102,1.029,1.0496,1.0496,1.0687,1.1018,1.1344,1.1694,1.2043,1.2643,1.3155,1.3601,1.4469,1.5059,1.5468,1.6163,1.6413,1.6413,0.7791,0.0,0.0,0.0,0.0,0.0,0.0,0.0,0.0,0.0,0.7903,0.0,0.8901,0.0,0.9065,0.0,0.8897,0.8415,0.7954,0.7536,0.0,0.6638,0.6675,0.0,0.0,0.0,0.0,0.0,0.0,0.6205,0.6205,0.6205,0.6205,0.0,0.0,0.6205,0.6205,0.6205,0.6205,0.0,0.0,0.6205,0.0,0.0,0.7031,0.7166,0.0,0.7821,0.7901,0.7901,0.7901,0.7901,0.7901,0.7901,0.7901,0.7901,0.7901,0.7901,0.7901,0.7762,0.0,0.7655,0.7453,0.0,0.702,0.0,0.667,0.0,0.0,0.0,0.0,0.0,0.0,0.0,0.0,0.0,0.0,0.5011,0.0,0.0,0.0,0.0,0.0,0.4399,0.4481,0.4779,0.5445,0.6144,0.6837,0.7982,0.8753,0.9024,0.9402,0.9588,0.9588,0.9647,0.9784,0.9999,1.0076,1.0239,1.0496,1.0623,1.0806,1.1026,1.1479,1.1805,1.2014,1.2439,1.2828,1.3238,1.3902,1.438,1.4844,1.599,1.6413,1.6413,0.0,0.0,0.0,0.0,0.7419,0.0,0.0,0.0,0.7361,0.0,0.8044,0.8387,0.903,0.9051,0.9117,0.9337,0.9122,0.8774,0.8151,0.7769,0.0,0.0,0.6647,0.652,0.6501,0.0,0.0,0.0,0.0,0.0,0.0,0.0,0.0,0.0,0.6205,0.0,0.6205,0.6205,0.6205,0.6205,0.6205,0.6205,0.6232,0.6544,0.6837,0.7139,0.7408,0.7681,0.7901,0.7901,0.7901,0.7901,0.7901,0.7901,0.7901,0.7901,0.7901,0.7901,0.7901,0.7901,0.7901,0.7901,0.7708,0.0,0.0,0.0,0.7327,0.0,0.0,0.0,0.0,0.0,0.0,0.0,0.0,0.0,0.0,0.0,0.0,0.0,0.0,0.0,0.0,0.4597,0.4965,0.4991,0.5636,0.6307,0.0,0.7926,0.8529,0.8652,0.9267,0.9588,0.9588,0.9732,0.9851,0.9999,1.0187,1.0368,1.0504,1.082,1.0979,1.1034,1.1702,1.1966,1.2014,1.2439,1.259,1.2652,1.3268,1.3511,1.3782,1.5662,1.6374,1.6413,0.6475,0.654,0.6703,0.0,0.6755,0.672,0.0,0.0,0.0,0.0,0.8779,0.9304,1.0093,1.0041,0.9908,0.9843,0.9455,0.0,0.0,0.0,0.0,0.7351,0.7138,0.6851,0.6511,0.6454,0.0,0.6205,0.0,0.0,0.6205,0.0,0.0,0.0,0.0,0.0,0.6205,0.6205,0.6205,0.6205,0.6205,0.6205,0.6205,0.0,0.6657,0.7139,0.7408,0.7681,0.7901,0.7901,0.7901,0.7901,0.7901,0.7901,0.7901,0.7901,0.7901,0.7901,0.7901,0.7901,0.7901,0.7901,0.7848,0.7741,0.0,0.0,0.0,0.0,0.0,0.0,0.0,0.0,0.0,0.0,0.0,0.0,0.0,0.0,0.0,0.5216,0.0,0.0,0.4556,0.4366,0.4399,0.4744,0.5092,0.5503,0.6,0.0,0.8133,0.8176,0.9109,0.9588,0.9588,0.9647,0.9758,0.9999,1.0051,1.0231,1.0496,1.0591,1.0775,1.1018,1.1447,1.1773,1.2014,1.2439,1.259,1.2652,1.3268,1.3812,1.435,1.5303,1.598,1.6413,0.6478,0.0,0.0,0.7078,0.0,0.0,0.7249,0.7527,0.0,0.8746,0.9124,0.0,0.9975,1.0088,1.0051,0.97,0.946,0.0,0.8604,0.0,0.0,0.7508,0.7299,0.7033,0.6652,0.6548,0.0,0.6205,0.0,0.0,0.6205,0.0,0.0,0.0,0.0,0.6205,0.6205,0.6205,0.6205,0.6205,0.6205,0.6205,0.0,0.6205,0.6581,0.7112,0.7273,0.7574,0.7901,0.7901,0.7901,0.7901,0.7901,0.7901,0.7901,0.7901,0.7901,0.7901,0.7901,0.7901,0.7901,0.7901,0.7901,0.7848,0.7708,0.7467,0.7192,0.0,0.6625,0.6352,0.0,0.0,0.0,0.0,0.0,0.0,0.0,0.0,0.0,0.0,0.5159,0.0,0.4845,0.4784,0.4699,0.4586,0.5018,0.5429,0.0,0.0,0.7553,0.798,0.8649,0.9197,0.9588,0.947,0.9575,0.9999,0.9999,1.018,1.0496,1.0655,1.0891,1.1233,1.1574,1.1924,1.2274,1.2511,1.259,1.2621,1.2972,1.342,1.3893,1.4401,1.5147,1.5951,0.6873,0.0,0.0,0.0,0.0,0.0,0.0,0.8155,0.0,0.8995,0.0,0.9333,0.9403,0.9682,0.9767,0.9356,0.0,0.9072,0.8481,0.824,0.7968,0.755,0.7313,0.7104,0.6868,0.6624,0.6417,0.0,0.0,0.0,0.0,0.0,0.0,0.0,0.0,0.0,0.0,0.6205,0.6205,0.6205,0.6205,0.6205,0.6205,0.6205,0.6581,0.7112,0.7112,0.7434,0.7901,0.7901,0.7901,0.7901,0.7901,0.7901,0.7901,0.7901,0.7901,0.7901,0.7901,0.7901,0.7901,0.7901,0.7901,0.7901,0.7901,0.7681,0.7413,0.7166,0.6891,0.6598,0.0,0.0,0.0,0.0,0.0,0.0,0.0,0.0,0.0,0.0,0.0,0.0,0.0,0.5407,0.5313,0.4533,0.5184,0.5626,0.0,0.0,0.6947,0.7915,0.8165,0.8671,0.9523,0.9295,0.9437,0.9929,0.9988,1.018,1.0504,1.0814,1.113,1.1511,1.1813,1.2186,1.259,1.259,1.259,1.259,1.256,1.2697,1.2956,1.323,1.4103,1.5147,0.0,0.0,0.0,0.0,0.0,0.8987,0.9044,0.9192,0.9371,0.9479,0.9526,0.9611,0.9866,0.9597,0.9403,0.9291,0.9282,0.0,0.0,0.0,0.0,0.7778,0.7394,0.7171,0.7138,0.6728,0.6483,0.0,0.0,0.0,0.6205,0.0,0.0,0.0,0.0,0.0,0.6205,0.6205,0.0,0.6205,0.6205,0.6205,0.6205,0.6205,0.6581,0.7112,0.7112,0.7434,0.7901,0.7901,0.7901,0.7901,0.7901,0.7901,0.7901,0.7901,0.7901,0.7901,0.7901,0.7901,0.7901,0.7901,0.7901,0.7901,0.7901,0.7681,0.7413,0.7166,0.6891,0.668,0.6625,0.0,0.0,0.0,0.0,0.0,0.0,0.0,0.0,0.0,0.0,0.5116,0.0,0.0,0.0,0.4917,0.5029,0.0,0.0,0.0,0.6858,0.0,0.8339,0.8844,0.0,0.0,0.9539,0.9602,0.9858,1.018,1.0496,1.056,1.0926,1.1495,1.1559,1.1985,1.259,1.259,1.259,1.256,1.2313,1.2274,1.2421,1.2482,1.2995,1.3773,0.0,0.0,0.0,0.0,0.0,0.0,0.0,0.9923,1.0012,0.9649,0.9413,0.9277,0.9304,0.9313,0.9197,0.902,0.9001,0.8822,0.8406,0.8193,0.7938,0.766,0.7451,0.7299,0.719,0.699,0.6747,0.6501,0.0,0.0,0.6205,0.0,0.0,0.0,0.0,0.6261,0.0,0.0,0.0,0.6496,0.6496,0.6496,0.6496,0.6496,0.6823,0.7245,0.7245,0.7526,0.7901,0.7901,0.7901,0.7901,0.7901,0.7901,0.7901,0.7901,0.7901,0.7901,0.7901,0.7901,0.7901,0.7901,0.7901,0.7901,0.7901,0.7681,0.7467,0.7327,0.7085,0.6896,0.6896,0.6652,0.0,0.0,0.0,0.0,0.0,0.0,0.5453,0.0,0.0,0.0,0.0,0.0,0.0,0.0,0.0,0.0,0.0,0.0,0.6832,0.0,0.0,0.0,0.9341,0.0,0.9435,0.9669,0.9892,1.0128,1.0393,1.047,1.087,1.1487,1.1487,1.1929,1.259,1.259,1.2498,1.2344,1.2251,1.2151,1.2058,1.2243,1.2482,1.2903,0.0,0.9315,0.0,0.0,1.006,0.0,1.0099,1.0379,1.0367,0.9743,0.9305,0.902,0.8855,0.9091,0.9129,0.8798,0.877,0.859,0.8174,0.7992,0.7764,0.7503,0.7489,0.7413,0.7256,0.7213,0.7024,0.0,0.0,0.0,0.0,0.0,0.0,0.0,0.0,0.0,0.0,0.0,0.6666,0.6791,0.6791,0.6791,0.6791,0.6791,0.7072,0.7487,0.741,0.7661,0.7973,0.7919,0.7901,0.7913,0.7967,0.7949,0.7901,0.7901,0.7901,0.7901,0.7901,0.7901,0.7901,0.7901,0.7901,0.7901,0.7901,0.7735,0.7574,0.7521,0.7327,0.7139,0.7031,0.6685,0.0,0.0,0.0,0.0,0.0,0.0,0.0,0.0,0.0,0.0,0.515,0.0,0.0,0.0,0.0,0.0,0.5614,0.0,0.0,0.0,0.0,0.8391,0.9295,0.0,0.9268,0.9686,0.9881,1.0084,1.029,1.0419,1.0844,1.1487,1.1487,1.1929,1.259,1.2529,1.2344,1.2158,1.2182,1.2058,1.1895,1.2182,1.2305,1.2398,0.0,0.0,0.0,0.0,0.0,0.0,1.0317,1.0478,1.0464,1.0023,0.9559,0.9249,0.9266,0.9098,0.8999,0.8957,0.8957,0.8817,0.8401,0.817,0.7906,0.7508,0.7489,0.7479,0.746,0.7285,0.7171,0.0,0.0,0.6754,0.0,0.0,0.0,0.0,0.0,0.0,0.0,0.6763,0.6777,0.6791,0.6791,0.6791,0.6791,0.6791,0.7195,0.7736,0.7498,0.7773,0.8219,0.7979,0.7901,0.7943,0.8177,0.8093,0.7901,0.7901,0.7901,0.7901,0.7901,0.7901,0.7901,0.7901,0.7901,0.7901,0.7901,0.7875,0.7794,0.7547,0.7488,0.73,0.6842,0.6896,0.695,0.0,0.0,0.0,0.0,0.0,0.5873,0.5854,0.0,0.0,0.5557,0.5391,0.5368,0.0,0.5424,0.0,0.0,0.0,0.0,0.7122,0.7176,0.7564,0.8321,0.867,0.8991,0.9343,0.9669,0.9981,1.029,1.0316,1.0737,1.1487,1.1487,1.1929,1.259,1.2282,1.2212,1.2243,1.1965,1.1934,1.2089,1.2243,1.2305,1.2336,0.0,0.0,0.0,0.0,0.0,0.0,0.0,1.0569,1.0469,1.0051,0.9582,0.9239,0.9117,0.9032,0.8934,0.8841,0.8722,0.8524,0.8226,0.7925,0.7664,0.7498,0.7489,0.7489,0.7489,0.7408,0.7308,0.0,0.0,0.0,0.0,0.0,0.0,0.0,0.0,0.6892,0.7036,0.7036,0.7106,0.7215,0.7215,0.7215,0.7215,0.7215,0.742,0.7695,0.7777,0.801,0.8277,0.8527,0.8291,0.7919,0.8021,0.7985,0.7901,0.7901,0.7901,0.7901,0.7901,0.7901,0.7901,0.7901,0.7901,0.7901,0.7901,0.7901,0.7875,0.7762,0.7494,0.7246,0.7192,0.6999,0.681,0.6707,0.0,0.0,0.0,0.0,0.0,0.6158,0.0,0.5741,0.0,0.5528,0.5514,0.5604,0.0,0.0,0.0,0.0,0.0,0.7079,0.0,0.7898,0.8548,0.8725,0.9138,0.9769,0.9987,1.0274,1.0619,1.0798,1.1221,1.1821,1.2065,1.2328,1.259,1.2467,1.2375,1.2274,1.2151,1.2151,1.2212,1.2274,1.2367,1.2498,1.0679,0.0,1.0636,0.0,1.0811,1.0645,1.063,1.0569,1.0384,0.9918,0.9545,0.923,0.9089,0.9091,0.8981,0.8706,0.8463,0.8254,0.8117,0.7719,0.7518,0.7584,0.7641,0.0,0.7588,0.7584,0.7484,0.7275,0.7275,0.0,0.0,0.0,0.0,0.0,0.7,0.7111,0.7275,0.7275,0.7361,0.7489,0.7489,0.7489,0.7489,0.7489,0.7597,0.7744,0.7892,0.8043,0.825,0.8679,0.8381,0.7881,0.8074,0.8027,0.7901,0.7901,0.7955,0.7997,0.7919,0.7955,0.8015,0.8015,0.7955,0.7919,0.7997,0.7955,0.7875,0.7794,0.7547,0.7381,0.7467,0.7192,0.6923,0.6842,0.0,0.0,0.0,0.6701,0.0,0.6435,0.6158,0.5923,0.5782,0.5736,0.5698,0.5698,0.0,0.0,0.0,0.0,0.0,0.0,0.0,0.0,0.8534,0.8534,0.9011,0.9958,1.0149,1.0401,1.0681,1.1205,1.1652,1.2006,1.2431,1.259,1.259,1.2529,1.2436,1.2305,1.2305,1.2305,1.2305,1.2367,1.2467,1.259,1.0929,1.1052,1.1184,1.1189,1.1023,1.082,1.0654,1.045,1.0126,0.9663,0.9418,0.9282,0.9282,0.9303,0.9146,0.8745,0.8332,0.8094,0.8088,0.7733,0.7578,0.0,0.0,0.8015,0.7816,0.7811,0.7702,0.7489,0.0,0.0,0.7484,0.0,0.7484,0.7484,0.7484,0.7484,0.7489,0.7489,0.7489,0.7489,0.7489,0.7489,0.7489,0.7489,0.7717,0.7952,0.7703,0.7809,0.8102,0.8181,0.7973,0.7814,0.8493,0.8315,0.7901,0.7901,0.8081,0.8231,0.7973,0.8087,0.8285,0.8285,0.8093,0.7967,0.8225,0.8087,0.7821,0.7547,0.7708,0.7821,0.7547,0.7494,0.7408,0.7139,0.0,0.0,0.0,0.6701,0.0,0.6701,0.6408,0.62,0.6196,0.6003,0.0,0.0,0.0,0.0,0.0,0.0,0.0,0.6205,0.6228,0.0,0.7898,0.7898,0.8481,0.9621,0.9943,1.0166,1.0347,1.1328,1.1864,1.2006,1.2431,1.259,1.259,1.2398,1.2305,1.2305,1.2305,1.2305,1.2336,1.2529,1.259,1.259,1.1113,1.1151,1.1151,1.1014,1.0938,1.0778,1.0469,1.0478,1.0329,0.9908,0.9923,0.9861,0.9531,0.9271,0.8996,0.0,0.8453,0.8193,0.0,0.7646,0.7539,0.7609,0.7805,0.788,0.7815,0.795,0.7916,0.7712,0.0,0.0,0.0,0.7916,0.7845,0.7712,0.7712,0.7631,0.7489,0.7489,0.7489,0.7489,0.7489,0.7489,0.7489,0.7489,0.7559,0.7679,0.7809,0.7945,0.8063,0.8312,0.8131,0.7795,0.8032,0.7983,0.782,0.768,0.7944,0.8273,0.8189,0.8225,0.8291,0.8291,0.8093,0.7967,0.8231,0.8225,0.809,0.783,0.7547,0.7386,0.7488,0.7192,0.6977,0.7085,0.7246,0.0,0.7246,0.0,0.6977,0.6977,0.6522,0.6205,0.6205,0.6144,0.0,0.0,0.0,0.0,0.0,0.0,0.0,0.0,0.6205,0.0,0.7348,0.7948,0.8731,0.9687,1.043,1.0968,1.1346,1.1798,1.2081,1.2202,1.2481,1.259,1.259,1.2529,1.2498,1.2498,1.2498,1.2498,1.2498,1.259,1.259,1.259,1.1194,1.1194,1.1156,1.1028,1.0948,1.0811,1.0546,1.048,1.0412,1.0151,0.9984,0.9875,0.9771,0.9294,0.0,0.8832,0.8546,0.829,0.8047,0.7851,0.7744,0.7848,0.7952,0.7993,0.792,0.7951,0.0,0.7792,0.7983,0.8115,0.8115,0.8115,0.8049,0.7925,0.7845,0.774,0.7607,0.7527,0.7489,0.7489,0.7489,0.7489,0.7489,0.7489,0.7489,0.7521,0.7722,0.7819,0.7852,0.8182,0.8027,0.7711,0.775,0.7738,0.7726,0.7677,0.803,0.8463,0.8463,0.8536,0.859,0.8459,0.8243,0.8087,0.8255,0.8213,0.8123,0.8057,0.7697,0.7467,0.7628,0.7381,0.7139,0.7112,0.7327,0.7467,0.7354,0.0,0.6977,0.0,0.0,0.0,0.0,0.6205,0.6205,0.0,0.0,0.0,0.0,0.0,0.6238,0.6313,0.6318,0.663,0.7321,0.7858,0.8644,0.9659,1.065,1.1337,1.1809,1.1996,1.2182,1.2305,1.2498,1.259,1.259,1.259,1.259,1.259,1.259,1.259,1.259,1.259,1.259,1.259,1.1194,1.1194,1.1189,0.0,1.1009,0.0,1.0853,1.0523,1.0267,1.0298,0.9748,0.953,0.9956,0.9438,0.9078,0.9028,0.0,0.0,0.8397,0.8206,0.8171,0.8388,0.8378,0.8316,0.8139,0.794,0.7847,0.7842,0.8042,0.8144,0.8158,0.8158,0.8144,0.8106,0.7921,0.7821,0.7778,0.7574,0.7489,0.7489,0.7489,0.7489,0.7489,0.7489,0.7489,0.7489,0.7489,0.7489,0.7554,0.7852,0.7744,0.7501,0.763,0.7622,0.7614,0.7821,0.8265,0.8705,0.8734,0.8884,0.901,0.8765,0.8496,0.8311,0.8321,0.8129,0.8021,0.8267,0.8066,0.7854,0.7898,0.7833,0.7628,0.7166,0.73,0.7354,0.7139,0.6891,0.681,0.0,0.0,0.0,0.6232,0.62,0.6205,0.0,0.0,0.0,0.0,0.0,0.6327,0.6497,0.6516,0.6876,0.7642,0.7687,0.8386,0.9674,1.0685,1.1381,1.1778,1.2018,1.2174,1.2274,1.2498,1.259,1.259,1.259,1.259,1.259,1.259,1.259,1.259,1.259,1.259,1.259,0.0,0.0,1.1146,1.0995,1.0792,1.0598,1.0493,1.0384,1.026,1.0094,1.0085,1.007,1.0004,0.9861,0.9696,0.9461,0.8968,0.8564,0.8404,0.8218,0.8112,0.8188,0.8304,0.838,0.8335,0.8297,0.827,0.8262,0.8295,0.8406,0.8552,0.8552,0.8387,0.811,0.8063,0.7868,0.7565,0.7512,0.7489,0.7489,0.7489,0.7489,0.7489,0.7489,0.7489,0.7489,0.7489,0.7489,0.7521,0.7587,0.7453,0.7283,0.7298,0.7353,0.7435,0.7747,0.8211,0.8676,0.8944,0.887,0.8696,0.8632,0.8575,0.8537,0.8604,0.8566,0.8542,0.8602,0.7907,0.741,0.7822,0.7186,0.6712,0.7058,0.6977,0.695,0.7085,0.7058,0.7031,0.0,0.6788,0.6571,0.6571,0.6364,0.6205,0.0,0.0,0.6431,0.6431,0.6586,0.6624,0.6506,0.6661,0.6829,0.7001,0.7735,0.883,1.0316,1.1308,1.1753,1.1661,1.2071,1.2144,1.1934,1.2243,1.2367,1.2367,1.2529,1.259,1.259,1.259,1.259,1.259,1.259,1.259,1.259,1.1194,1.1194,1.1161,1.1052,1.0858,1.0683,1.0575,1.0441,1.0274,1.0161,1.0036,0.9979,0.9999,0.9909,0.9804,0.9786,0.9386,0.8978,0.8683,0.8565,0.8465,0.8369,0.8403,0.8403,0.8403,0.8327,0.8289,0.8403,0.8482,0.8548,0.8566,0.8661,0.8533,0.8226,0.8226,0.8103,0.7911,0.7721,0.7636,0.7631,0.7531,0.7489,0.7489,0.7489,0.7489,0.7489,0.7489,0.7489,0.7489,0.7489,0.7418,0.7327,0.7327,0.7373,0.7463,0.7778,0.8227,0.8643,0.8783,0.8817,0.8757,0.8643,0.8499,0.8499,0.8801,0.8676,0.851,0.8627,0.8006,0.7505,0.7644,0.7086,0.6685,0.6896,0.6788,0.6756,0.6891,0.6788,0.6734,0.6896,0.6652,0.6468,0.6468,0.6309,0.6243,0.6332,0.644,0.0,0.6643,0.685,0.6936,0.6823,0.6932,0.7036,0.713,0.8037,0.9141,1.0416,1.1268,1.1798,1.2006,1.2379,1.243,1.225,1.2355,1.2444,1.2531,1.2468,1.2529,1.259,1.259,1.259,1.259,1.259,1.259,1.259,1.1194,1.1194,1.1194,1.1194,1.1005,1.0844,1.0844,1.0494,1.027,1.027,0.9913,0.9757,0.9975,0.9795,0.9762,0.998,0.9795,0.9475,0.9056,0.9004,0.8926,0.8713,0.8551,0.8437,0.8437,0.8289,0.8255,0.8403,0.8589,0.8614,0.8453,0.8623,0.8576,0.8354,0.8354,0.834,0.8283,0.7929,0.7816,0.7797,0.7612,0.7522,0.7489,0.7489,0.7489,0.7489,0.7489,0.7489,0.7489,0.7489,0.7489,0.7489,0.7489,0.7489,0.7559,0.7852,0.8201,0.8504,0.849,0.8668,0.8805,0.8566,0.8329,0.8319,0.8892,0.863,0.8316,0.8528,0.8214,0.7779,0.7471,0.7189,0.6948,0.6698,0.6645,0.6635,0.6666,0.0,0.6391,0.6674,0.647,0.6334,0.6334,0.6303,0.637,0.6534,0.6581,0.6675,0.6859,0.7092,0.7251,0.728,0.7251,0.7332,0.7536,0.8387,0.9304,1.0303,1.1043,1.1772,1.2526,1.2713,1.2785,1.2673,1.252,1.2531,1.2622,1.2399,1.2406,1.256,1.259,1.259,1.259,1.259,1.259,1.259,1.1194,1.1194,1.1194,1.1194,1.0877,1.0668,1.0668,1.0312,1.0047,1.0047,0.999,0.9961,0.9994,0.9966,0.9961,0.9994,0.9966,0.9724,0.9263,0.9079,0.8926,0.8713,0.8665,0.8665,0.8665,0.8627,0.8551,0.8403,0.8589,0.8685,0.8656,0.8685,0.8496,0.8163,0.8163,0.8033,0.7872,0.784,0.7816,0.7811,0.7778,0.7655,0.7489,0.7489,0.7489,0.7489,0.7489,0.7489,0.7489,0.7489,0.7489,0.7489,0.7489,0.7489,0.7521,0.7559,0.7827,0.8135,0.8441,0.8317,0.8139,0.8103,0.8067,0.8116,0.8511,0.8552,0.8539,0.8505,0.8137,0.7742,0.7447,0.6972,0.6568,0.6539,0.6392,0.6344,0.6516,0.0,0.6647,0.6701,0.6797,0.6889,0.6889,0.6769,0.6712,0.674,0.6965,0.7104,0.7142,0.7337,0.7527,0.7712,0.7541,0.7546,0.7764,0.8435,0.9304,1.0303,1.1278,1.2012,1.2499,1.2838,1.267,1.2142,1.226,1.2202,1.197,1.2205,1.2336,1.2367,1.2529,1.259,1.259,1.259,1.259,1.259,1.1194,1.1194,1.1194,1.1194,1.1038,1.0872,1.0764,1.0441,1.017,1.017,1.0066,0.9994,0.9994,0.9994,0.9994,0.9994,0.9994,0.9866,0.9475,0.9258,0.9091,0.8883,0.8765,0.8703,0.8703,0.8703,0.8665,0.8551,0.8665,0.8585,0.8368,0.8486,0.8377,0.812,0.8203,0.8259,0.8269,0.816,0.8047,0.7968,0.7859,0.7683,0.7489,0.7489,0.7489,0.7489,0.7489,0.7489,0.7489,0.7489,0.7489,0.7489,0.7489,0.7489,0.7489,0.7489,0.7624,0.7787,0.8149,0.8117,0.7987,0.7987,0.7987,0.8084,0.842,0.8393,0.8276,0.8226,0.7986,0.7659,0.7349,0.6865,0.6539,0.6657,0.6412,0.0,0.6628,0.6635,0.6623,0.6744,0.6852,0.6881,0.6881,0.6824,0.6915,0.7163,0.7199,0.7337,0.7669,0.7565,0.7588,0.7807,0.7821,0.7873,0.7973,0.8368,0.9316,1.0737,1.1192,1.1988,1.3045,1.3023,1.284,1.2507,1.2255,1.2116,1.2056,1.2033,1.2151,1.2305,1.2406,1.2498,1.259,1.259,1.259,1.259,1.1194,1.1194,1.1194,1.1194,1.1194,1.1127,1.0924,1.0584,1.0388,1.0388,1.0246,1.0123,1.0075,1.007,1.0051,0.9999,0.9994,0.9928,0.9686,0.9428,0.9192,0.8995,0.8817,0.8703,0.8703,0.8703,0.8703,0.8703,0.8703,0.8538,0.8231,0.8396,0.8359,0.816,0.8325,0.8486,0.8623,0.8467,0.8307,0.8141,0.7985,0.783,0.7636,0.7636,0.7607,0.7565,0.7565,0.7531,0.7489,0.7489,0.7489,0.7489,0.7489,0.7527,0.7565,0.7565,0.7598,0.7678,0.7849,0.7884,0.7884,0.7884,0.7884,0.7954,0.822,0.8117,0.7987,0.7987,0.7951,0.7787,0.7481,0.7075,0.6822,0.6989,0.0,0.6478,0.684,0.6708,0.6657,0.6868,0.6934,0.6981,0.7033,0.708,0.7267,0.7612,0.7493,0.7612,0.8091,0.7811,0.7712,0.7878,0.7992,0.8068,0.8115,0.8292,0.9279,1.1037,1.1037,1.1855,1.3339,1.3128,1.2968,1.2793,1.2332,1.213,1.2104,1.1875,1.1957,1.2182,1.2274,1.2398,1.2529,1.259,1.259,1.259,1.1194,1.1194,1.1194,1.1194,1.1194,1.1127,1.0924,1.0702,1.0597,1.0597,1.0537,1.0502,1.0317,1.0293,1.0213,1.0013,0.9994,0.9985,0.9975,0.9549,0.9192,0.8995,0.8817,0.8703,0.8703,0.8703,0.8703,0.8703,0.8703,0.8685,0.8656,0.867,0.8571,0.8382,0.8396,0.8411,0.842,0.8411,0.8392,0.8377,0.8363,0.8226,0.8068,0.8068,0.7954,0.7788,0.7788,0.7664,0.7489,0.7489,0.7489,0.7489,0.7489,0.7626,0.7788,0.7788,0.7921,0.7987,0.7631,0.7521,0.7521,0.7521,0.7521,0.7554,0.7559,0.7787,0.7987,0.7987,0.8236,0.8388,0.8157,0.785,0.7618,0.7638,0.0,0.0,0.7138,0.696,0.6873,0.7142,0.7332,0.7527,0.7692,0.7881,0.8004,0.8068,0.8053,0.8068,0.811,0.8087,0.8077,0.8091,0.7925,0.7925,0.811,0.8292,0.9205,1.0812,1.0812,1.1558,1.2936,1.3098,1.2842,1.2276,1.2403,1.2145,1.1659,1.1755,1.1802,1.1864,1.2182,1.2305,1.2336,1.2529,1.259,1.259,1.1096,1.1194,1.1194,1.1194,1.1194,1.117,1.1094,1.0905,1.0773,1.0773,1.066,1.0588,1.0466,1.0348,1.0289,1.0203,1.007,0.9994,0.9994,0.9843,0.945,0.885,0.8746,0.8703,0.8703,0.8703,0.8703,0.8703,0.8703,0.8637,0.8514,0.8514,0.8477,0.8401,0.8401,0.8472,0.8585,0.8585,0.8514,0.8401,0.8401,0.8274,0.8115,0.8115,0.8068,0.7982,0.7859,0.7764,0.7669,0.7536,0.7579,0.7693,0.7693,0.7835,0.8001,0.8001,0.8053,0.8082,0.7921,0.7788,0.7693,0.7693,0.7588,0.7554,0.7754,0.7922,0.8052,0.8252,0.8526,0.8733,0.8641,0.8363,0.8179,0.8294,0.0,0.7347,0.7717,0.7555,0.7503,0.774,0.783,0.7911,0.7992,0.8068,0.8172,0.8269,0.8155,0.8193,0.8448,0.8349,0.8217,0.812,0.8136,0.8203,0.8278,0.8375,0.9188,1.0812,1.0651,1.1434,1.2893,1.2877,1.2735,1.2492,1.2504,1.2237,1.1853,1.1885,1.1894,1.1802,1.1926,1.212,1.2305,1.2398,1.2498,1.259,1.0498,1.0551,1.06,1.1096,1.0895,1.0797,1.1145,1.1075,1.099,1.099,1.0863,1.0745,1.0683,1.0551,1.046,1.0331,1.018,1.0066,0.9999,0.9933,0.9568,0.8926,0.8758,0.8659,0.8589,0.8589,0.8589,0.8589,0.8665,0.8633,0.8496,0.8496,0.8496,0.8496,0.8496,0.8571,0.8703,0.8703,0.8623,0.8496,0.8496,0.8406,0.8278,0.8278,0.8236,0.8165,0.8023,0.7933,0.7887,0.7735,0.7783,0.7911,0.7911,0.8014,0.8193,0.8255,0.8278,0.8278,0.8278,0.8127,0.7962,0.7925,0.7797,0.7788,0.8127,0.8233,0.8366,0.8804,0.8962,0.9037,0.9145,0.8764,0.8507,0.8629,0.8118,0.7788,0.8077,0.8018,0.8051,0.825,0.8335,0.8377,0.8377,0.8434,0.8505,0.859,0.8458,0.8472,0.8689,0.8571,0.8503,0.8464,0.8494,0.8575,0.8686,0.8486,0.9046,1.0319,1.0389,1.1099,1.2328,1.264,1.265,1.2451,1.2477,1.2244,1.1889,1.1959,1.1936,1.1872,1.2039,1.2215,1.2375,1.243,1.2523,1.259,0.9357,0.9167,0.932,1.09,1.0301,0.9953,1.1047,1.1194,1.1194,1.1194,1.1194,1.1118,1.092,1.0896,1.0731,1.036,1.0317,1.0222,1.0009,0.9762,0.9512,0.9296,0.8898,0.8617,0.8408,0.8403,0.8403,0.8403,0.8589,0.8703,0.8703,0.8703,0.8703,0.8703,0.8703,0.8703,0.8703,0.8703,0.8703,0.8703,0.8703,0.8703,0.8703,0.8703,0.8576,0.8406,0.8401,0.8264,0.8115,0.8115,0.8115,0.8115,0.812,0.8231,0.8444,0.8642,0.8703,0.8703,0.8703,0.8557,0.8354,0.8136,0.8115,0.8221,0.8619,0.8695,0.8906,0.9642,0.9497,0.9316,0.9637,0.9111,0.8619,0.8624,0.8337,0.8125,0.8125,0.8274,0.8486,0.868,0.8897,0.8985,0.8985,0.9164,0.9202,0.9004,0.8985,0.893,0.8718,0.8708,0.8899,0.9289,0.8899,0.8899,0.9289,0.8713,0.8703,0.9296,0.9911,1.0513,1.1149,1.2342,1.2528,1.1935,1.2316,1.216,1.1628,1.1879,1.2003,1.2072,1.2602,1.2694,1.2521,1.2723,1.2704,1.259,0.8024,0.8223,0.8619,0.9854,0.9513,0.9513,1.0998,1.0703,1.056,1.1145,1.1194,1.1175,1.1113,1.0938,1.0792,1.0716,1.035,1.0066,0.9999,0.9937,0.9729,0.9312,0.8936,0.8686,0.8622,0.8326,0.8255,0.8403,0.8479,0.8551,0.8703,0.8703,0.8703,0.8703,0.8703,0.8703,0.8703,0.8703,0.8703,0.8703,0.8703,0.8703,0.8703,0.8703,0.8666,0.8595,0.8453,0.8359,0.8283,0.8132,0.8179,0.833,0.8472,0.8562,0.8623,0.8685,0.8703,0.8703,0.8703,0.8656,0.8562,0.8359,0.8193,0.8256,0.8895,0.9036,0.9246,0.9985,0.9984,0.9854,0.9967,0.9489,0.9133,0.9284,0.8971,0.8789,0.8935,0.9006,0.9072,0.9133,0.9195,0.9192,0.9192,0.9249,0.9258,0.9197,0.9192,0.9164,0.9143,0.9138,0.9338,0.9776,0.9507,0.9659,1.0293,0.9043,0.8703,0.9296,0.9911,1.0513,1.1149,1.2342,1.2676,1.2256,1.2689,1.2628,1.2241,1.2336,1.2339,1.2387,1.2516,1.2495,1.2367,1.2521,1.2506,1.2398,0.7431,0.7478,0.7776,0.9065,0.8772,0.8871,1.0458,1.0314,1.0314,1.1096,1.1194,1.1096,1.0752,1.0858,1.0781,1.0283,1.0075,0.9994,0.9994,0.9994,0.9856,0.9605,0.9077,0.8711,0.8475,0.8238,0.8181,0.8289,0.8365,0.8518,0.8703,0.8703,0.8703,0.8703,0.8703,0.8751,0.8822,0.8737,0.8751,0.8822,0.8737,0.8703,0.8713,0.8798,0.8826,0.8822,0.8779,0.8765,0.8746,0.8618,0.8661,0.8789,0.8911,0.8892,0.8845,0.8926,0.8892,0.8826,0.8826,0.8826,0.8779,0.8571,0.8425,0.8544,0.9305,0.9486,0.9702,1.0462,1.0296,1.0038,1.0038,0.9488,0.9095,0.9218,0.9048,0.894,0.9058,0.9112,0.9164,0.9164,0.931,0.9376,0.9291,0.9357,0.9376,0.9291,0.9282,0.9282,0.9282,0.9486,0.977,1.0217,1.0122,1.0317,1.0945,0.9864,0.9374,0.9447,0.9731,1.0219,1.1035,1.2055,1.2544,1.2537,1.2731,1.2701,1.2477,1.2353,1.2368,1.2485,1.2485,1.2428,1.2335,1.2457,1.2411,1.2336,0.7332,0.6883,0.6883,0.8425,0.8028,0.8028,0.9669,0.9821,1.0064,1.09,1.0998,1.0703,1.0019,1.0556,1.0555,0.9459,0.9723,0.9936,0.9999,0.9951,0.9907,0.9951,0.9253,0.8605,0.8005,0.8064,0.8129,0.8154,0.8342,0.8521,0.8732,0.8732,0.8718,0.8703,0.8722,0.8841,0.8971,0.8831,0.8869,0.899,0.8817,0.8741,0.8774,0.8919,0.8995,0.9032,0.9216,0.9282,0.9282,0.9282,0.9282,0.9282,0.9282,0.9159,0.9046,0.923,0.9155,0.9014,0.9014,0.9014,0.8966,0.8807,0.8755,0.8937,0.9663,0.9857,1.0095,1.0856,1.0385,0.9878,0.9878,0.9266,0.8737,0.8755,0.8741,0.8737,0.8755,0.8926,0.9014,0.9014,0.9343,0.9498,0.9301,0.946,0.9493,0.9296,0.9301,0.9351,0.9392,0.9815,1.0279,1.0697,1.0746,1.0989,1.1427,1.0972,1.042,0.9765,0.9534,0.9931,1.0906,1.1615,1.2227,1.2699,1.2526,1.2456,1.2463,1.2135,1.2193,1.2485,1.2485,1.2443,1.2347,1.2502,1.2457,1.2383,0.6634,0.6537,0.6684,0.768,0.7182,0.7182,0.8825,0.8528,0.8425,0.9217,0.9316,0.9414,0.9661,0.9464,0.9694,1.0671,0.9808,0.9423,0.9965,0.9462,0.9248,0.9432,0.8547,0.7775,0.7158,0.7736,0.8183,0.8559,0.8595,0.8755,0.8915,0.8915,0.8864,0.8708,0.8878,0.8938,0.899,0.9143,0.9178,0.9202,0.8999,0.9009,0.9176,0.9028,0.9079,0.9225,0.9268,0.9282,0.9282,0.9282,0.9282,0.9282,0.9282,0.9253,0.9225,0.9272,0.9253,0.9216,0.9216,0.9216,0.9206,0.9159,0.919,0.9225,0.9397,0.9563,0.9756,1.0106,0.9909,0.9652,0.9652,0.9262,0.9006,0.9122,0.9058,0.9011,0.9167,0.9188,0.9216,0.9216,0.9296,0.9333,0.9286,0.9324,0.9333,0.9286,0.9437,0.9698,1.0075,1.0314,1.0836,1.1685,1.15,1.1738,1.2409,1.1595,1.0869,1.0252,1.0286,1.0678,1.137,1.1531,1.1995,1.2692,1.2286,1.2251,1.2463,1.2135,1.2193,1.2485,1.2485,1.2583,1.2725,1.2892,1.285,1.2671,0.6387,0.6387,0.6537,0.6933,0.6684,0.6833,0.8028,0.7879,0.7879,0.8676,0.8825,0.8821,0.8817,0.8821,0.8987,0.955,0.8238,0.8147,0.9873,0.9288,0.8982,0.9117,0.8277,0.7486,0.6843,0.6896,0.7214,0.7851,0.8431,0.8792,0.9006,0.8988,0.8924,0.8859,0.8934,0.9037,0.9136,0.9239,0.9343,0.9418,0.9211,0.9188,0.9282,0.9282,0.9343,0.9446,0.9587,0.962,0.962,0.962,0.962,0.962,0.962,0.9554,0.9456,0.9597,0.9554,0.9437,0.9437,0.9437,0.9413,0.9305,0.9357,0.9517,0.9834,0.9845,0.9891,1.04,1.0121,0.9727,0.9727,0.9407,0.9159,0.9268,0.9197,0.9131,0.9141,0.9225,0.9249,0.915,0.9225,0.9244,0.915,0.9141,0.9183,0.9277,0.9301,0.9518,0.9929,1.0503,1.1038,1.1505,1.1911,1.2312,1.2705,1.2224,1.1792,1.1496,1.0681,1.0671,1.137,1.1419,1.1754,1.2276,1.2506,1.2667,1.2731,1.2468,1.2472,1.2646,1.245,1.2531,1.2714,1.271,1.2702,1.268,0.6387,0.6387,0.6387,0.6387,0.6387,0.6634,0.7282,0.7381,0.763,0.8326,0.8375,0.8226,0.7776,0.8034,0.8055,0.7484,0.6609,0.7095,0.9598,0.9113,0.8759,0.8846,0.8009,0.7214,0.6514,0.5805,0.597,0.7017,0.8022,0.8678,0.8968,0.9048,0.899,0.8918,0.9035,0.9102,0.9256,0.9293,0.9433,0.9648,0.94,0.938,0.9497,0.9564,0.9649,0.9733,0.999,1.0051,1.0051,1.0051,1.0023,0.9994,0.9994,0.9833,0.9734,0.9942,0.9833,0.9658,0.9658,0.9658,0.9611,0.9474,0.9563,0.9822,1.047,1.0193,1.0029,1.0713,1.034,0.984,0.984,0.9589,0.9338,0.9338,0.9305,0.9225,0.9061,0.9178,0.9221,0.9056,0.9183,0.9216,0.9051,0.9037,0.9103,0.9272,0.9164,0.9266,0.9657,1.0501,1.1008,1.1053,1.2038,1.2572,1.2572,1.2572,1.2572,1.2524,1.0969,1.0603,1.1364,1.1296,1.1558,1.2033,1.2763,1.3079,1.3057,1.2904,1.2837,1.2774,1.253,1.2586,1.2804,1.2671,1.2688,1.2766,0.6387,0.6387,0.6387,0.6387,0.6387,0.6437,0.6537,0.6584,0.6587,0.6734,0.6736,0.6684,0.6634,0.6305,0.6071,0.6002,0.6915,0.7837,0.8632,0.8229,0.8141,0.8544,0.7298,0.6154,0.5275,0.4743,0.5437,0.7425,0.7599,0.8088,0.8915,0.9154,0.9054,0.8687,0.9068,0.9158,0.897,0.9189,0.9512,0.9843,0.9467,0.9651,1.0107,0.9733,0.9871,1.0192,1.0265,1.0274,1.0274,1.0274,1.0151,0.9994,0.9994,0.9975,0.9961,0.9985,0.9975,0.9952,0.9952,0.9952,0.9947,0.9919,0.9933,1.0072,1.0512,1.0107,0.9633,0.957,0.9598,0.9648,0.9648,0.9606,0.9559,0.9559,0.9404,0.9272,0.9244,0.9268,0.9272,0.9244,0.9268,0.9272,0.9244,0.9244,0.9253,0.9282,0.9432,0.9627,0.9943,1.0574,1.101,1.1254,1.1768,1.2029,1.2029,1.2029,1.2029,1.1988,1.1347,1.1386,1.2028,1.1186,1.1506,1.2729,1.2281,1.253,1.3239,1.3108,1.2972,1.2796,1.2926,1.3281,1.3726,1.3816,1.3703,1.3402,0.6387,0.6387,0.6387,0.6387,0.6387,0.6387,0.6387,0.6387,0.6387,0.6387,0.6387,0.6387,0.6387,0.5969,0.5742,0.5918,0.5888,0.6542,0.8102,0.7354,0.7214,0.8053,0.6637,0.5667,0.5228,0.4121,0.4476,0.6517,0.718,0.7979,0.891,0.9016,0.8957,0.8794,0.8965,0.9001,0.8925,0.9174,0.9549,0.9899,0.9721,0.989,1.0298,1.0069,1.0112,1.0286,1.0445,1.0412,1.0317,1.0317,1.0175,0.9994,0.9994,0.9994,0.9994,0.9994,0.9994,0.9994,0.9994,1.0085,1.0146,1.0023,1.0085,1.0186,1.0236,1.0053,0.9876,0.9983,1.0014,0.996,0.9838,0.9918,0.9956,0.9838,0.9838,0.9771,0.9493,0.9804,0.9979,0.9871,0.9852,0.9804,0.9686,0.9677,0.9724,0.9847,0.9682,0.9738,0.9968,1.0364,1.0668,1.0886,1.1456,1.1781,1.1886,1.188,1.188,1.188,1.168,1.1536,1.1449,1.1194,1.1461,1.2128,1.2616,1.3063,1.3479,1.3615,1.355,1.3374,1.3347,1.3496,1.3771,1.4003,1.3767,1.329]}]]